GFSNGP_500_spd_000.txt.gz
Wind_Speed
35 36 30 38 43 57 70 67 60 53 51 48 43 44 36 33 30 27 23 28 23 28 23 24 22 21 19 19 20 21 22 21 19 24 24 25 30 34 39 41 43 35 31 27
35 33 34 36 40 44 47 72 69 60 56 41 44 52 47 32 30 29 27 29 26 28 31 27 27 25 27 25 24 25 22 20 25 26 31 33 35 39 41 45 47 34 30 36
31 24 30 37 39 39 48 49 56 64 68 67 54 47 42 37 32 26 27 31 26 29 34 33 29 28 30 28 24 23 23 23 26 31 36 38 39 45 44 48 45 43 40 39
36 36 33 32 31 35 39 47 52 56 47 50 53 52 44 38 33 29 31 29 32 36 31 29 32 35 34 29 26 30 29 32 34 38 41 44 44 46 48 46 51 48 43 42
45 37 32 28 25 30 35 40 41 47 49 48 52 53 47 35 36 32 34 30 36 32 30 32 35 36 36 33 31 35 35 37 38 39 45 49 51 52 57 64 46 48 46 45
40 42 38 36 30 35 36 48 49 42 53 49 52 49 38 42 37 36 32 32 35 35 34 35 37 38 37 36 34 34 36 39 41 46 51 54 59 51 57 55 52 50 46 41
47 48 46 47 38 37 30 39 38 49 46 47 48 44 42 44 37 39 37 33 32 30 39 38 39 41 45 39 40 39 39 43 46 52 55 58 52 43 52 51 47 49 43 35
52 53 43 41 34 35 29 32 36 39 45 39 40 38 46 40 37 40 39 39 38 35 33 44 47 48 45 45 41 42 44 45 51 54 59 58 55 48 53 53 51 42 40 37
47 48 51 47 37 34 28 31 32 29 34 38 37 38 42 37 37 39 40 39 38 39 39 43 48 46 43 46 44 42 41 46 50 54 61 56 53 54 50 45 39 38 40 36
39 39 38 37 42 47 36 34 33 34 33 36 37 38 38 37 38 38 41 42 39 39 41 43 47 52 39 45 43 42 41 45 48 53 46 55 56 51 45 43 37 37 34 39
36 33 33 29 34 37 40 34 36 36 38 39 40 40 47 50 47 44 45 44 42 42 43 46 50 47 41 44 47 47 49 50 49 48 53 47 43 46 45 43 40 39 43 44
32 29 29 37 40 40 43 37 38 43 47 44 42 45 47 56 52 43 47 44 42 41 45 45 46 45 46 49 51 51 50 47 48 45 42 43 45 44 44 43 42 42 45 45
28 28 28 18 40 42 46 48 46 47 45 47 43 43 44 39 39 42 45 46 35 34 39 46 46 46 48 43 39 38 40 41 45 44 44 45 43 42 43 44 45 46 46 46
25 23 25 19 32 43 42 43 46 51 50 51 50 42 40 40 42 37 36 35 35 36 39 42 47 45 43 43 43 45 45 49 49 50 47 47 46 44 43 44 45 44 43 43
33 22 24 29 39 41 46 41 42 53 58 51 54 54 51 47 43 42 39 37 39 41 42 44 44 46 46 47 48 50 51 45 45 46 48 47 43 43 46 46 44 43 44 40
32 30 29 31 17 28 33 35 45 36 23 37 38 44 53 51 55 43 36 39 43 46 51 53 46 47 49 48 48 48 46 43 45 45 43 42 45 46 44 42 43 39 37 37
25 19 15 40 31 32 24 22 34 26 24 23 30 38 42 34 31 34 37 36 38 41 46 47 46 47 47 47 46 45 41 39 40 41 43 43 34 39 35 35 33 36 37 34
27 28 28 31 30 23 27 30 25 24 22 20 20 22 24 25 29 32 34 38 39 41 41 42 41 41 42 40 38 37 38 40 41 38 33 32 35 34 38 38 34 31 27 25
32 40 31 26 14 17 16 17 19 15 18 22 20 22 26 30 35 37 37 39 39 40 38 36 33 33 36 37 39 39 37 36 34 32 37 37 36 38 36 32 30 27 25 25
28 18 13 13 11 8 8 8 11 14 15 17 19 23 25 28 30 31 32 32 33 33 34 35 34 33 34 36 35 34 34 34 33 32 29 29 29 30 29 26 25 24 23 24
21 18 15 11 12 13 13 13 14 15 17 19 21 22 23 25 25 25 26 27 28 29 31 30 29 29 31 32 32 32 30 29 29 27 26 28 28 27 25 26 25 25 26 24
11 9 11 14 15 14 14 15 18 19 20 21 22 22 23 24 24 24 26 27 28 26 26 27 28 27 28 28 28 27 26 26 26 27 28 27 26 25 26 25 24 24 24 22
10 11 12 13 15 17 19 21 20 19 20 22 23 23 24 25 25 26 25 24 24 23 25 27 26 25 24 24 25 25 24 24 24 24 23 24 26 26 25 24 23 23 22 25
12 13 15 16 15 16 18 19 19 21 23 25 25 25 26 26 24 22 21 23 23 24 24 24 23 24 25 25 26 26 25 25 24 24 25 24 22 22 23 24 24 24 26 25
10 12 14 16 16 17 18 20 22 24 25 26 25 23 22 23 23 23 23 26 26 24 23 22 23 24 25 26 26 26 26 26 25 24 23 23 24 25 26 26 28 28 29 29
12 14 16 17 17 17 17 18 21 20 20 23 25 25 27 27 26 26 27 27 26 25 25 25 25 26 27 28 27 26 26 26 27 27 28 28 28 27 27 27 26 27 28 29
16 18 20 20 21 21 20 21 21 21 21 22 23 24 26 26 28 30 30 30 30 30 30 29 29 29 30 31 31 31 31 32 32 31 30 29 28 27 27 28 28 30 31 32

GFSNGP_500_spd_003.txt.gz
Wind_Speed
40 33 25 32 34 40 48 49 55 48 44 42 40 37 33 31 41 36 31 35 28 30 26 25 23 24 23 20 22 22 19 17 17 14 16 20 21 25 30 28 33 36 37 33
39 31 34 31 32 37 38 47 51 50 49 43 43 37 33 35 41 43 32 30 34 31 31 27 28 26 25 24 25 25 19 18 18 16 18 23 27 31 36 38 40 42 46 43
38 34 31 34 39 37 38 40 42 52 55 46 47 46 46 48 47 45 35 32 34 33 27 30 30 31 32 30 28 27 22 18 22 21 27 30 33 36 41 44 47 49 53 57
36 32 35 39 32 32 36 38 39 42 39 39 49 57 49 40 41 40 38 36 34 31 28 34 32 33 35 35 33 27 27 27 28 29 32 35 38 41 44 48 50 51 57 48
36 37 36 34 28 34 37 38 37 37 39 35 35 36 49 59 55 41 46 30 38 32 32 33 35 33 34 36 34 33 33 35 30 31 35 40 42 43 48 53 57 57 49 52
35 41 41 31 40 28 36 45 41 40 33 37 34 28 35 40 52 52 43 39 41 35 34 37 34 34 35 37 35 33 32 32 33 35 38 41 44 45 50 59 60 53 49 51
50 38 33 41 40 33 37 31 31 39 41 35 39 34 38 43 40 42 40 46 43 38 35 39 38 37 35 36 36 37 39 40 39 40 45 45 45 49 52 58 62 58 56 53
45 42 41 42 40 39 40 38 34 31 29 44 37 47 52 43 41 39 39 49 47 42 39 38 40 40 40 40 42 43 45 46 44 47 49 47 49 49 53 53 61 59 55 52
35 36 45 47 46 36 33 33 28 27 34 40 40 43 38 35 34 36 40 46 49 46 40 37 34 30 36 44 47 47 46 46 49 48 48 50 52 54 56 56 54 57 53 44
39 48 49 48 40 35 34 32 30 33 34 35 34 35 39 39 37 35 43 48 50 48 47 44 42 41 38 39 47 51 52 50 46 45 50 54 54 57 52 51 53 48 44 44
58 60 53 51 39 29 31 33 33 34 36 34 35 41 39 37 39 37 42 47 43 45 46 48 48 48 48 49 48 47 51 50 50 54 54 56 55 54 47 48 46 47 47 49
37 49 47 39 33 30 30 34 39 40 34 38 34 36 40 42 40 39 35 39 41 42 47 49 50 50 49 48 47 46 51 47 53 55 59 55 56 48 43 46 46 44 46 48
51 31 29 32 31 29 27 30 35 40 39 36 33 36 41 40 36 41 42 44 47 48 49 51 52 52 52 48 48 48 50 50 55 56 55 54 51 49 50 48 45 47 46 46
29 33 32 27 26 31 30 30 36 44 45 41 43 44 44 51 49 52 55 57 60 58 52 52 48 50 52 44 43 47 52 56 56 53 51 52 52 51 45 44 44 46 46 48
31 31 28 29 33 34 33 34 37 51 42 47 48 51 55 51 48 50 51 52 47 62 40 37 46 50 45 38 45 48 50 50 49 49 49 51 50 50 49 45 46 47 47 45
30 31 32 30 24 28 37 39 49 53 50 45 48 52 52 56 52 50 52 54 48 45 45 41 39 37 43 46 44 45 51 48 46 47 47 48 48 46 43 44 47 44 39 37
29 27 32 26 25 25 44 33 23 45 47 48 50 52 57 55 56 55 53 49 48 45 41 39 38 42 45 46 45 47 46 43 45 48 47 41 41 41 41 41 35 39 39 33
24 19 17 20 23 24 29 24 18 18 31 33 46 51 57 50 49 51 63 65 61 54 56 50 45 44 42 41 41 43 42 44 44 40 38 37 36 37 34 35 37 38 38 36
20 22 16 23 27 25 23 29 33 30 28 27 22 19 21 21 22 25 31 30 27 30 33 34 35 36 41 42 39 38 38 37 36 37 36 32 33 33 36 41 37 33 34 30
33 29 28 31 22 21 25 30 25 20 17 17 20 20 20 23 24 26 31 31 30 31 31 34 37 39 37 35 34 34 35 35 36 34 32 31 34 34 32 31 32 32 31 27
27 27 32 33 21 18 16 20 25 22 16 17 19 23 26 28 29 29 27 25 25 29 32 33 32 32 31 31 32 36 35 33 31 30 30 31 32 29 29 31 31 30 28 26
22 26 26 21 18 13 11 13 15 18 22 25 25 25 25 26 26 24 25 26 28 27 30 32 31 33 33 32 31 29 32 30 29 28 29 29 30 31 31 31 29 27 26 25
10 8 17 15 17 17 17 16 15 17 20 22 23 24 25 24 23 23 24 25 26 29 29 28 31 30 27 29 28 30 31 29 29 29 30 30 29 29 28 28 29 26 22 21
5 7 6 8 10 14 16 15 17 19 20 21 18 19 21 23 24 25 25 25 25 27 27 27 25 25 27 27 27 29 29 30 31 32 31 30 30 29 27 25 23 23 24 25
9 8 7 8 9 11 12 14 18 19 21 23 24 26 27 29 30 27 29 25 26 27 27 27 26 26 27 27 27 29 32 32 33 31 31 31 30 28 27 27 28 29 30 29
7 10 11 13 14 16 18 19 22 23 24 27 27 28 30 31 30 29 30 31 30 31 32 31 29 28 29 31 32 34 33 34 34 32 31 31 31 31 32 33 33 33 31 30
14 16 16 16 17 20 21 23 24 25 25 26 29 29 30 31 31 31 34 35 35 35 35 36 37 36 35 35 35 34 34 36 37 36 35 34 33 34 36 36 36 35 34 33

GFSNGP_500_spd_006.txt.gz
Wind_Speed
46 40 30 35 36 40 43 45 50 52 47 37 49 37 30 40 34 35 39 31 32 30 29 28 31 27 24 24 24 20 15 9 4 4 7 9 6 12 17 18 22 27 30 36
47 39 40 34 35 38 39 43 42 51 45 46 40 49 39 36 34 40 41 45 42 29 32 33 34 30 26 26 26 23 19 12 12 8 11 12 15 16 20 24 27 28 34 40
57 47 35 40 45 35 36 36 38 39 54 45 49 42 48 39 31 31 35 38 49 47 40 37 37 36 31 29 28 27 24 17 17 12 10 15 17 20 23 27 31 34 38 46
53 38 42 53 36 36 36 34 33 35 38 46 51 57 55 56 40 42 36 43 40 49 51 42 40 39 35 33 30 28 28 24 21 21 19 22 23 26 30 32 34 39 43 48
47 41 45 39 32 33 37 42 39 35 37 35 38 56 64 63 55 52 51 39 50 51 48 51 39 36 37 34 28 30 29 25 22 22 29 29 29 30 35 36 38 41 46 50
50 50 50 42 36 47 50 46 45 47 45 43 39 38 43 64 66 60 55 52 50 51 42 45 36 36 32 34 32 33 28 26 26 26 28 30 32 35 36 40 44 46 48 52
57 54 47 38 45 43 46 42 41 43 44 46 49 45 38 37 35 51 70 53 59 40 38 40 34 36 33 34 31 29 30 27 29 29 32 34 34 35 38 43 48 49 52 53
51 43 41 46 41 24 43 45 37 40 42 49 50 46 38 43 44 43 44 65 62 46 49 37 39 38 36 35 32 33 32 33 31 33 37 39 39 33 41 47 51 53 56 57
54 55 40 35 50 47 49 45 39 38 37 37 41 52 58 55 53 53 46 53 68 61 57 48 46 44 39 40 37 35 39 37 38 40 42 46 43 42 43 45 55 56 59 59
45 47 39 54 52 49 45 45 44 44 45 45 42 45 48 51 49 56 44 47 48 46 49 52 49 46 39 39 39 41 41 41 43 43 43 45 47 52 54 54 57 56 55 54
34 46 55 51 54 55 53 41 40 38 35 42 40 43 43 52 57 49 53 52 47 48 46 50 49 45 46 40 38 38 39 44 47 50 50 52 51 53 53 56 58 56 52 50
45 52 55 54 52 48 40 38 34 33 38 40 38 37 34 41 43 42 42 41 38 39 37 43 46 48 48 46 46 50 50 50 52 53 53 53 52 54 58 57 59 56 52 50
53 59 64 57 50 45 37 38 35 31 38 41 36 31 36 46 34 32 35 35 38 37 37 45 49 50 53 53 54 54 57 57 56 52 55 52 53 57 57 59 56 53 47 46
49 26 38 47 43 39 38 37 29 31 36 37 39 40 38 29 31 28 29 33 37 38 40 41 45 47 50 53 56 56 55 53 56 61 60 50 57 57 53 51 48 47 44 44
26 24 24 40 44 34 28 29 31 32 31 30 32 38 38 35 30 33 39 39 41 41 45 45 46 44 43 44 50 51 53 59 59 54 52 56 56 51 50 47 43 42 43 43
14 15 24 29 33 32 31 29 31 31 32 32 33 35 39 39 39 39 43 48 45 43 43 45 49 48 47 46 44 42 46 53 55 48 50 51 49 43 41 42 44 43 41 37
21 22 24 26 25 24 23 23 23 23 27 37 38 41 40 48 46 44 47 53 45 47 48 45 48 48 47 46 58 49 48 47 48 51 49 42 40 41 41 40 40 39 35 28
21 21 23 22 23 19 19 28 30 32 32 36 35 46 45 47 47 51 41 43 43 43 48 51 45 45 43 44 49 48 46 40 40 44 40 38 38 36 37 40 40 39 33 33
16 21 17 17 17 12 13 13 21 28 29 25 25 32 51 48 46 49 51 56 52 52 52 50 52 54 54 54 53 49 41 37 39 39 38 32 34 36 38 36 37 36 34 32
20 15 12 8 11 15 14 13 17 14 23 30 27 22 24 28 44 45 55 55 52 53 48 49 57 43 35 34 35 36 37 33 28 31 35 36 36 34 34 32 35 34 31 29
14 18 22 17 15 18 18 16 21 24 26 26 22 21 26 26 26 26 18 16 21 24 26 28 26 31 32 35 33 28 26 30 31 35 35 34 33 35 35 34 34 32 32 33
16 15 15 18 18 18 19 19 20 19 15 14 14 17 17 17 20 21 24 25 26 26 26 26 27 27 29 29 29 29 32 33 36 36 34 34 33 33 37 36 36 34 31 30
13 16 26 24 19 17 14 11 11 14 15 18 23 25 26 26 24 24 26 27 27 29 31 31 32 34 34 34 33 32 33 34 33 36 41 39 37 36 36 35 35 36 34 32
4 6 7 16 21 16 18 19 20 19 20 19 20 22 24 26 29 28 32 34 32 32 32 31 32 33 34 35 34 34 36 36 36 39 40 39 39 37 36 35 35 34 33 31
6 5 6 5 6 10 14 15 21 25 23 21 22 21 23 24 26 27 26 28 31 30 31 33 32 33 34 35 34 34 35 36 37 36 37 38 37 37 36 35 34 33 33 33
3 5 7 8 10 12 15 15 18 21 19 19 22 23 25 27 28 28 26 28 28 29 32 32 32 31 32 34 35 36 37 35 37 38 38 37 37 37 39 37 35 35 36 36
11 11 12 14 16 19 20 24 25 27 25 23 27 30 32 29 28 28 30 32 31 30 32 35 36 36 38 37 39 41 43 41 41 40 41 42 41 41 41 40 41 39 38 39

GFSNGP_500_spd_009.txt.gz
Wind_Speed
60 52 47 52 48 43 46 45 47 40 46 40 40 45 38 31 26 27 29 32 36 39 39 30 26 23 23 23 23 21 15 10 12 14 16 15 14 12 12 13 16 18 20 20
62 58 51 51 49 43 42 40 42 41 42 45 45 41 37 32 37 39 38 38 36 40 44 39 37 37 36 26 22 24 22 13 17 14 15 15 13 14 14 11 13 17 20 24
70 62 52 50 59 51 40 38 36 44 40 39 49 50 49 36 37 40 37 35 43 43 47 45 45 40 41 33 27 24 25 20 16 18 16 17 16 14 12 15 18 21 23 26
69 63 57 59 54 50 45 41 40 40 37 36 40 52 58 46 41 52 46 47 42 42 44 48 50 50 39 40 32 29 31 28 24 19 20 26 22 20 22 23 22 22 26 29
64 66 65 60 55 49 45 44 41 44 41 40 34 48 59 63 51 51 56 43 41 45 50 46 45 50 47 47 39 36 35 33 30 22 21 26 27 29 29 27 27 20 26 31
60 59 66 63 50 48 52 49 47 50 49 44 43 42 46 60 66 60 58 60 53 45 46 46 37 46 46 43 40 39 36 33 31 25 24 24 25 29 28 32 36 27 32 35
54 56 60 64 54 45 49 53 56 57 55 53 50 44 45 49 69 70 72 68 58 59 52 51 44 50 51 45 45 35 35 37 35 31 26 21 22 30 30 29 34 34 40 42
42 46 53 57 50 55 57 57 57 54 49 48 50 49 48 45 42 49 72 77 74 67 55 48 49 55 45 35 41 38 35 41 38 33 24 22 31 33 31 37 40 44 40 39
52 51 53 58 51 53 62 61 57 52 54 50 48 46 42 41 39 44 47 51 57 82 73 61 55 57 57 46 40 40 37 38 35 30 30 32 34 34 38 47 40 44 46 50
63 64 47 56 56 65 61 55 51 45 53 40 40 43 42 43 44 45 50 52 51 46 56 67 66 57 54 51 45 44 42 40 34 38 36 35 37 41 45 46 47 48 51 52
54 65 48 34 46 60 60 65 40 46 39 39 46 46 50 46 45 45 45 56 62 56 55 55 49 62 62 56 52 47 45 46 46 43 37 38 40 44 45 49 50 49 53 53
55 42 39 50 66 31 44 33 51 52 43 40 41 43 44 46 47 49 55 57 61 60 59 54 53 50 58 65 64 52 51 45 44 40 38 42 43 46 50 51 51 54 56 56
55 57 64 64 61 62 60 51 43 39 40 44 39 37 43 42 40 47 58 26 48 53 45 54 43 47 50 46 47 50 50 46 46 44 45 47 47 50 53 51 55 57 58 60
62 63 61 57 55 58 59 53 43 42 36 35 37 31 37 37 39 39 41 6 24 39 41 46 46 45 45 45 46 48 48 50 50 48 51 53 54 55 54 59 62 55 53 54
49 58 55 44 33 46 52 44 45 40 31 30 32 31 33 33 36 42 40 13 15 26 33 37 40 43 40 42 46 47 48 53 57 57 55 58 56 57 56 53 42 40 43 43
29 40 50 33 23 40 50 43 34 26 27 31 33 34 36 27 32 28 27 18 23 26 30 33 35 37 34 38 43 49 57 60 58 56 53 53 53 51 49 47 45 41 41 39
17 10 27 36 27 28 39 42 34 26 28 32 34 37 36 30 26 24 27 26 29 29 31 29 36 44 43 43 47 48 50 58 58 49 38 46 57 49 45 47 42 42 41 35
19 15 15 25 27 18 17 20 27 31 32 28 27 26 23 28 24 29 32 32 35 33 34 34 41 39 38 38 47 36 41 44 44 40 38 44 48 47 45 42 42 41 37 37
14 16 18 20 19 21 23 25 30 27 23 23 28 23 16 31 33 33 35 32 47 45 41 41 38 42 47 51 54 44 42 43 41 42 37 41 38 38 37 41 39 37 38 35
14 10 12 14 16 21 13 15 18 15 17 22 21 26 26 23 22 27 38 42 47 41 34 36 41 46 48 48 49 44 48 38 33 37 41 28 30 35 34 35 40 37 31 31
10 4 7 19 9 9 11 12 13 10 10 10 12 15 20 23 19 25 25 29 43 48 47 47 51 56 59 58 52 43 37 33 26 24 30 29 33 36 35 36 35 34 33 28
10 8 7 11 9 8 10 9 11 11 13 17 19 18 20 23 24 18 19 11 16 23 13 12 15 15 15 19 21 24 23 25 27 29 28 31 37 38 36 34 30 32 34 32
11 19 14 12 13 11 12 12 12 12 15 17 20 19 20 17 21 17 15 13 16 18 20 20 20 22 24 27 29 30 31 33 34 35 36 37 40 35 34 36 36 37 37 36
8 7 9 7 14 17 19 17 15 15 14 15 16 18 20 20 20 22 24 27 29 27 27 26 25 25 27 30 33 36 35 35 36 36 42 42 35 38 44 43 42 41 41 39
9 3 7 5 4 5 10 13 12 15 16 19 20 22 24 24 23 24 24 29 30 28 29 29 30 32 36 38 39 40 42 42 41 40 40 39 38 38 39 39 40 40 38 39
7 9 10 9 9 9 10 12 16 17 14 15 20 22 24 26 25 23 24 29 33 32 32 30 33 35 37 38 39 40 39 39 40 39 36 36 37 38 38 40 41 40 38 39
11 13 14 17 19 18 17 19 22 21 21 20 23 26 27 27 28 29 29 30 34 36 36 33 36 38 39 40 40 41 38 40 42 42 41 39 41 41 42 42 41 43 42 41

GFSNGP_500_spd_012.txt.gz
Wind_Speed
71 64 53 56 55 55 55 52 54 39 44 36 26 47 45 37 34 28 21 42 28 31 28 33 33 26 17 20 22 21 22 16 13 17 20 24 24 21 20 17 14 14 16 14
76 70 64 59 60 60 57 54 52 48 45 38 32 38 52 51 41 31 25 32 28 26 27 31 29 27 21 20 17 21 23 22 20 22 22 23 23 24 22 21 17 15 15 15
76 70 61 56 67 65 61 58 54 53 44 37 40 34 50 55 52 43 34 38 36 31 33 36 31 30 30 31 24 28 27 23 21 23 25 25 25 29 27 27 23 20 21 18
77 68 66 71 63 63 63 59 55 56 48 41 39 38 43 53 55 51 52 43 38 43 37 41 38 38 35 35 38 33 30 26 24 22 25 27 27 31 28 27 25 27 29 25
79 75 71 69 68 61 62 58 52 56 55 50 42 39 38 49 58 56 51 52 50 49 37 41 47 43 46 44 38 34 33 33 27 28 31 29 28 32 35 35 33 32 37 35
53 73 73 74 68 61 53 59 57 58 57 53 45 43 46 41 51 59 60 57 48 50 52 45 46 49 47 45 39 41 37 36 35 32 36 35 33 33 38 38 37 38 41 36
58 53 65 77 72 54 52 58 62 60 56 53 50 44 42 38 36 50 57 63 65 59 57 60 52 47 48 46 46 49 39 34 35 36 39 39 38 34 37 42 43 40 42 31
66 44 53 63 62 63 55 53 59 59 56 52 50 46 41 36 38 41 45 50 64 67 70 66 63 65 62 55 47 50 49 44 44 40 44 44 41 37 41 43 43 45 45 27
53 35 55 60 57 51 59 53 58 60 58 56 54 52 48 46 39 39 41 51 61 64 69 73 63 59 64 64 56 50 50 43 45 43 42 46 47 45 45 44 45 47 34 32
64 44 46 67 69 56 66 62 61 62 60 60 57 55 53 51 43 45 45 46 51 58 68 77 76 70 64 63 58 54 49 47 46 44 45 44 52 50 48 49 47 39 37 40
66 51 45 69 68 65 65 66 64 62 62 59 57 56 55 48 48 52 52 55 56 52 52 56 59 62 60 68 66 61 65 48 48 49 48 47 53 56 57 54 45 30 39 42
61 50 49 58 66 70 61 59 66 63 56 56 59 52 48 46 49 54 56 54 52 55 52 55 61 65 53 53 62 64 60 55 52 52 50 54 61 64 49 35 30 39 44 47
60 38 48 52 53 58 45 55 61 51 58 54 42 43 51 49 52 55 54 54 53 47 54 61 73 40 56 56 58 57 64 60 61 55 57 48 47 58 21 34 41 46 48 59
62 48 40 50 52 40 54 33 64 57 56 63 50 43 43 50 51 46 47 46 42 42 48 53 7 61 50 46 46 48 50 46 51 54 53 50 56 49 31 41 48 48 50 56
47 51 39 50 50 30 29 40 37 41 45 37 34 61 60 55 51 48 41 32 30 30 33 28 12 17 31 33 44 41 44 46 41 44 47 48 51 53 45 47 54 55 60 55
37 57 48 39 47 39 36 34 40 47 46 48 48 48 55 48 41 34 29 23 28 29 17 18 18 20 26 34 37 39 38 32 41 42 45 50 56 55 59 61 62 64 62 47
35 45 51 50 46 39 33 35 33 42 39 36 37 45 42 38 36 33 28 28 25 22 15 20 21 20 22 25 34 38 39 38 42 47 48 49 55 59 59 59 62 52 28 33
26 28 39 44 45 40 53 50 35 35 28 30 27 30 33 32 32 23 26 23 23 23 24 24 25 26 30 30 34 39 43 36 39 43 47 50 55 56 54 56 47 39 30 28
21 20 22 19 28 38 43 55 37 35 35 36 29 33 27 28 27 22 16 23 22 24 29 29 29 28 33 33 34 46 40 44 37 36 42 47 41 40 45 35 33 38 30 28
18 18 17 10 12 14 19 20 18 20 28 31 35 32 29 27 31 25 23 24 22 26 28 29 27 31 39 38 43 35 35 38 38 41 48 33 36 37 43 37 31 27 29 30
11 20 17 14 11 13 17 14 14 16 17 20 23 25 28 27 25 22 23 24 19 19 32 36 32 37 44 37 55 44 43 43 38 40 40 42 37 35 38 34 31 28 30 29
10 13 11 8 6 8 10 12 10 12 15 15 14 14 13 16 17 18 19 20 22 22 24 29 36 44 45 41 38 45 49 49 48 47 44 39 42 36 32 32 31 29 33 37
19 11 9 5 6 6 5 5 6 10 9 10 12 13 15 16 15 15 13 15 16 17 17 18 22 22 22 20 22 25 24 23 23 23 26 28 28 29 36 37 38 45 45 42
11 7 5 5 8 10 13 13 14 15 15 15 15 17 18 17 15 14 16 17 18 20 23 22 21 21 22 22 21 23 24 25 26 27 29 32 36 39 42 42 41 42 46 40
3 6 10 8 4 5 6 10 16 18 20 21 21 21 21 21 20 20 21 23 22 24 25 25 27 27 28 28 30 31 31 32 32 32 32 35 37 39 40 41 48 48 42 42
8 8 7 7 7 8 10 11 11 13 15 17 19 20 22 22 21 20 23 24 28 30 31 30 30 31 33 34 35 37 37 38 36 37 37 39 41 40 39 41 43 43 43 47
12 16 17 16 16 17 19 18 19 21 23 23 25 26 26 27 28 29 29 31 33 34 33 33 34 35 37 38 37 37 38 41 40 41 41 41 42 41 41 41 42 43 42 42

GFSNGP_500_spd_015.txt.gz
Wind_Speed
70 67 66 64 62 56 58 54 55 38 42 32 25 29 29 42 46 47 43 38 41 31 35 34 24 24 25 22 18 21 19 10 12 15 17 20 20 24 26 25 24 24 26 25
78 74 69 71 68 63 61 57 56 48 49 37 26 34 35 39 49 51 46 43 45 40 27 25 30 26 26 29 22 22 22 12 18 20 20 23 22 25 28 26 28 27 25 27
84 79 76 74 70 67 62 61 59 56 46 40 36 36 38 37 39 45 50 47 45 44 30 29 19 23 28 25 25 24 23 21 20 25 23 23 26 27 27 27 29 30 30 29
87 81 81 72 67 67 66 65 62 60 52 49 42 37 37 41 44 49 51 51 45 43 41 39 32 29 30 31 30 32 32 29 26 28 28 25 28 29 30 33 33 35 36 34
88 85 84 80 74 70 65 65 64 64 59 55 50 43 42 42 44 45 53 54 53 48 47 47 44 32 34 38 35 33 35 35 34 31 28 26 25 27 29 31 35 38 40 38
87 87 86 83 77 75 68 67 61 63 62 55 56 53 47 40 41 44 47 55 57 54 52 52 49 37 33 34 39 41 43 38 36 33 31 33 30 31 33 35 34 40 46 44
92 89 85 81 74 72 64 70 66 62 62 55 53 52 43 42 39 44 47 51 57 56 54 54 49 46 46 46 45 40 43 44 40 38 35 37 37 39 40 39 40 44 49 47
89 87 78 75 69 55 48 60 67 61 58 59 54 49 45 41 40 36 42 48 53 56 57 56 56 52 48 45 43 42 44 43 41 42 43 42 41 43 42 45 47 49 49 48
76 85 81 62 58 60 49 40 47 59 59 54 55 53 50 47 43 34 37 37 41 59 58 55 52 53 51 52 45 48 51 53 52 50 48 48 44 46 45 47 55 54 52 51
51 62 80 57 55 55 56 52 46 44 56 54 52 55 52 52 47 40 39 40 42 44 53 65 67 59 57 55 58 60 57 56 61 48 58 58 54 51 54 54 57 63 56 56
49 41 58 59 54 54 60 61 59 57 51 57 54 55 58 56 53 50 43 42 44 47 48 51 51 54 62 67 73 70 61 68 62 57 58 55 59 57 51 54 60 63 64 68
38 52 39 60 48 59 63 60 62 64 65 62 54 55 57 59 58 56 52 52 52 54 59 61 56 54 56 65 64 65 67 67 70 66 64 62 64 58 60 60 64 67 63 54
43 47 50 52 35 31 54 51 63 64 66 62 60 57 60 62 61 58 58 58 58 62 62 55 50 54 59 60 63 68 74 75 69 69 64 62 67 65 65 67 74 66 60 61
44 49 55 58 34 53 61 60 56 63 65 61 63 64 63 61 61 57 59 59 59 56 59 58 54 48 53 59 69 79 82 79 79 73 68 71 75 70 73 71 67 56 28 28
36 61 59 52 24 28 44 55 58 58 59 58 60 62 63 66 63 63 57 53 49 39 40 43 45 47 48 52 65 79 76 89 85 76 74 72 73 46 64 62 65 53 36 38
29 57 62 62 28 31 36 37 41 45 51 52 56 60 65 63 67 61 57 51 47 37 42 41 41 41 32 39 33 20 9 8 34 51 40 48 51 57 45 28 40 38 34 37
12 44 66 70 34 40 30 34 38 33 42 42 45 58 51 60 61 66 55 34 41 47 42 41 35 36 18 24 27 25 14 2 10 16 20 26 36 35 33 39 33 28 29 30
15 16 54 46 34 34 40 44 38 29 28 26 28 27 37 41 41 42 39 37 36 39 41 43 34 30 20 20 17 15 12 16 19 22 25 25 28 32 38 40 44 45 44 45
15 17 20 33 41 39 32 31 34 34 34 34 38 32 34 32 30 28 27 29 34 38 36 35 32 32 24 23 18 16 18 18 21 26 31 34 37 36 42 39 41 40 38 44
20 17 13 11 12 19 23 29 32 40 42 46 43 44 35 29 26 23 22 24 26 24 28 31 29 33 33 30 29 23 24 26 28 26 33 37 41 41 48 44 33 32 42 42
20 19 16 16 12 11 15 19 25 31 24 21 24 26 25 31 28 25 28 27 31 34 34 32 32 38 38 35 32 29 29 34 34 38 36 32 31 32 27 34 30 30 32 42
18 15 13 13 11 9 12 12 14 16 16 17 18 18 22 21 18 17 19 22 24 25 24 24 25 25 31 35 34 35 37 36 40 37 46 45 44 42 39 34 32 40 41 34
13 8 9 12 12 15 14 15 12 10 12 13 12 12 11 10 12 14 17 19 20 23 22 22 23 25 28 32 34 35 32 33 37 42 43 42 39 32 28 36 36 36 27 26
6 6 5 5 3 7 8 9 8 8 9 11 13 14 14 16 17 16 17 18 19 21 22 19 20 24 25 25 24 24 24 20 19 20 21 23 25 22 25 27 32 35 33 37
8 9 9 6 5 5 3 3 5 7 10 14 14 16 19 20 21 21 23 21 21 20 20 22 23 24 28 28 25 25 26 28 28 28 30 31 33 35 36 39 44 46 48 49
9 9 8 8 7 7 7 7 9 11 12 14 16 17 18 19 20 20 22 24 24 25 27 27 28 28 28 30 30 31 31 30 32 34 36 37 38 39 42 44 46 48 49 48
15 14 15 14 15 16 17 19 19 19 20 21 23 26 27 28 28 28 29 30 30 30 30 30 30 33 35 35 35 34 35 36 37 38 38 39 40 42 44 46 46 47 47 45

GFSNGP_500_spd_018.txt.gz
Wind_Speed
66 62 63 62 61 59 60 56 55 42 36 27 20 22 25 29 39 45 44 43 40 35 37 36 30 26 29 25 22 24 20 15 11 15 14 12 16 20 20 19 24 26 29 29
71 69 66 64 64 62 60 59 59 49 45 35 25 26 32 31 30 35 42 43 42 40 39 39 35 35 26 28 26 22 22 15 16 19 16 16 18 21 22 20 21 28 29 30
77 75 74 71 64 64 63 63 59 53 48 40 33 30 33 37 36 32 32 38 41 44 40 36 36 33 31 32 24 23 22 21 20 18 19 19 23 27 25 23 25 25 31 32
84 80 80 73 69 67 68 66 64 57 51 48 41 35 36 36 41 39 36 36 38 41 35 33 35 34 26 24 30 29 29 28 27 26 25 26 26 29 30 26 24 25 29 32
90 87 83 81 76 69 72 68 68 63 57 52 50 46 40 40 41 45 42 38 43 49 45 41 38 33 33 34 28 25 32 33 33 31 29 31 26 27 29 27 23 24 30 35
94 93 89 86 80 76 74 72 63 65 60 55 54 53 45 43 45 45 43 45 45 49 51 44 42 38 38 38 36 29 33 34 34 33 32 37 33 27 29 30 29 28 29 32
95 97 96 91 86 82 79 74 68 65 61 57 55 53 48 47 45 45 42 42 47 46 51 54 52 48 46 43 42 30 33 36 35 36 37 45 39 35 32 36 38 38 37 36
97 98 101 93 88 85 82 77 73 69 61 55 56 54 50 47 47 43 40 40 45 46 47 48 49 51 46 44 45 44 41 40 40 39 38 51 43 40 42 36 40 42 45 46
94 102 94 90 87 84 82 77 75 70 67 61 55 54 51 44 45 40 40 42 39 43 48 48 50 50 51 51 52 49 46 45 47 46 46 47 47 49 42 42 51 48 46 48
75 95 94 96 82 82 78 72 71 59 56 64 61 54 50 45 45 47 45 41 40 42 43 45 50 54 53 55 54 51 50 48 50 51 53 54 49 56 52 47 53 43 46 46
50 66 78 86 88 73 55 63 38 37 39 36 45 46 43 46 42 48 48 43 38 41 43 45 44 43 45 51 57 57 53 51 55 55 58 58 59 62 62 53 57 64 60 50
31 38 51 61 69 77 63 53 44 44 41 38 35 40 39 39 41 44 46 47 45 41 43 46 48 48 48 48 48 47 48 52 62 70 72 71 71 68 65 63 63 58 62 62
42 42 34 38 46 56 59 57 47 52 48 48 45 45 50 52 54 53 51 48 49 46 46 48 50 50 52 54 53 50 53 54 53 60 65 69 73 79 75 71 69 67 67 68
42 47 49 47 48 48 61 53 51 47 54 56 59 59 55 57 61 60 57 54 51 51 51 50 51 55 57 55 50 51 54 58 54 57 61 70 74 72 72 73 73 75 75 74
37 48 47 50 61 53 56 52 51 56 51 54 59 66 65 64 61 58 54 58 56 53 53 53 55 56 54 51 49 46 48 52 55 58 66 77 86 86 82 79 71 76 75 76
27 42 41 53 53 52 59 71 59 61 41 43 56 51 50 54 56 55 56 56 56 56 57 60 61 55 41 40 42 43 46 47 51 56 56 48 60 76 85 79 75 73 78 45
34 47 36 37 42 53 55 46 55 53 41 45 58 54 56 60 53 51 56 60 60 61 64 64 60 52 50 46 52 44 41 44 47 41 35 35 9 27 62 61 71 54 36 17
38 48 44 26 44 39 36 31 35 30 33 23 30 45 50 49 52 51 53 56 56 57 54 60 54 52 48 48 45 42 45 35 31 25 12 13 5 6 19 29 26 12 17 26
16 38 48 31 28 21 36 17 11 16 16 14 22 24 23 21 29 41 33 37 38 33 33 35 37 40 41 39 39 39 38 26 23 17 15 12 11 15 11 9 10 17 22 25
19 24 41 34 24 28 47 41 20 22 24 28 30 28 27 30 28 28 28 26 23 28 32 35 35 36 37 37 32 34 37 30 23 20 18 16 17 15 20 21 23 24 27 31
19 21 27 26 26 15 20 19 27 32 30 32 35 37 30 27 23 25 26 29 27 29 29 29 32 32 30 31 32 33 37 35 30 29 25 23 23 27 24 26 28 24 22 23
21 16 17 14 9 9 17 16 18 19 17 16 19 16 12 15 18 19 22 30 31 31 33 32 35 37 38 39 41 39 39 41 38 34 31 35 39 33 32 33 34 30 34 31
20 18 15 13 13 12 16 14 14 15 14 14 7 5 10 15 18 21 24 25 25 27 31 33 32 33 34 34 35 33 35 38 37 39 39 42 40 36 35 35 38 37 36 28
11 8 5 4 3 1 4 8 10 11 9 9 11 13 16 17 17 18 20 21 22 23 23 25 29 29 31 30 28 31 31 29 26 27 31 34 36 39 41 38 35 38 42 33
9 10 9 9 8 7 7 7 5 4 5 7 11 15 17 20 19 19 20 21 21 22 24 25 27 29 30 29 28 29 29 27 25 25 28 32 34 31 30 31 36 34 36 38
7 7 7 6 7 8 9 10 11 12 14 14 14 14 15 17 18 19 20 21 22 24 26 27 28 30 31 31 32 33 32 31 30 31 34 36 36 36 36 39 42 44 46 43
12 12 13 14 14 15 16 17 17 18 20 21 23 24 25 26 26 27 28 27 27 27 28 29 31 32 33 33 34 33 33 34 34 35 35 37 38 38 39 42 45 48 51 54

GFSNGP_500_spd_021.txt.gz
Wind_Speed
64 63 62 61 59 58 57 53 52 38 37 31 23 24 23 27 36 42 44 43 44 44 40 37 34 29 29 29 29 26 22 19 17 16 20 17 15 15 15 14 16 17 23 29
70 67 66 65 62 63 60 56 53 44 43 34 28 27 28 30 33 40 45 48 47 46 44 39 39 32 29 28 22 29 26 22 19 19 20 17 16 16 16 15 16 18 18 27
74 72 70 70 65 63 60 58 55 48 44 36 34 29 28 31 30 33 41 46 48 46 43 42 41 37 31 33 27 29 35 33 24 23 20 20 22 20 20 20 22 20 20 22
78 76 76 71 70 67 65 61 59 53 49 41 38 35 34 36 36 35 34 33 33 41 44 41 41 35 39 34 34 30 36 32 27 26 26 24 25 24 23 27 27 27 21 22
82 80 77 76 73 71 67 62 62 58 52 47 43 40 36 39 40 41 41 38 36 33 31 35 34 31 34 37 35 31 30 32 29 28 30 32 29 28 29 31 29 28 24 22
87 84 83 76 73 73 70 67 64 60 55 50 46 48 37 39 42 41 42 40 38 36 34 34 33 32 31 33 34 32 30 24 28 35 36 35 34 33 34 35 33 32 30 28
89 90 88 82 78 76 73 70 65 64 60 55 50 49 47 41 42 41 40 42 41 39 38 38 35 35 34 34 32 32 35 39 35 34 35 35 37 43 35 36 43 41 35 36
96 96 94 85 80 79 76 73 68 64 61 58 55 52 46 48 45 43 43 43 45 41 39 37 36 38 39 39 42 42 43 42 40 38 35 38 39 42 47 46 44 43 42 40
96 101 95 92 86 81 79 75 70 67 63 58 53 52 49 50 48 46 40 41 44 44 40 37 36 36 38 40 41 44 46 44 43 41 37 41 43 46 46 45 53 47 48 39
82 95 96 98 93 90 84 78 74 70 66 64 60 56 52 50 49 49 46 42 39 43 43 41 40 39 37 41 42 44 46 46 46 46 46 45 47 52 50 55 49 55 48 50
64 74 85 92 94 94 88 83 77 72 69 64 59 59 56 55 50 47 47 48 44 40 40 40 41 42 39 38 42 47 50 53 54 56 57 49 55 54 60 56 58 58 61 59
44 54 70 73 89 94 89 85 81 76 74 65 55 53 48 41 45 50 50 48 48 46 43 36 40 40 41 39 41 41 43 52 56 56 57 58 60 64 64 67 67 66 66 65
29 42 52 58 68 75 79 80 76 77 71 55 53 48 38 38 39 37 35 35 38 40 42 41 35 37 45 47 47 47 44 45 48 52 56 56 59 62 63 64 65 69 74 76
23 34 41 46 45 48 47 48 52 54 49 47 40 40 39 41 40 35 36 35 37 38 42 43 41 37 44 49 50 49 49 48 53 56 57 59 61 65 70 64 69 71 75 79
19 32 45 45 43 35 30 41 50 50 49 42 47 46 43 43 40 42 44 45 42 43 45 44 43 44 45 45 45 49 50 51 52 51 55 60 58 63 65 70 72 76 85 82
11 32 48 51 44 42 45 47 51 50 58 62 60 41 40 38 45 49 52 50 51 50 51 47 46 48 49 49 51 53 53 55 53 50 50 54 55 57 61 65 77 86 83 98
26 40 51 40 37 24 49 38 47 51 55 53 51 48 47 47 50 57 66 56 56 58 52 51 53 52 50 51 53 55 56 52 53 51 50 50 53 53 58 52 39 21 31 26
23 38 27 28 45 30 54 42 40 54 56 55 49 50 48 51 50 53 49 41 43 57 47 48 49 51 52 53 50 53 54 51 53 54 53 52 46 44 36 41 32 43 30 27
31 24 33 28 21 22 15 39 22 40 50 50 52 51 50 58 59 30 27 31 42 48 50 51 49 52 50 47 46 45 39 43 46 50 48 44 41 36 24 20 19 8 6 7
26 16 23 9 13 12 21 26 21 29 40 42 42 48 44 26 29 31 38 37 35 33 36 43 44 41 37 38 37 41 39 42 42 43 43 39 38 33 22 12 12 18 14 13
19 28 16 10 5 20 23 23 19 15 16 23 28 20 20 25 25 28 27 27 33 34 34 31 33 33 35 38 39 39 41 40 37 35 35 35 38 36 25 20 17 16 20 20
30 31 18 19 21 14 7 15 13 15 18 17 17 18 23 28 31 28 27 28 27 29 31 35 36 35 34 37 37 37 38 36 34 34 36 37 40 39 35 31 29 26 27 26
15 12 11 16 17 16 12 10 13 18 19 18 20 21 24 29 29 26 26 27 26 28 29 32 39 37 34 36 36 38 40 38 34 33 35 40 43 42 42 40 39 36 35 29
14 11 9 7 6 8 5 3 3 4 7 12 14 15 21 23 23 24 25 24 22 21 23 23 26 30 33 34 34 36 35 32 31 33 33 32 34 36 37 38 37 33 32 32
8 9 8 7 7 7 6 5 2 4 5 3 8 15 15 16 18 18 18 17 18 20 22 25 28 30 31 32 34 34 33 33 31 30 31 31 30 32 33 32 34 34 34 43
8 8 8 9 10 8 8 9 10 11 11 11 11 11 11 11 13 14 15 17 18 18 20 22 26 29 29 31 32 33 34 33 33 34 35 35 35 34 35 36 37 33 34 35
14 14 13 13 14 16 17 15 15 16 16 17 18 18 19 19 19 21 23 24 25 26 27 30 31 32 32 33 33 35 35 37 36 35 36 37 38 39 41 41 41 42 40 44

GFSNGP_500_spd_024.txt.gz
Wind_Speed
62 64 61 59 58 56 55 49 47 41 38 35 25 24 24 34 38 44 44 45 45 44 45 42 41 36 32 29 29 30 30 26 21 23 22 20 16 17 13 10 8 9 11 14
65 62 63 64 61 61 56 52 48 43 40 37 33 25 25 29 36 41 48 50 47 47 47 47 43 42 37 32 31 30 28 19 24 24 23 23 21 19 18 13 11 10 13 16
68 65 64 68 64 62 57 54 50 43 41 35 34 29 27 29 37 41 48 50 53 50 45 42 44 42 41 37 36 30 23 27 26 25 21 23 22 23 23 20 18 15 16 17
73 74 71 66 65 65 60 54 51 49 48 42 40 36 34 33 35 38 39 45 44 46 47 45 43 42 43 42 39 36 30 24 25 29 32 30 26 24 25 24 22 21 20 21
76 78 69 72 72 70 66 62 59 55 52 48 45 41 35 33 32 35 38 38 39 41 33 33 38 43 46 47 43 42 35 28 27 29 28 30 32 29 28 28 28 27 27 27
79 78 77 71 73 75 74 65 61 60 53 50 47 43 35 31 37 39 41 39 38 37 34 31 32 38 44 40 32 38 39 31 32 30 31 32 37 35 34 36 33 35 32 32
82 83 80 78 81 78 73 62 67 63 59 56 50 47 42 42 36 36 40 41 40 39 36 34 32 32 31 33 31 33 37 37 35 36 33 31 34 33 37 40 41 42 40 35
86 87 87 83 81 79 74 76 68 68 63 59 54 51 47 45 40 38 38 40 41 42 40 37 36 36 33 31 32 33 34 33 34 36 39 36 36 33 36 40 39 39 39 39
89 94 88 87 84 82 77 79 70 67 60 60 58 54 51 47 44 42 40 39 39 42 40 38 38 37 36 37 36 35 36 38 38 40 40 40 39 40 40 42 43 44 43 43
90 92 94 89 84 84 82 77 75 71 65 60 54 52 52 49 46 46 44 38 41 40 40 41 41 38 38 37 38 39 39 41 41 41 41 41 42 42 42 41 41 46 51 54
77 87 91 93 91 87 83 82 77 74 69 64 60 57 53 51 48 45 45 40 38 35 37 38 37 36 38 39 39 40 41 40 41 42 44 45 43 46 48 48 49 52 55 61
56 65 80 87 90 89 85 84 78 75 71 63 59 57 56 53 51 49 46 42 42 40 39 38 35 36 33 33 36 39 41 42 44 45 46 48 50 52 52 55 55 58 59 63
35 52 66 74 84 86 87 85 82 79 75 68 64 60 53 48 44 46 49 50 49 46 46 44 37 35 32 34 37 39 40 42 43 44 45 47 50 55 56 56 56 58 60 63
14 39 49 57 65 77 81 79 79 77 73 71 68 65 63 60 54 48 46 44 37 35 40 44 45 41 36 36 36 38 41 43 46 47 48 48 48 52 55 58 60 60 62 65
14 14 33 53 58 65 66 69 68 66 65 63 61 57 51 51 49 47 37 35 38 36 36 36 38 39 40 39 40 41 42 43 44 47 50 51 51 54 56 60 61 63 67 67
14 17 28 49 54 50 48 46 46 46 46 39 40 45 46 49 45 43 41 39 41 41 36 37 37 39 41 41 42 44 45 46 48 51 51 51 53 57 59 61 60 65 68 67
4 17 22 38 45 44 44 39 42 30 33 40 33 37 43 42 45 47 51 53 47 38 37 44 46 43 46 49 47 48 48 46 46 50 55 58 59 60 62 66 69 68 67 63
13 12 33 44 49 38 38 35 46 48 53 43 46 47 39 45 55 51 53 50 42 47 45 52 55 56 51 54 52 50 50 51 49 50 53 58 60 60 61 63 61 61 57 51
29 27 32 19 29 33 43 35 34 48 53 52 54 57 57 58 52 46 51 47 42 44 51 53 58 57 71 65 56 49 51 52 52 55 59 60 61 60 54 53 49 39 42 42
21 20 14 18 26 25 20 13 28 29 35 35 42 50 53 50 54 41 48 44 45 46 57 50 53 41 32 42 44 46 51 51 51 52 52 51 50 46 43 41 41 35 40 40
19 23 18 20 21 22 19 28 24 28 36 41 38 38 39 40 42 44 48 45 41 54 46 39 35 33 32 34 38 38 39 42 45 46 47 45 43 41 42 43 42 38 36 37
31 23 21 30 34 32 29 26 23 21 23 27 31 34 32 39 37 42 39 45 47 42 36 34 36 38 36 38 39 37 39 40 39 37 39 36 35 35 37 38 37 36 34 35
20 26 21 16 18 18 14 10 12 15 16 17 20 22 16 23 26 30 28 32 29 32 34 37 39 37 42 45 42 42 41 38 39 37 38 39 41 39 40 42 42 40 39 34
14 13 10 13 15 11 9 7 7 8 10 14 22 26 27 28 27 24 24 28 30 31 33 34 35 37 39 36 35 39 39 35 36 37 38 35 34 34 35 35 36 39 36 34
8 7 5 5 4 3 2 2 3 3 4 7 8 10 13 14 18 22 24 28 30 30 32 33 33 33 34 33 31 32 30 30 33 34 33 33 32 31 33 32 31 32 34 36
11 11 11 10 9 8 8 7 8 8 8 9 10 9 8 8 9 11 14 16 16 19 21 22 23 26 28 30 30 30 30 31 32 33 32 32 34 34 35 34 34 34 33 35
16 16 17 18 18 17 17 17 16 15 14 14 14 15 16 16 17 18 19 19 20 22 24 25 26 27 29 29 29 30 33 34 35 35 35 35 37 39 41 40 39 38 38 39

GFSNGP_500_spd_027.txt.gz
Wind_Speed
55 31 35 46 53 53 53 46 43 26 30 27 32 19 32 37 37 43 46 40 37 34 34 31 29 30 31 30 28 26 24 24 21 19 19 19 19 20 17 12 12 10 6 7
65 45 52 53 43 51 50 50 44 38 27 28 30 23 25 38 39 38 44 43 39 38 37 37 37 37 34 32 31 27 24 21 23 21 21 20 22 23 22 17 13 13 9 7
67 67 64 65 61 52 43 48 48 49 40 30 36 38 30 29 32 40 39 46 43 40 39 38 38 39 37 37 35 29 28 21 21 22 20 20 23 24 23 20 18 16 15 13
70 68 64 62 56 58 54 48 49 47 48 52 48 33 25 30 31 33 36 44 45 44 44 43 41 42 43 43 39 36 33 28 24 24 22 22 22 26 26 24 21 19 18 18
69 64 56 63 60 58 60 56 50 49 46 46 44 40 33 28 27 30 35 41 45 50 49 50 49 44 39 37 38 38 36 33 33 30 27 24 20 26 25 29 24 24 24 23
72 63 44 27 46 67 67 61 59 55 49 51 51 49 39 39 39 39 42 41 41 41 40 43 43 47 46 41 37 38 40 42 38 38 34 29 23 24 25 29 31 31 30 31
73 69 52 40 40 62 64 44 58 61 60 58 56 51 46 42 36 38 38 38 36 35 33 32 33 36 38 39 38 39 45 46 46 45 42 35 32 30 29 28 30 30 32 32
73 72 62 41 55 52 54 67 64 66 63 60 59 51 44 45 40 38 39 42 42 39 37 35 32 31 30 31 36 39 40 41 38 36 40 39 36 35 33 32 34 35 36 37
67 75 72 65 61 68 80 69 67 70 64 60 57 53 48 46 43 39 41 41 42 39 40 39 35 32 31 33 34 33 32 32 34 35 37 37 35 34 38 39 38 38 41 41
78 80 81 80 83 85 80 78 78 65 60 62 58 56 52 46 45 44 43 40 40 41 40 39 39 38 35 34 33 35 36 35 35 36 36 38 38 41 43 43 42 41 44 45
82 82 86 89 89 87 83 80 76 72 69 63 59 56 50 49 48 46 45 43 42 41 40 41 39 37 37 38 36 36 37 36 38 39 41 41 43 43 44 45 47 46 47 49
68 76 85 86 85 85 81 79 78 74 72 67 63 60 54 51 46 42 45 47 46 43 41 43 42 43 40 39 38 38 39 39 39 41 43 44 46 48 48 48 49 50 52 51
53 62 74 87 92 90 86 87 80 76 73 68 62 60 58 54 50 47 45 45 45 44 43 42 42 42 41 39 38 40 40 39 40 42 43 45 47 49 51 52 52 52 54 55
40 52 64 75 81 89 90 86 81 79 76 68 64 62 60 54 52 52 51 49 48 46 46 46 44 42 41 39 40 41 41 42 43 43 45 45 46 47 49 50 52 55 58 59
19 34 42 56 70 78 81 84 82 77 73 69 66 63 59 55 54 53 53 52 46 43 44 40 41 39 42 43 45 48 48 48 47 47 49 50 50 51 52 55 58 60 62 64
10 16 22 41 53 63 75 77 76 75 72 68 63 59 57 58 60 59 59 58 51 51 48 43 39 43 46 49 51 53 52 52 53 53 53 52 52 53 54 55 61 62 60 60
15 16 21 23 34 51 55 59 66 62 60 57 55 38 45 44 47 51 51 50 50 48 45 43 42 46 54 53 54 57 56 54 55 56 55 55 52 53 55 58 63 65 62 61
1 15 17 22 23 38 47 46 46 43 39 36 31 48 50 44 45 45 45 43 43 44 44 47 51 52 51 50 51 53 54 54 54 56 57 57 56 54 56 57 56 59 61 62
22 12 20 14 19 25 38 43 40 44 44 42 47 51 41 42 48 52 43 47 49 51 55 57 58 56 52 49 49 52 53 55 56 56 57 55 53 57 59 60 58 59 63 64
22 14 14 28 40 44 42 25 31 34 44 42 45 50 51 46 56 58 58 50 55 55 54 56 57 57 57 55 55 54 57 64 67 70 63 59 59 59 59 59 58 59 58 55
21 13 11 18 17 21 26 33 34 40 53 49 37 39 50 45 36 36 42 41 44 58 54 49 52 57 52 53 56 55 59 50 44 44 58 57 58 53 53 57 57 54 53 51
25 26 21 15 17 22 19 23 31 33 32 34 35 33 35 45 52 53 52 47 46 49 49 48 48 46 43 43 50 52 47 44 43 42 45 47 47 47 49 51 46 46 45 45
17 17 17 17 20 24 25 25 24 25 26 29 32 38 36 39 48 52 50 49 51 55 42 42 43 48 46 46 49 49 48 46 46 47 48 48 46 45 44 43 43 43 44 44
17 15 10 5 3 6 13 20 22 23 25 25 25 24 19 26 33 38 42 43 42 41 41 40 45 45 43 47 47 45 47 47 45 45 47 48 45 43 43 43 42 42 41 39
6 9 9 7 8 5 5 4 2 3 6 11 14 18 22 30 31 29 30 32 33 33 35 35 37 38 36 39 41 36 36 38 37 37 38 40 41 41 39 39 38 37 38 38
9 8 9 11 10 9 8 8 8 6 4 5 6 5 4 5 8 11 16 18 17 19 25 30 35 33 33 35 35 34 32 32 33 36 38 39 39 40 39 39 38 37 37 38
18 17 15 15 16 16 15 15 15 14 13 14 15 14 14 12 13 13 15 16 16 17 17 19 19 18 19 21 23 26 28 29 31 33 34 35 36 38 39 39 40 41 40 40

GFSNGP_500_spd_030.txt.gz
Wind_Speed
55 41 29 43 45 45 47 40 40 26 31 29 32 25 34 35 32 31 32 36 36 38 30 25 27 26 26 27 25 24 22 19 17 18 16 15 13 13 13 12 10 9 7 5
63 52 43 42 38 41 42 43 32 31 23 33 35 27 26 36 33 35 39 45 49 46 37 29 23 25 28 28 27 27 22 19 18 16 11 11 14 14 14 14 11 13 10 10
69 60 50 44 43 40 40 41 38 41 29 32 34 33 29 33 39 38 34 34 35 41 39 33 28 24 30 29 28 25 23 21 16 12 9 11 13 13 10 13 13 11 16 13
64 61 51 44 47 45 37 40 39 40 38 18 20 27 34 36 40 39 36 33 31 33 35 32 30 28 29 32 32 28 24 21 19 16 13 15 16 15 14 15 18 18 15 16
68 64 58 45 59 51 46 35 33 37 48 43 42 42 46 41 29 30 34 37 37 34 34 35 36 35 38 37 33 30 26 24 25 24 22 20 19 20 20 17 19 19 23 17
67 57 51 43 36 56 48 49 48 53 53 63 59 55 55 35 35 39 37 35 32 32 35 38 37 38 40 36 31 29 26 30 35 30 29 29 29 27 27 24 20 19 22 22
60 65 45 47 35 48 52 57 63 63 62 64 69 65 50 39 38 35 35 36 34 32 32 32 25 23 26 26 24 21 33 35 34 35 34 35 37 36 34 32 29 25 25 24
62 54 48 43 49 47 55 58 70 69 67 64 61 58 54 50 40 39 37 35 36 36 35 34 32 28 25 25 28 28 33 32 36 39 38 40 40 41 42 38 36 33 29 28
62 60 43 36 51 57 58 62 57 66 69 64 61 61 59 46 35 40 41 41 38 36 35 33 32 29 25 26 27 29 34 38 40 40 41 43 44 41 40 37 36 36 35 33
57 69 56 45 48 54 62 62 67 72 68 64 63 59 45 43 46 47 45 41 39 39 39 39 33 34 32 29 28 29 29 31 31 30 35 40 40 40 42 37 37 36 36 38
69 65 76 59 58 64 58 59 66 67 69 64 59 54 55 54 49 47 43 40 40 40 42 38 34 34 34 32 33 34 32 31 32 33 33 35 38 39 40 41 42 42 43 45
64 71 76 82 75 81 80 69 73 71 67 55 51 54 53 49 50 51 46 43 45 43 43 42 40 37 36 34 34 36 35 35 34 36 37 37 39 40 42 44 45 46 48 49
74 77 85 86 86 86 85 80 75 70 64 57 60 58 48 43 47 49 45 44 48 45 44 42 41 43 41 39 38 38 38 36 37 38 40 40 41 41 44 45 46 48 49 50
64 77 81 84 87 85 87 85 81 80 76 72 65 59 57 57 53 48 43 41 44 46 48 48 45 43 42 41 42 42 42 42 41 40 42 41 41 44 47 48 50 50 51 53
15 39 62 74 86 87 87 86 84 82 79 74 70 68 66 58 54 53 52 49 48 47 44 42 42 41 41 41 43 45 45 44 43 43 44 45 46 47 49 51 53 55 56 57
15 14 24 51 62 77 83 83 84 81 78 73 75 71 62 57 54 53 54 52 52 49 47 48 50 50 50 50 50 50 50 50 49 48 50 51 52 55 56 57 59 59 60 59
12 17 18 24 34 57 66 73 81 82 81 78 76 72 67 63 61 58 55 54 51 53 51 45 47 49 50 49 49 50 50 53 54 55 57 58 59 61 60 61 63 64 65 65
13 21 20 21 20 27 47 62 67 74 76 72 70 67 63 62 61 58 55 52 55 53 53 53 55 55 53 54 56 54 53 57 59 61 62 62 63 64 64 64 66 67 68 67
19 16 4 10 12 18 25 41 56 58 58 66 68 56 56 51 54 55 52 52 52 46 49 52 52 54 55 55 52 53 59 62 64 64 64 65 66 68 68 68 69 69 71 72
16 5 10 6 2 10 13 21 36 49 49 46 44 39 42 41 38 40 42 49 46 41 47 47 52 58 60 60 60 61 64 65 65 64 64 64 65 66 67 68 69 68 68 68
13 10 10 10 7 7 15 24 29 32 43 30 33 38 38 43 45 49 52 48 45 47 53 55 62 58 59 63 65 66 66 64 63 63 62 60 60 63 65 68 70 69 70 68
23 22 24 23 20 20 14 31 37 29 39 45 45 41 45 46 45 45 44 55 62 64 65 68 67 64 64 56 60 60 62 64 62 61 64 61 59 62 62 63 61 57 54 55
10 11 13 15 18 23 24 24 27 29 28 26 36 41 50 50 45 54 57 52 45 40 39 43 44 51 55 49 50 44 47 54 61 61 56 52 54 58 56 56 56 53 52 53
15 15 13 10 9 6 9 18 27 30 33 33 33 31 32 37 38 36 36 37 35 34 33 31 32 36 40 44 51 52 49 46 47 51 52 50 53 56 57 57 58 58 57 58
13 11 10 10 10 10 8 5 12 20 23 21 20 22 25 28 29 27 29 30 25 27 33 38 42 44 42 40 43 46 48 49 52 52 50 51 51 51 53 55 57 56 53 50
15 14 13 13 12 9 6 5 4 3 3 3 4 4 6 12 16 20 20 16 19 25 26 27 30 31 31 34 34 38 42 44 43 42 43 43 40 44 44 45 45 44 44 46
17 18 18 19 18 18 16 15 14 13 12 13 14 14 14 13 11 10 9 9 11 12 12 12 13 15 16 18 23 28 32 33 38 34 30 30 34 37 38 40 41 41 41 42

GFSNGP_500_spd_033.txt.gz
Wind_Speed
64 58 53 42 46 36 48 43 41 39 28 21 15 18 22 21 21 26 33 43 43 34 25 19 18 18 21 21 21 20 18 18 15 13 9 9 7 5 3 4 2 2 2 3
68 57 44 39 41 34 38 45 38 43 32 25 25 25 26 26 29 27 34 36 37 38 34 27 24 22 26 26 22 20 18 16 15 13 11 10 7 6 4 3 2 3 4 4
67 58 49 45 46 32 30 36 44 48 34 23 29 30 33 31 33 37 37 43 45 42 38 29 22 17 16 22 26 24 21 19 16 11 9 9 8 6 5 6 6 3 5 8
71 59 59 43 47 49 34 28 41 42 29 24 21 27 30 35 28 31 39 40 43 42 30 22 24 21 19 24 29 29 25 23 18 14 14 13 9 8 8 8 10 10 9 8
73 65 62 44 40 38 46 41 44 46 31 31 36 38 40 41 39 38 39 38 32 27 24 23 25 26 20 22 26 27 27 24 21 19 16 13 11 11 11 12 14 15 14 15
73 65 60 54 51 47 47 50 50 51 42 41 40 37 43 41 46 39 36 34 34 32 28 24 25 25 26 25 25 23 23 21 22 22 21 19 19 19 20 19 19 20 19 17
72 56 67 56 59 55 51 54 57 56 49 49 52 52 51 47 45 45 38 34 34 32 32 34 30 29 30 28 25 27 29 28 27 25 25 25 28 28 25 26 25 24 23 23
54 67 64 61 63 62 61 60 64 64 51 61 60 58 54 50 39 42 40 39 36 35 31 30 33 33 32 28 22 23 25 26 30 30 29 30 32 33 32 30 31 31 31 30
62 42 67 52 62 69 71 68 71 70 62 68 66 63 61 58 50 40 38 38 38 37 35 33 30 27 23 24 24 22 33 32 36 38 37 37 37 37 37 36 36 38 37 33
70 48 64 50 46 77 74 69 71 73 75 76 74 71 66 62 54 48 40 37 36 37 37 34 30 26 27 25 24 26 26 31 38 39 39 41 38 36 37 39 39 39 38 36
59 60 68 62 52 55 81 69 70 74 76 79 80 75 71 68 63 51 35 39 43 43 41 37 33 32 33 31 28 28 30 29 31 35 38 40 37 34 34 35 36 36 38 38
65 63 69 72 65 51 62 79 71 73 77 77 74 70 66 63 58 42 49 47 44 45 43 40 37 36 35 34 34 34 33 32 32 34 35 36 37 37 36 35 35 37 39 40
62 66 67 64 65 66 52 65 68 73 76 75 72 71 68 64 57 59 56 48 46 49 45 42 42 41 38 36 35 35 35 36 37 37 35 36 36 37 37 38 39 40 40 43
74 71 73 71 67 61 66 58 63 69 71 70 68 68 65 63 52 50 56 55 53 50 47 43 43 45 42 39 38 38 38 38 38 38 38 40 41 43 44 43 43 43 45 47
35 57 67 74 77 73 67 57 64 63 63 60 58 54 54 50 49 47 48 52 50 47 47 49 47 46 45 45 45 45 43 42 42 43 45 45 46 46 46 45 46 45 47 48
22 30 37 63 78 80 83 78 68 61 61 60 58 53 58 61 57 52 49 51 49 46 43 44 45 44 45 47 48 49 49 49 48 47 47 47 47 47 47 47 48 49 51 53
12 23 23 43 65 78 86 84 91 88 80 70 65 68 73 72 69 64 62 60 54 51 50 49 49 49 48 46 46 48 48 49 50 52 52 52 53 54 54 55 55 55 57 60
2 17 15 16 36 55 67 81 89 90 90 92 87 82 82 79 74 68 61 56 54 55 56 54 52 51 54 55 56 55 55 55 56 57 57 58 60 60 61 62 62 63 64 65
22 7 4 9 10 12 18 31 57 76 82 84 84 86 84 79 75 67 63 59 55 53 53 52 51 54 54 55 56 58 59 59 59 58 59 60 62 64 66 66 67 69 70 70
16 11 9 11 6 8 16 21 25 39 62 75 76 78 76 75 72 68 63 62 59 56 53 53 54 48 53 49 56 59 60 60 61 64 66 67 69 70 70 71 72 73 72 73
14 14 15 13 7 1 3 3 12 19 28 52 62 61 61 60 60 58 57 56 52 47 45 44 48 54 57 52 53 56 59 70 68 64 64 66 69 71 71 70 69 71 70 69
12 14 14 13 8 11 10 13 3 3 14 15 20 41 44 46 50 47 49 45 46 46 47 53 57 64 63 56 52 54 59 65 65 68 69 68 70 70 67 66 66 67 67 67
10 13 8 6 8 11 14 9 11 19 17 25 26 28 33 37 51 44 49 52 54 57 59 60 63 59 60 59 60 59 60 62 63 62 64 59 57 57 58 63 65 67 68 68
11 5 8 11 8 7 11 18 18 17 19 21 23 30 37 52 54 54 57 65 61 62 60 56 52 62 68 64 53 51 53 58 66 66 57 61 61 46 48 55 62 69 67 66
13 15 10 5 6 12 10 7 14 18 25 28 23 24 25 25 34 43 47 38 39 49 60 64 59 49 46 42 39 45 43 44 37 36 41 46 50 46 48 50 52 55 57 58
16 12 13 15 12 8 8 10 9 0 11 20 21 19 18 21 24 25 30 31 30 31 32 37 40 41 41 42 43 44 43 39 37 39 43 47 46 49 46 46 47 49 52 54
17 18 17 17 15 16 14 15 15 11 10 9 6 8 13 14 14 14 15 18 23 27 26 26 29 32 35 34 30 29 28 29 32 34 37 38 38 40 42 43 44 45 47 51

GFSNGP_500_spd_036.txt.gz
Wind_Speed
73 68 63 59 54 50 53 48 41 33 36 23 25 19 22 19 14 26 28 33 29 29 25 19 17 12 21 24 24 24 22 21 21 21 17 16 14 12 10 7 7 8 9 9
70 66 60 56 55 50 41 44 41 36 37 25 27 24 27 20 17 19 29 33 34 30 28 24 22 17 16 23 26 25 23 21 21 19 16 18 16 12 9 7 6 7 10 11
69 65 60 55 50 48 35 31 36 39 37 31 30 27 29 21 20 21 22 21 35 38 33 30 28 24 18 17 25 27 23 24 22 19 16 17 15 13 11 10 9 8 8 11
57 67 63 56 47 48 41 34 32 43 44 34 34 30 33 32 27 28 27 28 28 29 31 34 31 31 27 26 24 25 23 21 20 16 17 17 16 16 15 13 10 10 8 9
55 69 64 59 49 52 53 46 40 48 44 40 37 36 37 38 35 36 29 29 29 26 23 20 24 28 27 19 24 26 26 23 20 21 21 19 17 17 18 16 14 12 11 12
65 64 69 64 53 55 54 50 43 43 49 38 41 37 39 39 38 38 34 33 32 28 23 20 22 23 22 22 24 23 29 26 26 27 26 25 24 20 21 19 17 16 15 16
72 66 67 67 66 61 49 57 52 46 53 46 44 44 44 42 43 40 37 34 32 30 26 22 22 31 31 30 25 21 27 34 33 31 27 26 28 29 26 24 25 22 20 20
71 70 66 65 55 56 60 64 57 55 58 56 50 47 46 46 43 41 37 35 34 30 29 29 28 28 32 34 34 34 33 32 32 31 31 32 33 32 32 32 31 29 28 28
69 81 66 69 63 52 64 67 58 57 65 64 55 53 53 50 46 44 41 40 39 38 36 34 32 31 31 30 29 31 34 35 34 33 35 35 37 36 36 35 37 37 38 33
68 78 73 70 66 47 65 72 65 64 73 74 64 57 55 52 51 48 42 44 43 40 39 34 30 28 27 26 27 30 33 36 39 42 42 44 45 45 45 42 42 42 41 40
69 70 81 53 61 53 57 63 71 69 80 73 66 63 60 58 56 52 44 44 46 43 39 37 36 35 33 29 27 27 29 32 37 41 45 47 47 47 46 45 42 40 39 39
65 69 77 66 56 58 56 64 68 68 74 76 69 65 64 61 60 57 51 48 46 39 34 35 36 36 34 32 32 30 29 30 32 40 45 45 43 42 38 39 39 36 37 37
55 66 66 58 59 51 57 51 58 79 75 79 78 73 70 66 63 61 57 56 50 41 40 40 41 41 38 36 33 33 33 34 33 33 35 38 39 39 39 38 39 39 39 39
38 48 75 69 57 56 48 54 67 66 85 81 83 80 78 74 69 66 62 61 55 50 48 47 47 45 44 41 38 37 36 36 36 37 39 40 40 40 41 42 41 42 41 42
48 51 64 76 74 64 55 57 49 73 82 88 88 83 81 81 79 74 70 66 60 56 48 49 51 48 47 43 42 40 39 39 40 40 40 41 42 43 43 44 43 43 43 45
49 67 65 66 76 76 73 75 70 67 61 82 91 89 87 88 87 83 77 70 63 53 56 54 52 50 48 46 47 47 47 46 44 43 44 44 46 47 48 48 48 48 49 50
23 31 41 66 79 78 76 73 79 76 67 65 66 85 90 86 87 83 73 64 61 58 58 55 48 47 52 52 52 51 52 52 51 49 48 49 48 49 51 52 51 51 52 53
11 3 9 20 34 57 88 86 81 78 72 70 68 67 72 80 77 73 67 63 66 63 57 54 48 48 47 49 48 47 49 51 53 53 53 54 54 54 55 55 56 57 57 58
10 11 4 11 16 20 32 62 94 97 90 84 76 73 75 73 74 72 69 65 65 62 60 58 57 56 52 53 53 54 55 56 56 56 56 56 56 57 58 58 59 59 61 63
16 10 8 8 10 11 17 21 38 77 97 101 97 90 81 78 79 77 73 75 78 77 74 70 66 61 60 59 58 56 56 59 60 60 61 62 64 64 64 65 66 68 69 67
13 17 13 10 4 9 4 10 22 29 38 63 94 99 97 92 88 86 87 85 84 79 72 64 61 58 56 53 56 56 55 59 58 62 65 66 67 67 68 70 72 73 70 69
11 6 9 14 12 7 9 9 7 2 14 29 41 69 98 102 100 97 93 89 85 80 73 71 66 62 54 53 54 57 59 61 56 55 56 61 67 69 70 72 75 74 75 74
10 14 9 4 5 9 9 5 7 12 15 12 14 21 43 63 82 99 98 93 87 82 76 73 67 64 54 49 44 54 55 58 53 56 55 56 58 61 65 67 71 75 74 73
14 10 9 15 5 9 9 12 11 12 16 17 12 23 20 28 24 43 59 72 76 75 71 69 67 62 61 58 62 63 63 65 65 69 68 73 70 65 65 63 60 62 67 59
14 16 13 7 11 16 6 8 13 16 19 19 20 22 31 28 43 42 35 33 39 56 57 55 54 53 57 62 66 68 74 78 71 70 62 57 66 66 61 59 60 55 54 57
17 15 15 16 14 12 12 13 15 6 8 20 21 22 25 33 31 37 41 48 51 48 48 48 51 54 57 62 62 63 60 61 62 56 45 48 52 51 51 50 49 49 51 55
19 18 19 16 14 15 16 14 11 16 17 11 11 16 24 30 30 29 30 34 41 57 58 57 58 58 54 55 59 61 57 57 58 57 51 49 52 55 53 52 54 52 52 52

GFSNGP_500_spd_039.txt.gz
Wind_Speed
73 67 67 67 61 59 59 50 47 36 36 37 32 32 38 44 48 32 43 40 36 33 29 25 22 19 26 29 27 26 25 26 27 28 27 25 22 21 18 16 16 16 14 12
70 70 62 62 61 59 57 53 44 38 43 42 35 38 38 38 29 23 41 44 35 32 26 31 25 20 18 27 28 29 27 27 28 27 26 24 24 20 19 18 16 16 15 15
71 69 62 59 67 61 57 54 46 42 47 42 37 38 36 36 28 18 24 32 33 27 25 29 23 19 13 23 28 30 31 31 27 26 26 27 25 22 19 17 15 13 13 15
59 63 59 61 63 61 59 56 50 46 50 40 39 39 41 32 23 21 21 22 25 26 24 22 21 20 18 19 22 30 33 30 29 28 28 29 25 21 20 17 14 13 12 15
55 64 56 60 60 59 59 54 53 49 50 45 41 39 45 36 28 23 25 28 27 29 30 30 27 23 22 24 23 22 32 30 27 26 28 27 23 22 22 20 19 16 16 16
58 69 57 59 61 54 57 52 53 52 48 48 47 46 49 45 34 33 32 33 28 25 23 23 28 29 27 27 21 19 20 28 28 30 31 28 26 25 25 25 24 23 20 16
60 69 59 60 57 57 54 58 55 53 51 52 48 47 46 48 42 41 39 32 25 25 28 26 26 27 30 26 21 17 23 29 33 34 34 32 33 30 29 29 28 26 23 20
60 70 56 57 56 56 61 60 58 57 55 58 54 49 46 42 42 42 41 34 28 25 27 30 29 30 26 25 28 27 26 31 31 34 35 33 34 35 32 32 31 31 29 28
60 60 58 63 57 55 61 62 57 57 60 62 61 55 49 44 39 41 38 33 29 27 26 29 32 32 34 30 30 33 35 34 30 32 36 38 36 35 38 39 35 34 34 33
63 68 47 64 65 50 60 62 60 57 63 66 63 61 55 52 44 43 40 37 33 29 27 28 28 32 34 36 37 39 41 43 43 43 44 45 45 45 45 44 44 47 41 43
57 60 67 48 64 56 56 59 60 60 62 68 68 61 58 57 51 44 43 41 37 35 33 33 31 31 30 30 34 39 42 46 46 45 45 47 49 52 53 51 48 46 45 48
58 57 57 68 54 63 54 64 66 67 66 70 71 68 63 60 54 52 50 46 46 44 44 43 41 38 32 31 30 29 32 39 42 46 49 51 52 54 56 54 52 53 52 52
47 60 60 62 68 68 73 49 74 73 73 75 74 70 69 65 59 57 57 56 52 51 45 42 44 39 34 34 34 32 31 32 34 37 42 45 47 52 54 51 48 45 43 42
52 57 55 57 66 73 50 74 69 78 80 81 81 72 66 69 66 63 61 59 58 55 51 47 44 41 38 34 36 37 35 34 33 34 37 37 38 40 42 43 44 43 42 41
21 48 61 58 58 68 59 58 53 57 76 78 75 75 71 73 72 68 65 64 60 58 55 49 49 49 43 38 36 39 40 39 37 35 37 39 41 41 41 42 43 42 42 42
37 31 56 61 63 66 70 77 67 54 63 79 75 77 77 75 74 71 70 68 65 61 56 54 55 51 47 41 43 45 44 43 41 38 40 41 42 42 42 43 44 44 45 46
15 34 50 52 62 69 70 70 70 74 86 73 75 75 83 73 73 74 76 74 72 68 65 60 61 56 51 43 49 52 50 47 46 44 44 45 45 45 46 47 48 49 50 50
10 17 24 35 55 62 68 77 78 74 72 64 68 79 72 62 62 78 80 79 80 76 70 68 64 61 54 47 50 51 49 52 51 49 50 49 49 51 51 52 52 53 54 55
7 9 11 16 22 45 69 71 72 74 74 77 78 72 75 76 75 70 75 70 73 73 63 66 69 67 58 53 54 53 50 51 55 56 55 55 55 55 56 56 57 58 59 59
11 9 8 8 12 18 27 41 60 75 80 80 82 85 81 78 86 91 81 66 61 66 69 67 69 68 62 54 57 54 52 53 51 52 53 55 56 57 58 59 59 60 61 61
21 20 17 13 12 13 20 26 36 43 50 62 79 89 85 83 88 83 86 80 68 61 70 76 72 68 64 62 62 56 56 55 55 59 61 63 65 66 67 67 66 66 67 68
18 19 17 19 16 8 16 15 14 17 32 44 53 65 88 98 96 95 87 79 77 77 62 72 77 79 70 69 66 59 61 64 64 63 60 60 63 66 69 69 70 71 71 70
14 16 19 18 17 20 17 12 15 16 19 21 20 26 37 54 81 101 103 96 88 82 76 68 69 72 71 70 69 72 75 69 64 59 59 57 62 67 67 70 71 71 70 66
17 15 15 19 19 17 15 19 17 18 17 18 21 21 21 23 31 47 59 76 95 95 90 82 77 78 80 79 81 82 74 70 68 62 64 62 61 64 59 56 59 62 63 62
18 18 17 14 16 18 20 21 19 20 21 20 19 21 19 16 16 19 22 29 39 57 78 89 93 94 92 91 89 85 83 80 74 68 70 66 62 67 61 61 58 58 67 74
20 20 19 19 19 16 17 19 22 22 15 14 24 23 24 26 25 24 35 33 31 32 28 40 62 64 91 92 91 89 90 90 91 78 76 68 70 67 56 53 61 64 71 73
17 17 20 23 22 20 20 19 17 18 22 24 14 19 26 24 29 35 29 35 45 44 34 48 49 51 57 58 64 69 73 70 66 67 63 73 76 75 72 74 72 72 69 64

GFSNGP_500_spd_042.txt.gz
Wind_Speed
63 69 69 69 70 72 71 66 59 51 33 35 35 38 42 44 45 45 44 43 44 41 39 35 32 28 31 34 35 35 33 32 30 30 30 31 29 24 22 19 19 18 16 14
55 65 64 64 69 71 71 65 60 45 39 41 38 37 42 50 53 51 52 51 45 39 33 35 33 31 30 33 35 34 32 33 33 33 33 30 28 24 23 21 22 21 17 15
47 62 64 67 68 69 68 64 56 43 44 42 41 40 41 45 48 49 35 51 43 41 34 36 31 29 33 34 34 32 30 35 33 34 32 30 27 26 23 23 22 20 18 16
53 66 63 67 65 70 66 62 56 45 48 49 48 46 42 40 46 36 25 26 36 44 40 35 32 28 31 27 32 33 32 33 33 32 31 30 28 27 26 23 22 19 17 17
51 68 62 60 61 67 65 59 54 48 53 56 53 45 42 37 31 26 27 33 46 46 41 36 32 28 29 26 27 33 31 32 32 32 32 31 29 29 28 26 23 19 17 16
48 67 58 58 61 63 64 58 52 52 57 54 50 46 43 39 38 32 27 34 40 44 34 29 27 28 26 23 22 26 27 31 32 32 32 32 33 33 31 29 25 23 20 19
51 65 54 55 58 57 59 57 53 55 55 55 52 49 47 48 43 34 31 31 36 31 32 32 30 31 27 27 22 19 20 27 34 34 32 34 36 34 31 31 30 26 24 22
45 53 58 55 55 53 52 56 53 54 54 58 55 52 53 49 45 38 30 33 33 32 31 32 34 34 33 32 28 26 23 24 30 37 36 34 35 35 32 31 29 27 26 24
49 48 55 56 50 55 55 50 51 54 57 59 59 55 55 52 49 45 38 38 39 36 35 37 36 34 35 31 31 25 24 20 22 29 40 39 38 41 36 35 33 30 31 30
39 51 45 56 42 43 50 47 50 54 57 59 63 60 57 55 52 50 49 42 37 35 33 39 38 35 32 30 27 26 26 23 26 24 30 43 40 35 43 45 40 41 40 39
45 44 46 51 47 45 46 52 46 53 53 58 65 64 62 60 57 55 53 52 46 41 34 36 40 37 35 33 32 31 31 30 34 30 37 39 40 41 45 43 41 43 44 47
50 43 46 44 54 50 49 49 50 50 54 55 61 66 64 63 61 57 50 51 49 44 37 33 36 42 43 43 42 40 39 37 35 38 42 46 47 49 49 54 52 52 49 50
46 44 38 46 52 42 45 50 52 53 55 55 59 65 65 65 62 56 53 48 43 41 39 36 33 31 33 35 38 39 41 42 45 47 48 50 51 50 49 51 54 55 55 55
42 43 45 50 43 56 51 53 54 58 58 59 59 61 65 67 65 61 54 53 48 43 39 37 35 33 35 34 35 34 32 33 35 36 39 42 48 51 53 54 55 57 58 58
15 43 46 41 49 49 50 53 62 49 58 61 64 64 63 68 70 69 65 59 55 52 48 45 43 42 45 42 39 39 37 33 34 34 35 37 37 40 43 46 48 48 48 47
18 24 27 44 52 53 52 51 58 60 55 62 65 69 67 67 71 73 71 68 62 60 57 54 54 52 52 48 43 43 44 38 35 38 40 40 40 39 38 38 38 39 39 41
15 26 32 24 36 55 53 54 52 55 65 68 48 55 67 76 68 69 70 72 71 66 63 63 60 58 57 56 50 49 50 42 39 37 39 43 43 43 41 39 40 41 42 42
4 8 17 27 41 40 45 53 56 61 56 53 69 64 68 64 63 65 72 65 68 71 70 65 64 62 60 59 56 51 53 52 44 40 40 41 43 45 45 45 44 44 45 45
6 5 6 14 25 37 50 58 60 61 59 58 61 61 65 64 72 59 61 73 74 74 72 69 66 63 64 63 60 59 55 58 51 48 43 41 43 45 48 46 46 47 48 50
19 15 10 9 14 17 27 36 50 64 65 61 58 56 56 59 62 66 67 82 57 73 82 77 74 70 71 68 65 63 63 63 57 51 47 47 48 45 43 44 47 51 53 54
22 20 20 19 18 22 20 28 33 38 44 45 58 65 61 58 59 58 62 66 65 60 62 65 64 67 73 73 68 65 64 66 65 56 52 51 51 51 49 44 44 48 52 56
20 20 22 21 22 19 17 15 24 30 28 31 32 37 50 60 65 69 70 68 67 69 71 66 60 62 61 67 68 65 64 65 66 61 58 56 53 55 54 54 55 58 62 63
21 20 18 21 22 23 23 18 16 24 24 23 22 23 28 39 49 55 63 70 77 77 74 69 69 64 72 60 59 59 64 61 64 60 58 63 59 60 62 61 59 60 63 65
19 20 20 19 20 22 19 18 20 20 22 23 22 24 27 26 27 31 38 53 60 69 80 74 76 75 73 73 78 76 70 58 62 62 68 70 69 65 67 64 66 66 63 66
23 22 21 20 20 21 21 20 19 17 20 23 28 26 28 27 23 20 21 24 28 40 57 71 84 87 81 79 76 77 78 76 69 67 67 68 64 63 69 74 77 72 67 66
18 17 19 21 21 22 22 21 21 19 19 20 22 25 25 25 24 20 18 17 19 16 23 23 31 45 53 67 67 73 81 86 79 73 74 71 70 71 74 75 78 78 79 69
21 22 21 20 19 19 21 23 24 23 21 19 19 21 20 25 29 26 20 20 21 27 40 35 43 49 47 47 45 55 67 69 73 81 85 84 83 83 84 84 81 81 77 74

GFSNGP_500_spd_045.txt.gz
Wind_Speed
64 67 67 70 71 66 78 77 75 69 67 47 44 46 38 47 54 59 53 55 49 45 42 36 33 31 34 35 37 36 34 33 33 35 35 36 34 34 32 29 26 24 21 18
58 60 62 69 74 72 81 78 75 68 65 49 44 47 49 50 56 62 60 58 53 49 47 37 36 31 30 33 36 36 36 33 34 34 34 34 33 34 34 31 28 25 23 19
39 38 54 72 75 73 80 78 73 68 58 48 42 47 50 48 55 59 59 60 59 53 48 41 38 33 29 29 35 36 36 36 35 35 33 33 33 34 32 29 29 27 25 21
25 34 53 64 64 68 78 78 71 67 55 48 44 50 50 48 55 60 61 57 59 56 51 45 41 32 33 31 29 36 37 36 35 35 35 36 35 32 31 30 29 28 25 22
28 23 35 54 57 69 73 74 67 62 51 47 44 49 47 48 55 57 60 62 58 56 49 43 42 37 35 33 28 35 37 35 33 36 37 37 33 32 31 31 31 28 26 21
19 31 29 54 56 65 69 65 64 59 54 47 48 50 47 45 47 49 56 57 40 42 51 46 42 34 36 32 26 30 35 33 33 35 37 35 35 34 33 33 32 29 24 21
19 48 16 56 53 60 61 62 60 56 55 47 52 51 47 40 37 42 40 38 40 44 46 50 43 40 33 34 23 24 31 34 34 34 34 35 35 35 33 34 31 28 25 23
39 22 18 56 55 57 57 54 56 54 56 46 55 53 47 40 37 34 32 32 31 39 47 45 44 42 37 33 28 24 25 35 36 36 36 35 34 34 34 34 31 28 27 25
30 9 36 59 56 54 54 49 51 54 54 53 58 55 50 43 43 41 38 33 31 40 46 49 48 43 35 35 33 29 28 29 33 35 35 35 35 35 35 35 32 31 28 25
48 21 45 48 51 49 46 40 47 55 51 51 55 57 52 48 46 44 42 36 41 39 44 44 48 54 45 42 33 32 30 29 30 30 32 37 38 38 37 36 35 36 35 34
22 30 27 51 45 45 46 43 43 54 48 46 53 55 56 52 51 48 48 43 42 43 46 45 39 38 37 42 38 48 32 31 30 28 30 31 41 40 40 39 43 40 39 42
26 33 36 37 32 36 37 35 38 45 48 45 51 52 57 54 53 52 51 50 49 46 45 44 45 45 42 42 38 32 38 39 36 32 32 35 37 40 44 44 38 42 49 47
33 30 32 30 32 39 43 43 42 40 41 46 45 47 53 57 56 56 57 57 57 52 48 48 44 49 49 47 52 42 44 42 51 41 49 44 40 43 44 44 48 45 47 47
36 34 35 35 32 37 34 32 37 44 40 40 44 42 50 57 57 57 57 55 55 56 53 50 50 45 50 51 53 57 55 61 47 52 27 31 40 44 46 49 51 53 55 52
24 37 41 32 35 39 40 40 36 39 40 42 42 45 45 50 57 58 60 57 56 56 55 51 50 48 46 51 54 45 42 42 38 36 36 42 47 48 51 52 51 51 52 52
7 27 32 35 33 39 36 39 47 46 47 47 47 46 49 54 52 59 61 58 56 58 56 57 56 51 47 45 47 48 47 47 47 47 44 45 43 41 42 43 44 45 47 48
11 14 24 41 40 43 49 36 46 49 46 52 54 55 55 44 57 56 53 59 62 61 59 58 58 55 51 48 45 43 43 41 40 41 43 41 38 37 39 40 41 40 39 41
4 4 15 25 30 33 40 38 41 38 41 53 59 56 48 48 53 55 53 53 59 60 60 59 57 55 53 51 50 47 47 46 45 45 44 43 43 39 39 41 41 41 43 43
5 6 9 10 18 29 33 31 29 34 46 50 50 49 48 52 51 50 54 58 57 60 60 62 61 59 58 57 57 56 53 52 52 53 50 48 51 49 43 41 41 42 45 47
9 8 10 13 12 13 21 26 28 39 39 41 46 49 50 50 49 46 55 58 57 62 67 68 65 67 64 63 63 63 60 59 59 58 58 52 53 57 54 48 45 44 45 47
16 13 9 11 15 15 15 17 22 27 32 43 47 51 53 49 48 49 49 55 50 50 60 61 72 72 69 74 73 72 71 68 64 60 60 59 56 56 56 50 49 49 49 46
21 18 16 12 12 15 14 13 15 23 27 30 37 47 54 62 60 58 59 58 55 50 48 55 64 59 61 64 78 81 77 75 75 71 72 69 64 60 59 59 56 55 53 52
24 24 23 21 16 12 14 18 17 14 18 24 28 33 35 42 51 55 58 61 59 60 58 56 51 57 58 67 68 61 73 73 83 79 75 75 71 67 64 61 59 58 59 56
26 24 23 24 23 21 17 13 16 20 20 21 27 29 28 29 33 40 47 54 57 56 60 64 64 63 60 61 66 74 57 56 50 59 60 80 75 69 65 65 65 63 61 61
20 19 20 23 24 24 23 20 19 17 21 22 21 25 28 27 27 27 28 29 33 37 42 53 61 63 68 66 65 66 66 65 62 65 63 60 63 66 68 69 70 65 63 65
19 19 18 18 19 20 21 23 22 22 21 19 18 20 20 22 30 29 30 28 27 26 30 34 42 49 56 62 65 66 68 72 74 68 70 73 70 72 71 71 69 67 66 63
22 22 21 20 20 20 20 20 19 20 23 25 23 19 18 19 20 21 25 26 26 25 22 29 35 39 37 44 58 63 67 73 78 78 78 78 77 83 79 80 81 78 77 76

GFSNGP_500_spd_048.txt.gz
Wind_Speed
61 64 60 57 61 62 62 66 80 74 53 62 59 49 45 45 54 59 59 56 52 47 44 37 34 31 33 36 41 43 42 42 40 39 38 37 35 32 30 28 27 27 27 23
56 58 63 65 64 66 67 63 73 81 74 69 61 52 45 46 56 63 62 61 56 51 48 43 39 33 30 30 35 39 40 38 39 41 40 39 36 34 32 30 30 29 28 25
49 50 57 69 69 67 69 68 67 81 73 61 64 56 52 53 53 61 65 65 60 55 51 46 43 36 33 30 28 32 35 38 38 38 39 39 38 37 34 31 33 31 30 27
39 44 52 66 66 69 74 72 70 73 70 67 62 59 51 52 53 54 63 66 64 60 55 50 44 39 37 32 31 27 32 37 37 36 34 33 35 35 34 33 33 33 31 29
42 41 46 66 68 68 71 76 74 74 71 65 61 58 55 52 52 55 62 68 66 63 58 55 50 44 38 34 32 29 27 31 36 36 35 35 32 32 33 34 33 32 31 30
32 31 29 35 58 73 69 78 79 76 68 69 62 60 57 53 52 52 59 64 67 65 60 59 53 46 41 37 32 30 27 24 32 36 36 34 34 35 36 36 33 33 32 30
27 29 27 30 33 50 55 65 71 76 67 62 60 57 57 51 51 48 53 62 64 64 63 59 55 51 46 40 35 33 31 30 30 33 36 35 36 39 38 35 34 33 31 29
17 16 11 25 45 44 51 55 55 64 64 61 59 57 53 49 49 47 45 55 62 61 61 57 61 55 47 44 39 34 35 28 28 32 35 35 36 37 36 36 34 33 31 29
6 6 5 35 40 45 42 48 49 47 59 59 60 57 48 51 49 43 40 49 58 62 54 54 56 52 50 47 45 52 31 30 28 33 34 33 33 34 35 35 33 32 31 30
5 5 18 46 48 42 45 43 41 44 56 58 59 52 48 51 43 40 38 40 39 43 48 53 56 59 56 56 55 47 36 36 26 28 35 34 33 34 34 33 32 32 32 31
6 11 31 49 34 51 41 37 43 43 55 57 54 49 49 49 43 41 39 35 37 41 49 52 52 60 60 56 52 46 41 38 31 29 34 35 35 36 35 34 35 35 34 34
8 17 40 48 39 53 44 38 39 44 50 53 48 49 52 49 48 45 42 44 42 39 41 51 60 54 58 56 49 42 43 42 37 34 35 38 42 40 36 32 33 36 38 39
8 18 30 42 34 31 33 37 34 42 43 45 46 50 52 53 53 49 50 52 50 48 45 46 51 57 56 51 46 52 52 57 45 40 39 40 43 43 46 44 40 41 40 42
13 19 19 41 42 35 35 37 40 41 40 43 42 43 49 57 55 51 54 56 53 51 51 52 54 56 55 58 54 52 52 54 47 50 44 44 48 46 51 53 43 42 41 45
9 13 24 21 32 26 33 43 36 39 36 43 44 40 47 59 58 55 48 54 53 56 54 55 53 51 51 46 47 45 46 45 36 42 47 51 51 50 53 34 35 36 38 47
17 4 21 25 25 32 35 40 39 36 35 35 40 42 43 56 59 56 54 51 49 53 52 50 51 51 50 47 49 51 49 49 56 58 56 60 62 52 48 30 35 44 39 43
12 11 13 30 31 33 35 29 37 35 34 37 39 40 44 47 52 58 57 57 52 54 51 48 47 49 52 50 48 46 51 56 55 55 70 63 37 25 30 32 35 33 37 43
6 7 10 16 25 38 38 33 39 40 40 47 41 39 39 46 50 54 55 54 59 55 60 55 50 49 53 53 54 54 53 52 56 58 46 43 34 32 32 35 33 33 36 40
11 8 4 4 11 10 21 34 35 35 33 51 48 43 46 47 49 56 58 58 58 54 55 55 53 58 57 53 56 56 54 53 52 51 48 42 39 40 36 36 38 42 40 39
10 10 9 9 8 11 15 19 24 22 28 35 39 49 55 45 51 47 52 61 64 59 62 60 54 56 56 59 61 55 63 60 56 51 52 50 47 47 46 45 48 45 49 47
13 13 11 10 10 13 16 15 16 21 31 33 33 38 43 47 53 55 57 52 62 50 66 56 57 58 61 60 57 58 61 61 64 63 59 58 59 60 59 56 55 53 52 50
18 16 14 14 13 13 14 16 18 18 22 29 32 34 38 42 45 48 49 44 39 41 49 53 58 62 61 63 66 68 68 70 71 61 59 69 68 68 68 66 65 60 58 57
19 18 17 16 15 15 16 16 18 19 21 22 27 33 38 41 45 48 48 49 48 46 47 57 55 56 69 65 68 68 72 70 73 75 75 74 74 74 74 72 70 68 67 66
14 13 13 14 16 16 17 18 20 18 21 21 23 24 26 27 31 38 45 51 54 54 54 54 55 54 53 52 53 62 57 61 75 79 83 60 78 82 80 81 80 75 75 74
15 13 12 11 11 13 15 18 20 21 21 20 23 23 22 23 24 26 29 34 42 45 57 60 60 60 60 59 58 60 59 57 64 65 57 64 66 64 79 90 87 83 84 83
20 19 17 15 13 13 15 16 17 19 21 23 22 22 24 25 25 24 28 32 30 32 34 41 46 48 51 54 57 61 64 62 65 61 64 61 62 68 72 75 75 67 64 54
25 25 24 23 20 18 16 16 18 18 19 21 23 23 21 21 23 27 28 30 34 36 34 29 30 30 31 34 39 47 55 60 64 66 68 70 68 69 67 71 72 64 70 74

GFSNGP_500_spd_051.txt.gz
Wind_Speed
56 56 53 57 67 62 62 61 50 53 49 58 43 39 29 30 39 49 55 60 57 52 53 49 44 39 34 27 29 31 38 40 39 38 37 35 34 32 29 27 26 27 26 24
58 59 58 61 63 66 66 66 65 68 69 68 61 48 42 39 30 46 56 62 59 59 58 52 48 41 37 30 26 29 32 37 38 39 39 38 36 34 31 29 28 28 27 25
51 54 57 67 67 67 66 70 70 68 70 67 74 58 46 45 40 49 50 58 64 55 58 54 48 41 37 31 27 28 29 34 36 38 39 39 38 37 35 32 32 29 29 27
36 41 44 53 63 68 70 70 71 73 71 71 67 60 53 48 50 51 59 64 63 58 59 53 49 46 40 37 32 26 27 31 35 38 37 38 39 38 38 37 35 32 31 30
43 45 45 51 43 63 79 81 82 75 74 71 62 66 60 65 63 55 51 54 56 57 60 56 54 49 43 39 34 30 27 26 30 33 36 36 35 36 38 40 37 34 32 31
40 48 51 46 38 53 70 82 75 71 70 68 59 63 72 71 66 60 52 51 56 59 61 59 57 52 46 41 39 33 26 21 22 29 33 33 32 31 31 34 36 36 34 31
32 41 46 43 49 57 66 71 71 70 69 70 64 60 64 75 61 57 55 54 51 60 62 61 58 55 51 46 41 32 28 28 27 25 29 32 34 34 33 32 33 34 33 32
17 28 28 25 35 52 57 58 62 70 66 68 65 67 71 73 67 61 52 47 50 54 64 64 62 60 55 50 40 42 37 32 29 24 25 32 34 33 33 32 32 32 32 33
17 16 16 6 14 27 37 35 53 62 65 62 64 62 69 69 62 57 56 49 48 51 54 62 64 63 58 53 51 46 41 37 35 31 29 28 35 33 33 33 33 33 33 33
7 6 8 3 8 29 35 41 40 59 66 64 65 59 68 62 56 48 52 52 49 51 54 57 61 64 62 61 55 50 45 44 40 37 31 27 34 34 35 35 36 36 36 34
9 9 2 5 10 29 28 25 41 31 45 59 58 59 63 59 54 49 47 48 47 49 53 55 58 59 64 60 56 53 49 49 47 49 36 26 33 35 36 37 37 37 37 36
7 3 10 4 12 37 27 42 32 34 33 47 53 60 62 58 52 49 43 42 44 48 50 54 58 57 55 57 58 61 57 55 54 49 38 29 30 35 38 35 34 36 36 36
13 6 5 7 10 29 35 33 34 37 35 47 53 57 58 55 51 47 43 45 43 47 47 48 52 52 53 56 57 58 60 58 55 52 43 34 33 34 37 36 35 37 37 38
15 12 10 11 14 16 35 37 37 36 40 49 51 54 49 52 49 47 46 47 47 44 44 45 46 47 52 58 58 59 60 62 59 57 45 37 35 34 31 32 35 37 39 42
14 15 11 12 23 21 23 31 48 38 39 40 39 46 48 50 50 50 50 52 46 43 43 46 50 49 51 53 58 62 66 63 59 54 49 50 48 43 43 41 42 44 43 47
18 15 10 9 15 19 21 29 35 44 34 34 39 44 47 48 51 52 55 55 50 45 49 49 48 49 52 59 61 60 68 65 58 53 61 69 54 50 50 48 51 53 58 56
22 20 16 2 15 17 29 29 29 39 38 44 40 39 42 46 49 54 57 58 53 46 53 53 52 51 51 53 62 65 71 60 58 57 49 42 37 39 47 54 51 48 56 35
18 15 13 9 7 19 23 23 25 30 35 38 45 44 46 47 48 53 57 55 53 49 50 54 58 59 60 62 61 56 56 54 42 40 46 46 46 56 60 42 45 40 34 30
16 15 12 10 9 5 12 21 25 34 38 39 33 43 52 43 49 54 60 59 56 57 53 57 57 59 61 62 62 58 53 40 43 47 50 53 52 52 49 43 33 27 27 31
16 14 13 11 8 9 9 6 18 31 30 31 34 34 43 47 46 52 50 63 61 59 61 60 63 53 66 59 53 42 50 51 50 51 52 52 53 52 48 42 39 34 30 35
17 16 15 14 14 12 12 10 10 15 27 28 43 38 34 42 47 38 51 59 62 59 55 62 62 55 53 53 44 54 52 50 50 52 53 54 58 54 48 45 42 45 44 43
18 18 15 17 17 18 16 17 17 16 17 20 24 27 24 37 44 46 42 46 55 60 62 57 53 59 65 57 56 55 54 51 56 62 62 66 62 62 58 57 53 55 55 53
17 17 17 16 17 19 20 18 16 20 21 21 25 28 32 32 38 47 41 39 44 48 54 52 49 51 55 57 57 60 66 64 64 63 59 60 64 62 60 69 65 63 55 62
13 12 13 13 13 17 20 20 20 19 21 25 26 26 27 32 36 36 41 45 40 41 41 49 54 52 55 59 51 58 55 54 58 60 66 70 70 68 67 70 66 64 63 63
19 16 15 15 14 13 14 18 20 22 22 23 26 29 29 29 32 35 35 38 41 42 43 45 48 50 48 49 51 55 58 57 58 57 61 63 64 64 65 66 66 64 64 68
19 21 21 19 19 18 17 16 17 20 23 23 25 25 30 31 30 30 32 33 37 40 43 47 51 55 56 55 53 53 56 60 64 61 60 59 66 62 61 68 66 66 64 68
22 21 20 22 24 23 22 21 20 18 20 23 25 25 26 26 28 30 31 31 31 32 33 34 37 41 46 50 56 59 60 62 63 64 64 64 64 65 64 65 66 67 69 69

GFSNGP_500_spd_054.txt.gz
Wind_Speed
54 54 48 53 56 54 50 56 49 47 44 53 40 47 46 46 46 40 36 40 44 46 55 22 32 35 32 30 27 23 23 27 34 35 34 33 31 30 28 27 25 24 24 24
57 57 56 61 55 57 58 58 56 58 62 62 44 49 50 52 52 52 53 33 35 47 47 42 43 36 36 33 29 25 23 21 30 36 35 34 33 33 32 28 28 26 23 24
46 51 56 62 62 60 59 61 64 67 67 70 62 59 49 47 47 52 55 49 47 51 44 44 41 37 40 35 32 27 24 24 24 34 35 33 34 34 32 30 30 26 24 24
28 38 48 56 61 64 64 67 65 68 64 67 75 73 55 47 48 47 53 57 57 57 60 49 25 50 35 37 34 27 25 24 23 25 31 32 32 31 33 32 31 30 28 26
35 37 37 42 52 55 59 65 66 73 75 68 77 76 64 49 53 48 46 52 58 57 59 57 62 42 36 39 34 31 25 20 20 22 25 29 29 29 31 32 33 32 32 30
33 40 44 35 39 51 62 77 75 76 77 71 71 82 72 52 62 52 49 51 55 59 61 58 49 45 45 35 34 33 26 19 20 21 24 26 27 29 31 31 32 34 35 35
23 29 33 41 43 53 52 67 74 81 81 73 70 72 74 59 60 59 31 62 57 56 54 54 52 50 49 41 40 32 30 29 25 23 23 25 29 31 32 31 31 32 33 36
20 25 28 33 43 55 56 59 63 72 79 77 69 67 69 72 79 65 69 36 53 50 51 52 54 53 50 48 42 38 38 34 30 26 26 26 26 28 32 33 32 29 30 32
22 23 23 24 31 38 46 58 66 73 72 76 73 67 72 82 83 83 59 66 51 53 55 51 51 53 52 52 49 46 42 38 34 33 29 27 27 26 31 34 34 32 32 31
15 16 17 13 19 23 29 38 41 59 69 63 68 70 77 73 89 82 71 62 60 55 55 52 51 53 53 55 54 51 48 43 41 36 34 32 29 26 26 33 36 35 33 33
9 8 8 9 13 18 12 17 28 37 56 51 61 71 70 68 70 72 79 75 66 55 60 57 55 54 56 58 57 54 50 48 46 42 37 37 32 30 28 28 34 36 35 36
12 12 7 4 9 9 9 9 18 37 40 49 53 63 59 59 64 62 66 68 68 62 57 52 53 54 54 57 58 59 54 52 49 47 41 38 37 33 28 26 30 35 35 37
20 16 13 6 4 2 5 7 19 34 38 41 53 57 53 52 56 61 61 60 58 59 59 54 47 51 53 53 53 57 58 56 54 52 47 43 40 40 35 26 27 34 33 33
24 18 16 11 4 6 4 11 17 25 37 51 43 51 58 54 54 59 55 53 57 54 54 53 49 48 53 53 51 54 59 61 59 55 53 50 46 42 42 37 31 31 34 34
25 25 19 20 6 7 8 12 17 29 36 34 42 40 52 53 52 51 54 53 54 53 53 53 50 48 51 52 53 53 54 62 61 60 59 58 55 50 44 38 34 29 35 39
29 28 29 21 16 4 7 14 16 21 38 38 36 35 39 51 51 48 50 49 51 52 53 52 49 48 47 51 52 49 54 59 61 63 62 57 53 51 49 44 43 37 37 38
21 21 23 24 19 10 1 7 16 22 27 23 33 31 45 43 46 47 46 52 50 50 51 50 49 45 45 49 48 47 53 58 61 63 63 57 51 48 51 53 51 51 45 47
20 18 19 21 20 19 9 2 5 13 17 25 31 43 44 43 45 48 60 35 48 51 53 52 48 43 42 43 46 50 48 53 57 58 62 63 60 55 51 48 54 49 59 48
19 19 18 16 18 18 17 13 5 5 10 11 21 32 46 42 46 52 48 45 41 45 51 54 48 42 43 42 46 46 49 53 54 56 60 58 61 60 60 58 55 47 36 34
21 20 20 18 14 15 16 14 12 11 6 12 18 24 40 45 41 43 49 47 49 51 51 54 52 46 47 49 49 52 50 51 57 58 61 62 63 66 63 61 51 50 33 28
20 21 21 21 18 12 13 12 10 9 11 12 18 11 26 23 53 57 47 56 50 55 57 56 55 55 45 50 53 54 55 56 57 60 63 65 76 83 68 54 52 39 28 34
22 19 19 21 21 17 11 14 15 11 10 10 10 16 16 28 32 43 43 36 45 63 59 58 60 59 59 54 54 55 56 57 64 66 63 69 48 36 39 35 37 42 41 47
20 18 17 18 18 19 18 13 15 16 15 13 12 13 14 19 25 22 30 49 35 38 48 56 59 63 65 60 57 56 56 51 44 48 63 64 47 48 55 57 56 54 52 52
20 20 17 15 17 16 17 18 17 15 18 17 16 16 16 16 22 21 21 24 31 38 47 40 64 57 54 57 56 62 56 57 60 59 53 49 43 50 58 45 46 60 54 53
22 21 20 21 19 18 17 16 19 18 18 20 21 21 22 19 19 25 28 27 30 35 41 45 38 42 56 58 55 54 53 51 49 52 56 54 63 61 59 59 62 56 62 68
26 26 23 22 23 23 21 20 19 18 18 19 23 24 23 23 24 23 24 29 30 28 31 35 35 38 49 46 47 46 47 49 47 47 45 51 54 53 50 48 48 53 59 62
19 25 24 23 24 24 23 26 25 21 19 16 20 24 24 26 24 26 27 27 29 29 29 33 36 41 45 49 52 52 52 53 51 51 52 51 53 54 54 56 57 58 60 62

GFSNGP_500_spd_057.txt.gz
Wind_Speed
48 51 55 58 54 51 51 59 64 62 58 52 52 45 36 37 39 41 37 32 27 31 36 27 27 30 31 25 17 17 18 15 19 31 34 34 31 29 28 26 24 25 23 21
56 54 56 59 62 61 60 55 63 65 67 59 62 58 48 45 43 40 39 42 37 38 39 37 35 35 33 34 21 17 19 18 20 25 33 35 34 32 30 29 27 25 23 22
40 47 56 63 59 61 62 60 60 63 64 68 71 72 60 52 50 47 38 29 35 42 37 34 29 35 52 36 26 22 22 20 19 20 26 33 36 35 31 30 31 26 25 24
27 30 40 54 59 62 63 66 61 66 64 60 82 77 68 57 55 55 52 57 46 46 40 32 37 48 47 41 38 29 26 22 20 17 20 30 35 33 32 31 31 30 28 27
33 32 33 36 51 58 67 67 64 69 69 65 76 76 75 65 60 55 58 59 55 58 53 49 50 48 43 65 36 34 32 21 16 16 18 24 30 32 33 33 32 32 31 29
22 25 30 23 30 39 54 72 69 71 73 64 69 74 75 63 66 60 60 63 62 61 55 51 56 45 48 40 40 33 27 23 18 17 17 19 27 31 33 32 33 34 33 32
23 25 19 33 36 43 49 66 69 77 79 74 73 65 74 80 63 68 68 62 59 58 52 47 56 48 27 47 25 19 21 25 23 20 19 21 24 27 30 31 32 32 32 34
19 20 24 25 32 44 46 51 64 69 76 80 78 70 67 81 79 70 69 62 63 60 60 51 51 46 43 22 29 28 33 28 26 26 23 23 22 24 26 29 31 32 32 32
19 21 27 25 26 34 42 48 55 63 69 79 81 77 73 71 85 82 71 65 56 55 58 47 57 54 46 50 49 36 36 34 33 31 29 25 25 24 26 28 28 29 31 31
16 20 19 23 26 34 37 39 41 51 64 76 85 83 79 74 76 87 84 71 69 54 52 53 60 55 50 47 49 43 41 41 39 37 33 31 27 26 28 27 24 26 30 31
16 19 18 20 21 27 33 34 36 39 46 52 75 88 85 80 82 75 79 84 78 60 54 49 50 48 50 48 50 49 45 45 43 40 36 34 32 30 28 26 25 23 25 33
19 14 12 14 17 22 26 25 27 33 36 42 59 57 86 90 84 79 78 87 88 79 55 50 52 45 44 41 46 49 47 48 48 45 41 37 35 31 30 28 28 25 24 29
27 26 17 12 10 14 19 20 18 21 28 30 29 49 52 90 88 76 75 75 89 88 75 65 54 47 48 45 44 47 49 48 49 49 46 43 40 37 32 30 30 28 27 28
26 27 30 18 14 10 14 14 11 12 11 14 27 23 31 48 71 72 74 72 78 83 90 68 60 56 55 53 48 47 46 49 48 49 49 47 45 42 38 34 33 32 31 34
25 26 27 31 22 14 8 13 13 10 12 23 20 34 38 38 55 64 71 71 73 79 88 84 64 58 57 51 48 50 51 49 49 52 53 52 50 48 43 40 39 40 36 37
26 25 24 24 30 21 11 10 16 15 11 17 27 29 44 47 47 51 53 63 66 72 74 90 74 68 60 54 49 48 50 51 50 49 50 54 55 53 47 47 47 47 43 42
30 26 24 23 22 27 18 9 10 18 17 16 15 17 22 39 33 50 51 52 57 60 60 64 76 69 63 60 54 48 50 53 52 50 52 56 58 59 56 55 56 55 50 50
30 27 24 21 21 21 23 22 7 3 19 22 22 19 21 27 40 43 54 50 55 60 57 63 70 63 59 61 59 53 52 54 54 54 53 56 59 59 63 62 63 64 58 54
25 25 25 20 18 19 19 21 21 6 5 15 27 29 26 29 37 38 41 47 54 57 57 62 61 50 52 52 55 54 52 54 53 50 51 52 55 59 63 68 66 54 61 50
21 23 24 24 20 17 16 16 17 20 9 4 9 25 28 32 30 35 40 49 42 50 54 54 55 54 52 53 60 42 51 50 45 50 46 49 55 57 59 60 59 61 49 49
23 20 23 25 20 18 15 14 13 14 18 12 6 11 20 27 37 39 45 47 46 52 55 51 57 57 54 51 43 48 43 43 44 44 56 46 45 49 56 58 60 54 62 52
23 22 21 23 22 16 16 14 13 12 11 14 15 0 11 20 26 36 41 44 49 41 42 59 59 59 58 47 52 46 33 41 43 46 47 46 40 43 55 59 65 63 63 60
23 23 22 22 23 20 13 14 11 10 10 9 9 11 7 4 11 26 36 34 46 41 42 43 48 54 54 58 59 56 47 47 48 48 47 47 52 55 54 59 53 54 47 53
26 26 25 22 22 23 16 12 13 8 10 10 7 6 8 8 6 8 16 33 40 40 43 48 51 60 55 53 56 61 57 56 45 46 47 48 49 55 59 60 61 57 63 65
26 26 28 24 22 22 22 16 14 9 8 8 11 9 8 9 10 10 11 14 21 28 37 38 42 52 55 58 56 56 59 62 56 53 51 52 52 58 53 45 48 51 52 47
18 16 12 22 23 25 25 24 18 15 10 8 9 13 13 12 12 14 13 16 18 22 25 35 41 34 32 37 51 55 57 56 56 60 60 58 55 53 54 56 60 62 57 57
22 19 17 20 11 21 27 24 21 19 16 13 11 10 15 15 14 15 16 18 18 21 24 24 27 27 29 30 32 34 37 45 48 48 53 54 54 50 48 47 46 46 43 45

GFSNGP_500_spd_060.txt.gz
Wind_Speed
37 48 56 51 56 56 56 58 61 61 52 50 52 51 46 35 43 40 40 37 36 33 26 27 37 36 39 35 33 26 21 21 26 32 32 33 34 33 31 30 27 26 25 22
28 40 57 65 55 56 60 59 61 61 58 58 55 58 50 41 34 43 41 41 44 34 22 25 31 33 37 35 33 32 27 21 23 24 30 32 33 34 33 31 30 28 26 26
35 33 44 64 67 57 55 58 60 61 60 61 63 60 61 48 32 40 45 45 42 35 32 30 21 32 44 45 40 35 34 26 23 21 21 25 34 36 35 33 32 29 28 26
31 29 33 51 65 68 66 59 61 61 56 59 68 65 64 59 44 36 40 45 48 42 42 38 33 37 43 43 40 39 35 32 28 23 22 23 31 37 36 36 33 31 30 28
33 24 26 27 43 60 74 74 72 71 64 60 67 72 69 64 62 46 41 45 47 48 48 44 40 37 41 45 46 43 37 34 33 29 27 26 26 35 38 37 36 33 32 32
28 29 23 25 36 41 57 76 76 77 72 68 70 74 75 70 64 63 54 44 42 54 49 47 51 47 44 35 42 45 33 36 34 31 30 28 27 32 39 39 38 38 36 34
23 26 25 24 26 34 49 65 69 77 76 75 75 77 73 76 76 64 66 57 52 56 51 58 60 48 50 38 35 44 46 45 39 35 32 30 30 33 38 39 38 39 37 36
19 23 27 23 24 30 45 54 61 70 79 80 80 80 76 76 79 81 74 70 63 59 63 66 63 56 53 41 38 38 53 53 50 39 35 34 32 31 33 36 36 36 36 35
20 21 25 23 24 27 30 41 53 60 71 81 84 82 80 80 81 82 86 79 77 70 69 61 63 62 57 40 40 42 34 52 59 41 34 31 31 29 33 34 35 36 35 34
17 19 22 22 22 23 27 34 37 49 60 75 85 84 85 82 80 83 88 90 75 73 79 72 74 70 61 49 42 41 35 37 44 44 41 36 32 31 32 31 30 30 30 32
17 21 21 24 23 26 30 30 31 37 38 55 74 81 85 86 83 80 82 90 87 78 73 71 81 70 59 58 50 49 47 34 44 48 38 41 41 38 32 28 26 25 23 28
19 19 20 23 23 26 30 32 31 31 36 41 48 60 80 86 88 86 85 83 93 87 85 85 80 67 75 68 58 57 50 53 45 46 44 46 44 40 36 32 29 27 27 26
23 24 23 21 23 22 26 31 32 30 32 35 41 47 50 58 79 93 91 88 80 98 93 87 97 80 73 65 62 61 48 47 48 51 52 49 46 43 39 37 35 33 31 29
27 28 28 24 22 24 22 22 25 28 26 24 28 37 44 50 55 84 97 90 87 85 99 92 86 66 59 67 61 59 58 57 54 53 56 54 51 47 45 43 40 38 38 35
28 30 29 27 23 21 22 19 21 25 22 22 21 14 19 26 39 64 81 92 86 85 91 92 93 77 70 65 58 54 57 56 54 55 56 55 55 53 51 49 47 44 42 39
30 31 27 26 22 20 22 21 13 18 22 20 21 19 15 14 17 26 40 75 95 83 84 85 85 93 81 68 75 68 59 56 54 53 52 55 57 60 59 56 54 50 49 45
30 30 25 24 23 20 19 22 20 11 17 22 20 21 16 19 22 24 28 47 68 81 81 82 77 85 89 79 76 67 59 56 57 54 51 49 52 58 61 60 57 56 56 52
25 24 21 21 22 21 20 18 22 17 8 14 24 23 21 27 24 22 29 28 44 59 80 79 77 71 83 92 86 64 63 56 54 54 54 51 52 55 57 60 61 60 59 58
22 17 22 24 23 21 21 18 17 22 17 8 12 23 26 24 27 25 27 34 37 45 64 76 75 74 69 82 94 74 69 61 49 51 54 53 55 59 59 56 57 60 63 64
23 20 21 24 25 22 22 21 18 16 20 20 8 10 19 30 29 29 24 31 39 43 47 64 68 67 68 65 82 87 68 62 59 58 59 57 56 56 57 57 56 54 60 64
22 21 20 19 20 20 21 20 19 17 14 18 19 6 2 15 29 28 27 27 32 48 47 53 58 58 61 63 65 92 75 68 65 62 64 63 60 58 52 52 53 52 52 58
27 24 22 22 20 18 16 17 17 17 16 13 17 19 7 5 15 27 29 28 27 37 44 51 57 56 55 41 48 72 76 69 65 64 62 61 54 54 53 53 47 50 42 54
27 26 22 19 19 17 17 16 15 14 16 13 12 15 19 9 10 14 28 29 34 28 39 46 57 66 63 69 43 60 65 64 65 63 53 62 56 25 31 54 54 45 47 43
24 25 24 22 21 20 18 13 12 13 13 13 10 11 10 15 8 10 14 26 30 38 37 36 33 54 63 62 50 54 63 52 63 56 55 58 57 62 57 41 36 48 44 39
31 27 27 24 22 24 23 15 13 13 12 13 11 10 8 8 10 10 6 13 34 47 35 43 41 52 49 61 61 54 54 48 48 52 36 41 44 47 48 53 54 50 48 44
32 26 24 28 27 15 18 20 25 21 14 14 13 12 8 6 7 7 9 1 10 27 34 36 36 39 42 63 52 60 60 67 48 42 52 43 41 46 49 52 54 51 49 45
26 26 31 26 27 20 14 18 22 18 19 16 14 13 10 10 8 8 5 6 7 5 11 27 39 35 26 30 50 54 49 60 60 58 59 57 56 59 48 47 48 47 49 49

GFSNGP_500_spd_063.txt.gz
Wind_Speed
26 46 47 45 46 47 49 51 50 54 57 55 52 49 49 44 45 43 44 43 41 39 40 39 39 43 40 41 38 36 33 34 38 39 37 36 37 35 33 31 28 26 25 25
23 25 43 52 49 52 54 55 53 55 57 58 56 52 49 51 51 47 51 49 47 46 42 42 40 42 47 45 41 36 37 34 35 43 43 41 39 39 38 35 33 31 28 27
28 25 24 34 55 58 59 61 59 59 60 62 60 58 53 51 53 51 52 55 51 51 46 50 39 39 48 43 45 42 41 39 37 36 43 44 43 43 41 38 36 33 31 29
32 34 34 37 37 45 68 66 67 66 64 65 64 62 60 56 55 58 54 57 55 54 50 44 25 23 36 40 48 47 44 43 41 37 36 43 45 44 43 42 39 37 35 33
35 35 35 39 41 43 41 72 71 75 72 72 71 66 61 62 61 59 61 59 60 57 52 48 39 33 35 33 46 44 43 44 45 41 38 39 40 42 44 45 43 39 39 38
29 32 35 31 35 40 43 45 73 77 78 78 75 76 68 66 64 63 61 62 61 62 59 57 51 40 41 36 40 54 53 45 43 44 41 39 38 37 40 46 46 45 43 40
26 29 32 31 32 37 41 40 50 73 81 83 83 80 73 72 71 68 68 61 65 66 65 63 58 49 51 43 40 48 50 46 47 44 44 40 40 40 39 42 50 49 47 44
16 24 27 25 28 35 37 35 33 47 72 88 87 87 81 76 76 75 74 71 67 68 69 64 61 54 52 48 46 45 47 47 51 49 48 46 43 42 41 41 44 51 51 47
11 16 16 16 21 28 31 34 38 39 47 75 91 90 90 84 83 77 77 77 79 70 72 70 62 57 56 54 57 39 36 36 47 52 50 43 41 41 41 42 41 47 50 45
11 13 14 14 15 19 27 31 31 34 41 47 70 86 95 92 89 83 80 80 83 83 77 75 72 66 64 64 60 57 46 41 39 41 52 55 45 46 43 43 39 40 45 43
14 18 19 18 19 21 22 22 26 31 32 35 40 61 77 87 91 90 83 83 83 91 87 86 75 76 76 75 66 59 55 48 44 55 51 54 54 50 45 40 38 37 40 42
13 18 22 22 23 23 25 26 25 25 28 31 31 32 44 62 78 88 90 85 86 85 93 86 82 70 78 75 69 61 56 52 50 55 60 68 67 55 48 42 37 34 37 39
20 22 26 28 27 25 26 26 27 24 26 30 32 32 36 42 49 71 85 89 88 86 87 97 91 88 84 71 73 60 64 59 59 49 36 61 64 61 52 47 43 40 38 37
21 24 29 31 32 28 26 26 26 25 22 25 26 29 33 39 44 47 56 79 91 88 86 90 100 93 87 79 82 72 73 59 57 54 55 52 50 42 57 53 49 46 43 41
23 27 31 32 31 29 25 24 23 24 23 22 24 27 30 32 35 32 45 53 72 91 91 88 91 99 93 86 85 82 72 66 66 62 62 62 59 57 51 52 50 48 48 44
22 25 31 30 26 26 24 22 22 22 21 22 22 25 28 33 32 31 30 45 57 68 89 89 87 92 100 101 79 82 73 69 64 60 70 65 57 56 54 49 54 55 52 50
23 26 29 27 19 20 23 23 21 22 21 16 22 22 27 30 32 26 21 25 36 63 74 89 88 88 92 98 100 86 88 81 82 69 69 56 59 55 57 63 63 60 59 57
25 26 26 26 22 23 23 25 22 20 22 20 16 22 24 28 28 28 22 20 20 33 43 65 91 89 89 89 94 95 83 78 73 67 57 51 48 52 53 58 61 62 63 63
19 21 23 25 23 23 24 24 21 18 19 21 21 15 22 25 26 26 27 26 18 34 43 44 63 90 89 87 85 94 85 92 77 76 59 53 48 59 58 56 58 61 64 65
21 21 23 25 24 23 24 26 22 21 20 17 21 15 12 19 22 27 26 23 23 25 30 31 44 59 88 90 82 84 91 94 77 73 62 60 60 60 62 58 57 55 58 61
25 24 22 23 24 23 23 26 26 22 22 19 17 22 13 9 13 16 24 25 23 19 28 31 35 47 68 85 85 79 76 85 90 81 60 64 69 70 62 62 59 57 56 56
33 25 20 19 21 18 18 21 23 23 21 21 18 18 17 7 4 2 11 21 21 19 16 25 35 40 50 73 80 78 74 69 72 86 71 72 71 62 60 56 55 57 57 57
36 26 17 18 19 23 24 23 23 24 21 20 18 15 19 16 6 7 4 11 22 19 22 22 31 37 48 52 65 73 73 67 62 52 87 81 84 78 71 72 63 60 59 62
34 29 24 18 17 27 26 25 26 26 18 19 18 14 12 17 12 8 10 10 8 22 23 17 25 33 43 54 60 68 64 61 63 69 61 81 101 94 89 75 69 67 62 65
37 24 22 18 22 21 22 26 21 22 24 22 19 14 11 11 14 13 6 9 10 10 17 26 27 35 39 45 58 63 68 69 56 49 79 67 58 95 88 74 67 62 60 51
22 26 30 31 21 13 19 22 17 20 21 25 22 18 14 8 7 10 12 5 10 11 14 20 29 32 33 42 48 62 57 52 58 29 35 44 48 64 74 68 62 66 75 53
23 27 28 23 19 21 20 24 17 15 14 14 16 16 17 13 8 7 7 9 7 8 12 15 24 42 39 36 40 48 49 49 49 49 45 47 51 55 61 65 71 73 70 64

GFSNGP_500_spd_066.txt.gz
Wind_Speed
37 42 44 45 44 45 44 47 48 50 50 50 48 44 38 37 37 39 39 41 48 47 44 39 42 43 42 40 35 33 35 39 36 37 38 38 38 36 34 31 28 27 25 23
22 29 37 43 44 43 44 46 49 52 53 53 52 50 45 39 41 41 43 47 49 47 47 43 43 44 45 42 37 36 35 33 35 38 38 39 40 40 39 36 34 32 29 28
23 25 26 30 41 46 45 46 48 51 52 54 55 54 53 47 46 51 50 49 54 53 47 46 44 42 41 39 38 43 41 37 35 34 37 41 42 43 42 40 39 37 36 33
26 30 32 33 33 37 45 53 52 52 54 55 55 56 57 55 51 56 58 58 58 60 53 50 46 45 44 43 44 48 50 48 46 44 40 40 45 45 44 44 42 40 40 38
25 28 32 33 34 36 36 39 47 58 63 60 60 60 59 59 58 56 63 62 63 61 59 57 50 49 49 45 52 49 52 55 51 47 42 40 38 44 48 48 46 44 42 41
27 30 34 34 36 37 38 38 46 50 53 63 72 67 64 66 64 63 62 68 68 65 63 63 60 53 56 49 56 53 56 53 54 51 46 41 41 41 46 49 49 49 45 42
23 27 27 28 29 35 37 34 38 44 56 61 65 73 73 73 72 69 68 67 67 72 68 66 65 59 57 59 46 39 52 51 52 49 46 45 44 42 41 43 48 49 50 46
18 19 18 20 25 30 35 41 45 47 48 49 58 71 76 81 79 78 75 72 71 71 74 70 66 65 58 59 39 41 43 46 52 51 52 48 46 43 42 41 41 43 46 49
11 12 11 13 16 22 26 30 37 42 46 51 51 52 70 79 88 85 81 80 77 74 75 72 69 67 67 61 53 51 47 45 47 54 56 51 51 47 46 44 43 43 42 43
8 8 6 8 11 14 18 24 29 36 43 49 51 50 50 60 81 91 90 85 83 81 77 76 72 71 71 71 63 62 57 55 46 43 58 54 51 50 51 45 43 43 43 43
16 12 10 11 15 18 20 21 25 25 29 37 46 49 46 45 50 71 93 94 88 84 81 81 79 76 75 74 73 70 67 65 56 56 61 49 55 56 54 47 45 43 41 43
20 21 22 25 25 25 27 27 29 29 31 33 35 39 45 41 40 42 63 93 96 89 85 84 86 84 78 77 80 77 71 65 58 51 47 45 45 53 62 57 50 43 45 45
23 24 22 23 25 29 30 29 30 29 30 31 36 37 36 38 38 36 36 53 90 96 90 86 88 92 87 83 85 85 77 73 65 64 59 52 46 45 47 44 48 59 49 47
23 23 25 27 30 31 33 30 27 28 30 29 32 34 33 32 34 36 36 35 44 82 94 89 88 93 97 90 86 87 84 80 75 73 71 59 56 49 45 43 53 52 52 51
20 21 26 31 33 34 33 28 28 28 30 29 28 33 30 27 30 31 31 32 35 42 69 90 87 90 98 99 98 87 89 84 77 76 73 66 61 61 57 50 39 46 58 55
21 26 28 32 36 36 33 28 28 28 27 28 26 30 32 26 26 29 28 28 28 29 34 57 87 87 92 101 103 97 90 84 72 71 76 69 62 55 52 51 50 34 54 62
25 27 28 31 32 33 30 29 29 29 28 29 27 26 29 28 26 30 29 29 33 38 42 47 56 76 93 94 103 105 104 95 83 81 79 74 69 53 56 56 50 40 39 53
24 23 22 25 28 27 24 25 25 24 24 25 25 25 24 28 27 25 29 35 38 36 40 37 39 64 74 90 91 102 108 102 98 88 83 74 70 60 61 60 54 50 52 54
23 20 19 24 26 25 24 26 25 23 23 23 23 24 24 25 28 25 24 31 33 37 36 39 37 48 68 75 90 92 96 101 99 96 92 84 74 68 70 67 57 55 53 63
26 24 23 26 27 25 24 26 25 24 24 23 23 23 23 25 25 26 21 22 30 30 31 34 29 30 42 68 76 88 91 94 94 98 97 85 78 74 68 70 64 61 55 59
29 31 33 26 25 24 24 23 21 20 20 21 23 23 23 23 21 20 22 19 20 23 24 25 26 37 35 35 62 76 88 90 91 93 99 93 85 82 81 76 67 63 54 50
26 26 37 28 23 23 24 22 18 22 23 20 21 23 22 22 20 12 13 15 13 20 20 21 20 26 28 28 33 45 74 86 87 86 90 88 91 81 79 74 68 61 50 46
34 28 30 28 29 27 24 18 20 24 26 22 20 22 19 20 22 11 6 4 6 11 19 20 22 23 16 27 24 32 47 79 84 81 80 81 87 93 89 79 75 66 63 53
34 33 34 36 31 30 30 24 24 24 22 24 21 19 19 16 22 12 6 2 5 3 12 17 18 23 24 19 21 25 36 45 82 82 77 71 71 76 82 84 76 66 68 61
32 28 30 34 45 30 28 27 22 22 19 22 20 20 18 13 14 19 5 5 1 5 3 7 19 18 19 23 27 27 36 25 65 78 77 71 64 66 72 76 75 73 71 65
30 24 25 18 28 29 27 17 21 18 17 12 14 19 18 9 8 14 16 1 5 1 5 2 8 22 22 21 26 37 26 34 47 65 69 69 63 59 54 50 60 81 84 82
17 11 10 20 22 16 14 14 15 15 17 14 12 15 15 8 6 7 14 9 3 6 5 6 4 9 26 24 27 36 42 31 43 50 54 62 63 59 62 61 64 60 68 77

GFSNGP_500_spd_069.txt.gz
Wind_Speed
36 37 40 42 42 42 43 45 46 47 46 45 42 39 37 36 37 39 40 40 40 40 39 37 37 35 37 37 38 38 40 38 36 38 37 35 36 35 33 30 28 27 25 23
32 35 37 38 40 41 43 45 46 48 47 47 47 45 42 39 39 39 40 41 43 44 45 46 44 40 38 39 40 40 40 39 39 41 40 41 39 38 36 34 33 31 27 26
24 27 31 35 38 39 40 40 42 46 47 48 48 48 47 45 45 44 44 43 44 43 45 50 51 48 42 43 46 50 48 40 41 43 42 40 42 42 40 38 38 35 33 31
21 26 29 28 30 35 40 42 42 42 44 46 48 48 49 49 49 46 48 48 47 47 47 49 52 53 50 47 52 50 48 44 39 39 39 43 44 42 42 43 42 40 38 36
23 24 28 31 32 32 32 36 43 46 46 45 47 47 48 50 51 51 51 52 52 52 52 52 54 56 52 48 50 47 36 40 40 43 40 39 39 43 46 45 44 44 43 41
24 22 25 28 30 35 36 39 41 41 43 47 51 54 55 53 55 55 56 56 58 58 58 59 59 60 59 56 52 51 50 48 45 50 47 45 44 42 43 45 46 46 44 43
24 25 26 28 33 37 39 40 43 46 45 46 48 51 54 59 63 62 61 62 60 66 67 65 65 65 65 63 60 59 57 61 50 52 51 49 53 50 48 47 44 46 46 44
21 21 21 23 27 31 34 36 38 41 44 45 45 47 53 60 61 65 69 69 69 66 71 74 71 70 69 68 68 64 62 58 54 50 46 48 52 54 52 48 44 41 43 46
17 15 15 18 21 24 27 31 34 38 42 45 49 52 54 54 57 68 72 72 75 75 72 73 80 78 76 74 72 68 67 64 58 55 45 55 57 59 54 50 46 44 40 40
12 9 10 12 13 16 19 22 26 30 35 38 38 42 49 53 58 60 63 73 80 80 81 78 77 82 81 80 78 74 69 67 61 56 54 58 62 61 57 54 48 45 42 40
19 18 17 16 16 16 17 22 26 28 29 32 35 39 41 43 52 56 61 63 67 78 85 85 83 82 84 87 85 81 76 73 67 61 52 54 62 61 57 55 51 47 45 44
25 24 21 21 24 26 27 25 26 30 32 34 36 38 40 43 46 51 56 56 56 58 69 87 90 88 87 87 87 86 82 75 71 66 60 62 55 55 56 58 57 53 49 48
25 28 26 24 26 26 28 30 32 35 35 35 37 41 42 42 43 46 50 54 54 55 56 59 87 96 92 92 91 90 88 83 69 72 68 64 59 56 50 53 64 58 54 52
26 27 27 26 26 27 30 33 38 39 40 39 37 37 39 42 40 40 45 49 52 52 51 53 58 89 99 95 96 93 93 90 83 74 74 70 68 64 60 59 63 62 57 57
24 25 26 27 28 29 32 36 39 40 40 38 37 32 34 34 35 37 40 42 44 48 49 50 49 62 90 99 98 98 96 96 92 79 78 75 73 69 61 54 57 47 48 50
24 25 27 28 30 30 32 34 35 36 35 35 36 37 37 33 31 35 36 39 40 45 46 46 46 47 66 84 98 100 99 99 98 92 85 81 77 73 65 63 51 53 46 47
23 27 31 27 27 28 25 26 27 30 33 33 32 33 35 31 28 30 35 34 39 41 42 44 45 48 46 64 82 96 101 101 100 98 89 86 82 80 72 71 64 60 55 56
26 30 33 29 28 24 22 23 26 28 31 33 31 31 29 27 27 27 32 32 33 38 42 39 39 36 33 36 58 77 95 100 103 102 100 93 87 85 82 81 72 69 61 57
25 27 29 31 30 29 29 30 26 28 31 31 28 27 27 25 24 24 29 31 30 31 39 40 37 40 41 40 39 52 73 94 100 103 101 99 96 89 87 83 80 72 68 60
24 26 27 30 35 35 38 39 33 28 28 26 24 26 27 24 23 22 25 28 27 29 33 40 39 41 44 45 45 41 56 76 94 100 104 101 97 94 90 88 78 79 74 69
28 30 30 31 30 32 29 37 30 25 25 23 22 26 28 26 22 21 22 25 27 27 28 35 40 39 39 44 43 47 52 62 80 93 99 105 104 98 95 94 82 69 74 76
32 33 34 35 34 34 35 29 19 22 22 19 20 27 27 26 24 21 19 20 23 27 26 27 35 34 29 31 34 27 24 36 67 82 95 97 105 104 101 93 88 78 75 74
35 37 36 37 38 34 33 30 25 23 26 24 22 27 29 22 23 22 21 17 19 20 25 23 29 27 25 21 24 30 29 27 36 60 85 96 99 100 101 100 96 91 84 76
37 36 35 33 31 34 35 29 35 30 25 21 20 25 29 23 21 21 21 15 17 14 13 17 20 23 22 21 24 18 21 27 32 32 44 85 96 97 98 99 98 99 91 89
37 36 38 32 29 30 34 30 35 33 25 20 20 23 26 25 19 19 19 17 12 15 13 12 16 18 15 18 22 21 22 12 18 24 34 40 87 95 92 90 86 84 87 85
34 31 24 10 10 12 18 34 30 26 20 16 18 18 17 19 19 14 15 15 9 11 11 12 9 12 15 16 18 19 18 23 26 16 31 32 60 82 83 80 79 77 76 73
30 19 8 7 5 11 14 14 13 10 11 14 16 18 16 14 20 14 11 13 11 5 6 10 7 5 10 18 16 18 16 19 20 23 7 26 37 62 68 70 69 66 65 65

GFSNGP_500_spd_072.txt.gz
Wind_Speed
37 39 39 40 41 42 44 45 44 39 45 41 37 37 37 38 38 40 40 39 37 36 35 33 37 37 33 34 35 35 34 34 35 38 37 35 34 32 31 29 29 28 26 23
30 30 35 39 40 43 44 45 46 52 46 43 43 41 41 40 40 41 45 45 44 43 42 41 38 37 34 34 43 39 38 38 39 39 41 41 37 35 35 33 31 30 27 26
31 30 32 34 37 39 43 44 48 48 49 46 46 45 44 44 44 44 45 45 47 48 47 46 44 42 43 41 36 32 41 39 41 41 42 45 45 42 39 37 36 34 32 29
29 26 31 35 35 37 40 40 44 46 47 47 47 48 48 48 47 47 47 47 48 48 49 49 51 49 46 46 44 41 37 41 45 46 46 47 48 46 44 42 40 37 37 35
24 24 28 28 29 34 37 41 43 44 45 46 47 48 51 51 51 51 52 52 51 50 50 50 50 51 50 46 48 48 47 45 51 51 56 51 50 44 43 44 43 42 41 39
29 29 28 32 30 33 34 37 38 42 46 47 47 48 56 52 53 55 56 56 56 56 56 55 53 53 54 52 50 51 52 52 51 45 55 53 53 48 47 47 45 42 42 41
33 32 31 25 23 30 36 41 39 40 41 43 46 49 55 53 54 55 56 59 60 60 61 60 59 58 57 57 56 54 54 53 55 52 49 43 49 44 44 43 43 42 42 43
27 28 29 29 29 30 32 35 39 42 45 45 46 47 50 50 52 55 58 59 61 62 64 65 65 64 63 62 60 60 59 59 59 57 50 48 45 47 46 46 45 42 41 39
21 23 27 28 27 27 28 31 37 39 44 47 49 50 52 54 54 56 56 58 59 63 66 67 70 71 70 69 67 65 64 64 63 61 59 59 55 52 50 51 50 49 46 43
14 16 19 20 20 22 24 26 28 30 34 39 43 45 48 51 54 56 57 57 60 63 66 68 71 73 75 75 74 72 71 68 68 67 64 63 59 56 50 44 46 52 53 48
17 17 17 16 16 17 19 21 23 24 24 28 31 35 39 45 48 51 55 59 62 65 67 69 72 74 77 79 80 79 77 77 74 72 69 68 61 60 55 50 49 51 51 51
23 25 26 26 25 25 24 24 26 29 28 28 28 31 35 37 40 42 48 55 56 58 63 67 69 72 78 80 82 85 85 83 82 80 77 75 72 65 62 56 57 50 54 51
29 29 30 29 28 29 31 30 29 29 32 33 32 30 31 33 37 39 40 42 50 55 56 60 64 67 70 75 82 86 88 89 88 87 85 83 77 70 66 62 59 54 56 55
30 30 28 29 30 32 34 34 34 34 34 34 39 43 44 49 48 49 49 46 46 52 55 57 62 63 66 67 70 82 90 90 93 94 92 88 85 78 73 65 59 61 64 57
27 25 25 29 29 32 33 33 35 35 36 38 39 43 48 50 49 48 48 48 48 50 54 56 59 61 64 65 64 67 78 88 94 97 99 95 92 86 79 71 64 65 59 57
26 25 28 30 31 32 31 33 36 37 38 37 40 39 40 40 39 42 45 47 48 47 51 55 57 58 61 65 66 66 65 72 84 98 101 102 99 95 88 78 73 69 65 61
23 26 28 30 32 32 32 34 34 37 36 33 33 33 36 36 36 38 39 40 42 45 46 49 52 54 54 55 60 62 65 63 74 84 101 104 104 102 95 87 77 76 72 67
14 18 24 27 29 33 35 36 37 35 33 29 31 33 35 36 37 37 37 38 39 44 46 44 46 50 53 56 55 56 61 62 62 70 89 104 106 105 102 96 89 82 79 73
21 24 27 29 30 32 33 34 36 36 39 43 40 37 33 32 34 34 33 35 38 40 42 43 40 43 43 47 52 51 53 54 49 60 73 96 106 108 106 102 97 89 83 84
22 22 25 25 28 30 32 35 36 34 37 37 35 34 31 26 25 30 33 33 35 36 38 36 35 38 40 40 45 46 45 49 48 42 46 76 100 108 108 106 103 95 89 88
23 25 28 30 30 32 35 36 36 36 35 33 32 28 27 27 30 31 31 31 32 34 34 31 30 32 38 42 41 45 44 45 44 45 41 42 72 100 108 109 107 103 97 91
27 29 31 31 31 34 35 38 38 38 36 36 26 27 26 29 33 33 35 30 28 31 31 30 29 26 29 35 37 42 44 44 43 46 48 45 50 66 97 108 108 106 101 96
30 32 35 36 37 35 35 33 37 40 37 31 25 27 27 27 32 33 38 30 28 28 28 24 25 26 26 26 29 32 33 38 39 40 40 41 53 59 72 96 105 104 102 97
34 37 38 37 35 34 34 33 40 37 36 28 23 23 26 26 29 30 31 26 26 25 26 23 22 26 25 22 26 30 33 33 31 33 40 41 44 52 63 79 96 101 100 98
37 36 34 34 31 26 24 31 33 24 22 32 28 24 25 24 26 28 29 26 24 24 22 22 21 23 24 19 25 29 31 29 28 30 21 24 31 38 47 64 82 93 97 96
33 32 31 21 17 13 8 12 23 22 28 30 25 27 20 19 23 25 26 21 20 23 19 18 19 19 19 19 19 21 20 21 23 23 21 29 30 37 37 39 64 86 91 91
32 31 27 12 9 4 11 9 13 24 24 23 19 13 15 19 21 25 22 21 18 21 17 13 15 17 17 17 20 19 19 19 16 17 23 21 21 29 40 38 36 72 85 86

GFSNGP_500_spd_075.txt.gz
Wind_Speed
37 39 34 30 48 47 46 41 25 37 43 49 41 40 35 39 41 41 39 40 38 37 35 31 26 21 31 27 29 30 28 28 28 29 32 32 29 27 27 26 24 25 24 21
41 43 47 46 47 51 49 46 43 27 46 50 48 44 38 39 41 42 44 44 42 40 39 36 37 32 29 24 32 34 32 30 33 32 32 33 35 34 32 30 28 27 26 24
18 34 47 49 52 43 44 46 42 37 58 47 42 43 41 40 41 43 45 47 48 47 45 43 41 40 38 36 41 34 33 37 39 37 36 36 37 39 37 35 35 33 31 29
22 28 28 32 42 46 40 47 44 52 56 53 51 47 43 44 44 44 44 46 48 49 49 49 48 47 46 44 44 45 34 32 34 43 39 38 37 38 40 40 37 37 36 35
29 27 22 32 32 33 36 43 39 44 48 49 48 49 49 50 48 48 47 49 49 49 50 52 53 51 50 49 48 45 43 39 39 31 41 40 38 38 38 41 42 40 39 39
28 30 25 31 29 29 32 40 38 44 45 46 46 47 56 50 51 50 50 50 51 51 52 52 52 53 54 54 54 52 50 48 44 44 38 39 46 43 43 43 44 46 45 44
28 29 31 31 24 25 29 37 34 38 41 44 49 52 52 50 52 54 55 55 55 56 56 56 55 55 56 56 55 54 53 52 50 48 46 45 44 36 45 42 49 48 47 48
35 37 38 34 31 33 32 32 36 35 37 38 39 41 48 52 50 52 55 58 59 60 61 61 61 61 60 59 58 56 56 56 54 52 52 52 51 47 43 42 52 55 53 49
33 40 41 41 37 37 36 34 34 36 37 40 41 42 44 47 46 46 50 55 59 60 62 64 66 66 65 65 64 62 61 59 59 58 56 55 53 50 46 41 38 39 47 48
24 28 31 35 36 38 39 38 36 37 39 41 41 42 44 48 49 49 49 50 52 55 58 62 65 67 69 70 71 70 68 66 65 63 62 60 57 55 54 51 48 51 48 52
24 23 25 29 32 33 34 34 35 35 35 35 37 39 43 47 49 51 53 52 54 56 57 59 62 64 68 70 73 73 74 73 71 70 68 66 65 62 59 59 55 58 51 45
27 30 28 27 27 28 28 28 29 30 30 31 32 33 34 38 41 44 49 52 52 53 55 57 60 63 66 68 70 73 75 76 76 76 75 74 71 68 67 64 63 62 57 53
31 35 34 34 32 33 34 33 32 33 33 34 35 36 37 37 39 41 42 46 47 44 45 51 56 63 65 67 71 73 74 76 78 78 79 80 80 77 73 70 69 68 63 57
31 33 32 38 37 37 38 38 37 37 39 38 37 37 38 40 42 42 44 45 47 48 50 52 53 60 66 67 69 69 72 74 77 80 81 81 83 83 82 78 75 73 71 66
28 36 36 38 41 37 37 38 38 41 42 43 44 43 43 44 45 46 48 49 52 57 61 60 59 60 62 65 66 67 68 69 71 74 79 83 84 85 86 85 83 80 76 73
21 25 31 31 33 34 36 36 36 35 37 41 43 43 42 43 45 48 49 52 55 58 56 56 59 61 62 62 65 68 67 66 66 68 70 76 81 85 87 89 89 87 84 79
15 16 25 24 25 26 29 32 33 33 36 38 39 41 42 42 43 46 47 50 52 55 56 53 54 59 63 66 65 67 70 68 65 64 68 67 71 78 82 87 92 93 90 87
15 18 18 19 22 21 24 27 29 33 35 37 39 41 40 41 44 46 47 49 50 50 51 51 52 52 55 60 63 65 67 69 68 65 64 67 70 69 70 75 83 93 96 94
16 19 21 25 29 31 32 32 33 34 35 37 38 39 41 43 46 47 47 44 43 44 46 46 47 50 52 52 55 57 62 64 65 62 62 64 67 69 70 70 72 81 90 97
17 18 20 23 26 28 30 31 33 34 36 37 36 38 36 38 40 38 36 37 40 39 44 44 43 46 48 46 44 45 51 53 56 59 59 61 62 66 70 72 73 72 79 92
22 23 25 26 27 29 31 33 37 38 38 40 39 38 34 36 37 35 33 35 31 36 42 40 39 39 44 41 38 40 43 46 50 52 54 57 60 61 62 69 71 73 77 84
26 26 29 31 33 35 35 35 38 39 38 40 42 37 31 32 30 32 34 36 38 37 41 37 34 36 38 34 31 31 38 42 43 47 49 53 54 51 52 55 58 58 57 71
29 30 32 34 36 37 38 39 36 38 39 39 46 37 36 33 32 31 33 31 35 37 42 35 32 32 29 28 27 24 27 32 38 41 45 48 49 50 53 56 61 65 60 54
30 33 36 37 37 36 35 34 34 34 32 37 45 36 32 30 33 30 29 31 37 36 41 38 31 30 23 24 24 24 25 27 29 32 34 37 41 43 45 51 53 59 59 55
33 34 31 30 28 29 32 33 32 33 34 27 32 32 30 32 26 27 28 32 33 35 42 37 29 28 21 20 22 22 20 23 26 29 30 33 36 42 39 40 47 56 59 57
30 28 25 22 22 20 20 16 16 22 32 38 39 36 32 29 24 27 29 31 33 35 35 36 28 25 24 20 19 20 16 18 21 25 27 31 30 35 39 42 47 46 50 49
25 23 21 16 9 6 5 6 9 5 21 20 18 16 22 27 24 22 23 26 31 32 31 28 26 22 19 22 17 17 16 15 17 20 20 22 24 30 37 44 46 46 44 40

GFSNGP_500_spd_078.txt.gz
Wind_Speed
30 30 32 27 38 45 50 48 31 34 45 37 29 30 27 29 30 37 39 39 39 39 37 35 34 35 26 35 33 27 22 28 23 27 30 24 27 24 23 22 21 20 20 19
51 33 35 35 23 33 44 48 23 45 39 42 47 38 36 36 32 38 42 43 43 42 42 40 40 36 32 34 24 27 27 26 28 27 16 27 31 28 26 24 24 23 22 23
47 40 40 45 48 46 50 47 32 30 36 55 42 48 43 41 39 37 45 46 46 44 44 44 44 43 41 38 33 27 30 24 31 32 31 26 27 28 30 30 29 26 26 26
13 23 54 45 47 54 55 27 36 49 34 42 53 47 44 42 48 44 43 49 49 49 48 48 47 46 43 40 43 37 32 26 28 33 34 32 32 34 32 34 34 30 29 29
26 23 20 35 47 50 40 33 44 52 57 57 54 53 52 45 46 46 46 44 48 50 51 50 51 50 46 44 44 43 41 39 37 33 34 23 37 35 35 35 34 34 33 31
31 32 26 30 27 33 46 52 50 43 49 58 61 54 53 56 54 50 47 47 49 49 50 50 51 51 50 49 49 49 47 44 45 42 39 40 29 28 39 36 36 35 36 36
26 29 28 28 28 32 32 35 36 45 53 52 58 55 61 57 52 55 54 53 53 53 53 52 52 52 52 51 51 51 53 52 51 48 46 41 40 36 33 41 41 37 37 36
26 26 28 39 42 35 34 32 32 32 35 45 46 43 51 58 52 50 53 55 55 55 55 55 55 55 55 55 54 53 53 53 52 52 52 49 46 45 44 41 40 35 42 39
29 34 37 40 38 35 33 33 34 35 35 37 38 38 44 46 48 50 51 52 54 55 57 59 59 58 58 58 57 56 55 55 55 54 54 54 52 50 48 48 46 42 39 37
26 28 34 42 44 40 40 41 40 42 38 38 35 34 39 44 45 46 46 48 51 53 57 58 60 62 63 63 63 62 61 61 60 58 58 58 57 56 54 52 51 48 45 44
29 30 31 31 36 35 38 41 39 40 41 41 41 38 38 41 42 41 43 44 46 49 52 55 57 59 63 64 65 66 66 66 67 67 65 63 63 61 60 57 56 54 50 46
30 34 35 34 33 32 33 35 37 38 39 38 39 39 39 40 40 41 43 44 45 47 49 51 54 57 58 60 61 64 67 69 69 70 71 71 70 68 66 64 61 60 56 53
28 29 37 39 37 34 30 31 33 34 35 35 33 34 36 38 37 36 36 36 39 41 44 47 51 54 57 59 61 63 65 68 70 72 73 73 74 75 74 72 69 66 63 59
29 30 31 34 43 38 38 38 36 35 35 35 35 36 37 37 38 38 36 37 38 40 42 44 47 51 55 58 61 64 66 67 69 70 72 75 76 76 77 78 76 74 71 68
27 30 28 32 38 39 41 44 42 42 43 43 43 43 42 43 42 42 42 41 43 44 46 48 50 51 53 55 55 60 64 68 72 72 72 73 76 79 79 79 79 79 78 75
24 26 28 28 33 38 40 41 45 47 44 44 45 45 44 45 46 48 49 50 51 52 53 53 54 53 57 61 65 65 66 70 72 73 74 74 73 75 77 80 81 81 81 80
19 20 20 21 27 25 28 35 40 42 43 43 43 43 42 42 43 45 46 48 50 51 53 53 55 60 63 67 69 74 74 73 75 78 77 77 75 73 72 75 76 78 78 79
16 16 19 23 24 28 25 26 25 30 30 32 37 38 40 41 42 44 47 48 50 49 51 56 60 63 63 63 63 62 63 66 68 71 75 79 81 79 75 73 72 70 71 72
16 16 17 21 26 27 27 28 29 29 30 33 34 35 38 41 43 44 44 46 48 48 50 52 53 54 54 55 56 59 59 60 62 63 68 74 77 79 81 79 74 70 67 66
19 18 18 20 23 26 29 32 33 33 33 34 37 39 39 38 42 43 43 44 45 47 49 48 48 50 50 54 58 59 60 60 59 58 59 64 68 76 77 79 78 72 69 66
25 25 24 28 28 28 29 30 31 35 36 33 37 42 35 39 43 43 42 39 39 37 41 42 42 41 47 51 56 55 53 55 49 50 52 55 56 60 69 75 77 76 71 67
28 29 30 30 33 35 36 37 37 38 40 41 42 44 39 36 46 49 38 35 33 33 36 42 40 40 43 47 49 45 45 47 44 41 43 48 49 54 57 63 68 69 69 67
29 31 33 35 35 37 39 41 42 42 44 45 44 45 43 41 32 36 36 34 34 33 32 34 35 39 42 49 44 41 40 40 39 38 38 41 42 43 48 51 57 61 63 64
31 32 34 37 39 40 41 41 42 44 44 46 46 44 41 39 36 49 37 30 31 32 34 37 38 41 47 51 41 38 32 32 34 34 33 32 33 37 41 46 49 51 55 60
31 33 31 32 32 31 30 33 34 36 35 36 37 38 40 34 44 38 30 28 26 28 31 33 36 40 50 42 39 31 23 26 27 26 25 24 24 27 31 36 41 44 50 55
31 29 27 23 25 21 18 16 18 18 18 19 25 26 31 42 36 22 23 21 25 24 28 32 36 42 51 36 36 27 20 23 21 20 21 22 21 21 26 29 32 35 40 46
29 26 22 18 19 11 12 2 3 5 2 8 18 17 14 17 21 22 27 26 28 26 26 33 36 45 34 34 31 24 21 17 18 17 16 18 20 20 22 27 32 38 44 49

GFSNGP_500_spd_081.txt.gz
Wind_Speed
34 34 34 44 52 50 47 48 44 44 36 35 30 26 30 26 26 32 29 30 30 29 29 28 26 29 26 23 23 36 35 32 34 29 30 33 32 29 26 22 20 19 19 20
43 32 33 33 36 46 44 40 43 55 54 42 41 28 21 29 27 28 31 31 32 31 31 32 33 33 33 32 31 17 25 30 29 39 25 40 28 35 31 26 24 22 20 20
48 46 37 37 34 34 43 40 54 59 61 59 42 31 30 34 29 29 28 28 32 34 34 35 36 38 38 38 35 28 21 32 27 23 27 32 37 25 28 30 27 27 26 25
47 48 43 31 44 39 39 43 54 57 55 61 61 58 39 31 34 39 35 30 30 36 39 40 41 42 42 41 40 38 34 37 29 30 29 31 31 27 30 29 30 31 29 28
41 48 43 43 41 46 41 48 49 54 57 57 52 43 48 46 45 41 40 39 37 35 39 43 43 45 46 44 42 40 39 37 39 31 26 25 20 28 33 31 33 36 35 31
28 40 38 34 45 47 37 45 48 53 52 60 62 58 53 50 42 41 39 38 40 42 43 44 47 49 50 50 48 46 43 42 38 36 39 37 28 26 25 25 35 34 35 34
26 31 35 37 30 31 44 46 50 50 47 51 60 66 62 55 51 48 46 49 46 47 45 48 49 48 50 51 48 48 47 47 45 44 42 42 38 34 33 34 24 32 36 36
23 25 34 35 36 42 34 31 37 43 44 49 56 59 58 62 64 54 52 52 56 57 57 54 51 52 52 51 51 49 48 47 47 47 47 47 44 42 39 36 35 34 31 37
19 25 31 31 35 37 42 37 30 33 36 36 37 45 51 62 63 62 65 65 64 62 61 60 59 57 56 55 54 53 52 51 49 49 49 49 49 46 44 42 38 39 40 36
25 26 28 31 36 37 36 36 37 39 38 38 39 39 40 42 44 55 64 62 59 61 61 61 62 59 58 57 54 54 54 54 54 52 51 52 52 52 49 49 46 43 43 42
26 31 34 34 31 33 37 40 42 43 42 45 44 42 40 39 41 39 41 42 45 48 52 56 59 60 59 58 56 55 54 55 56 57 57 56 56 56 55 54 54 51 49 47
26 25 30 34 38 37 33 32 35 37 41 43 46 46 44 42 42 42 39 38 40 42 44 46 48 50 52 54 54 55 55 56 56 56 59 60 60 61 62 61 60 58 56 55
30 29 37 34 34 39 40 34 34 33 34 35 37 41 42 44 44 45 43 40 41 41 42 43 44 46 47 48 49 51 52 54 55 57 58 59 60 62 63 67 67 66 64 62
31 34 34 34 33 33 34 35 37 36 34 32 33 36 39 40 42 43 44 42 41 43 43 43 44 45 46 47 48 49 50 52 53 54 56 59 62 64 66 66 66 68 72 70
30 30 31 29 33 34 32 35 34 39 41 38 37 34 34 34 36 38 41 42 40 43 43 41 42 43 43 43 45 46 49 52 55 59 61 62 64 65 68 69 70 71 71 73
27 28 29 27 30 32 30 33 31 33 38 41 42 42 42 41 40 42 42 42 44 45 45 45 46 46 46 47 48 50 53 55 58 62 63 66 69 71 72 72 73 73 74 75
24 25 26 26 28 26 26 25 27 31 38 40 40 40 43 45 41 42 44 44 44 46 46 47 49 52 53 51 52 55 57 58 59 64 68 68 70 74 77 81 80 78 78 76
27 24 22 22 22 20 24 31 35 31 27 32 39 38 39 41 41 41 41 42 41 41 44 45 48 49 50 52 53 55 58 61 64 65 70 74 76 78 80 78 81 85 84 80
26 25 21 21 20 22 24 28 27 25 29 25 23 25 29 32 30 34 39 41 41 42 43 44 46 49 52 54 56 59 62 64 65 67 67 67 69 70 71 73 74 74 79 87
26 29 28 24 23 21 21 27 26 26 29 31 30 31 32 31 34 35 38 39 41 41 42 42 43 45 48 50 51 53 55 58 59 63 67 70 71 72 72 75 75 74 72 73
29 27 28 28 28 27 30 32 31 31 33 36 41 36 36 38 35 36 35 34 36 38 40 40 40 41 41 40 41 44 49 54 57 62 65 64 66 67 67 69 72 73 73 73
28 28 28 29 30 31 33 35 37 38 39 40 41 40 38 39 37 38 35 44 34 45 42 40 38 37 37 38 40 44 45 51 56 63 64 62 56 50 49 53 57 60 64 68
29 30 30 30 32 34 37 39 41 43 43 43 43 44 44 44 41 39 38 39 38 43 47 40 34 35 36 35 38 41 47 53 57 63 56 54 50 45 42 46 49 50 51 54
29 29 30 33 35 37 38 40 41 42 44 44 46 47 47 46 47 44 42 40 40 40 37 37 33 32 33 35 38 44 49 52 60 52 48 46 43 42 42 45 45 45 46 48
30 29 31 34 32 29 31 30 29 30 32 33 35 36 34 39 42 43 43 36 35 42 40 33 30 28 31 34 37 40 45 54 50 41 37 39 37 38 36 31 29 29 31 34
28 30 32 27 22 22 16 17 11 15 11 13 18 23 30 32 30 30 34 35 33 37 31 22 23 25 28 31 39 40 50 47 44 33 30 31 30 29 28 26 25 24 25 27
28 29 28 24 23 20 17 13 9 9 9 5 3 6 13 15 17 23 22 26 21 20 22 24 23 27 29 34 38 46 40 40 38 33 30 24 22 22 23 24 24 25 25 25

GFSNGP_500_spd_084.txt.gz
Wind_Speed
40 48 42 47 50 49 55 55 57 53 49 48 40 38 34 26 22 23 27 28 26 24 25 24 24 24 20 20 28 28 32 37 28 24 27 30 31 31 28 27 26 25 24 23
50 43 50 49 54 51 44 52 49 53 55 51 48 39 38 32 29 26 23 29 30 27 25 28 26 29 28 26 33 22 26 35 32 26 26 29 29 32 35 36 32 29 28 26
43 47 37 38 45 45 50 48 54 44 48 58 54 42 31 27 19 28 25 25 29 30 28 27 30 30 32 30 32 29 27 21 15 36 32 32 31 37 36 34 37 32 33 31
34 45 40 40 37 37 37 46 51 56 54 55 60 55 47 35 25 30 30 27 29 30 28 26 28 31 31 32 32 30 25 25 32 23 20 32 24 30 39 32 42 38 36 34
34 38 40 40 39 41 41 40 43 46 51 56 54 53 50 47 47 45 41 36 37 35 35 33 30 31 32 33 35 35 30 30 32 30 31 34 22 29 30 25 33 37 35 35
30 36 40 37 42 51 29 43 55 52 53 54 58 60 58 52 41 34 35 43 45 39 38 39 38 34 33 34 36 39 38 35 34 34 31 29 34 20 15 27 33 34 37 39
23 25 31 35 35 43 49 40 41 44 47 44 42 43 46 54 50 47 45 42 41 40 41 41 42 42 41 40 40 40 41 40 39 39 38 35 33 33 38 34 27 25 26 36
19 23 27 27 32 37 33 36 44 49 44 43 44 45 48 50 49 45 45 48 48 43 43 43 43 44 43 41 41 43 43 43 40 41 41 39 36 36 33 34 32 37 36 34
16 20 24 27 29 32 39 40 39 39 46 59 56 51 49 49 49 52 56 55 49 43 44 47 48 49 50 50 48 46 45 46 47 45 43 43 42 40 39 38 36 36 37 41
17 18 22 26 29 32 32 33 37 43 45 40 43 47 53 56 60 61 60 60 60 62 63 64 61 59 60 59 58 56 54 52 51 51 50 48 46 45 44 44 44 41 40 39
16 21 23 25 28 31 32 34 37 41 42 47 49 44 43 44 43 43 46 48 52 58 63 66 64 61 60 59 59 59 57 56 53 54 54 54 52 50 49 49 48 49 46 45
23 24 28 29 30 31 33 36 37 40 44 46 47 47 47 46 45 44 43 41 41 44 43 45 51 53 54 54 54 54 53 54 55 55 55 55 56 56 55 54 54 54 55 53
28 30 32 30 33 35 34 33 37 41 41 39 42 45 48 49 49 48 46 44 44 45 43 42 43 44 45 45 45 47 47 46 47 48 49 50 52 53 54 57 58 59 60 60
31 32 31 29 30 36 36 35 37 38 40 42 41 40 40 42 45 44 43 46 44 45 45 44 43 43 43 43 43 43 45 45 46 45 45 46 47 49 51 52 55 59 62 63
32 31 29 29 27 30 33 31 32 34 35 37 41 42 40 36 37 39 40 41 41 42 43 43 44 44 44 44 44 44 44 46 45 45 45 46 47 49 51 51 53 54 56 60
30 26 27 27 26 28 30 31 32 34 35 35 37 40 44 41 39 37 38 39 38 37 41 44 46 47 48 48 48 47 48 48 47 48 49 49 48 48 50 52 55 58 61 64
27 27 26 26 26 27 28 29 28 31 35 33 35 38 38 43 46 45 44 44 43 43 43 44 45 47 48 49 50 51 52 51 52 54 55 55 54 55 57 59 60 61 62 63
23 26 25 29 29 24 24 25 28 27 34 35 29 31 37 40 43 44 44 48 48 47 47 48 47 49 52 52 53 54 56 56 57 58 59 60 60 60 62 63 64 65 67 69
23 30 37 30 28 27 26 24 26 30 27 30 37 27 24 28 34 44 48 44 44 47 49 48 49 50 51 51 50 51 52 54 56 58 60 61 63 65 67 68 70 72 74 75
34 34 31 28 27 27 26 24 26 18 21 27 30 30 31 34 31 27 29 31 33 36 40 41 43 44 46 46 47 48 51 52 54 56 59 59 60 62 65 69 72 74 77 80
27 28 28 29 29 29 28 28 31 34 32 34 33 30 33 38 42 34 37 36 35 36 38 40 40 40 41 40 40 41 42 44 44 45 46 49 52 57 62 67 72 76 80 83
28 28 29 30 30 31 32 32 34 35 37 38 39 39 41 43 40 37 37 39 37 40 39 38 38 39 39 38 38 38 39 39 41 44 47 51 56 62 69 71 75 77 75 74
27 28 29 29 31 32 34 36 39 40 42 43 44 44 45 47 46 43 42 40 37 43 44 43 43 38 37 38 39 38 37 40 42 46 53 55 58 68 71 69 62 55 51 51
28 28 29 30 31 33 32 30 32 35 38 40 42 43 44 46 47 45 45 44 47 44 37 44 42 39 38 38 38 36 37 41 44 45 50 52 64 66 64 54 49 49 48 45
27 28 28 28 30 26 22 22 26 22 13 17 23 29 34 37 38 39 43 46 48 47 45 46 44 39 36 35 38 38 36 38 42 45 49 55 58 55 45 45 43 41 38 35
24 25 26 27 27 24 24 24 19 16 16 20 20 14 19 25 29 32 30 31 36 41 42 41 37 33 32 31 30 32 35 38 41 46 51 53 47 36 35 36 37 34 29 29
25 26 27 26 27 25 23 20 15 12 11 10 11 4 5 6 11 17 21 21 21 21 21 25 26 25 24 25 29 31 33 37 42 46 47 41 38 32 28 28 30 27 24 25

GFSNGP_500_spd_087.txt.gz
Wind_Speed
35 43 40 41 42 47 51 56 57 53 52 50 49 41 39 34 32 35 33 31 30 27 25 23 23 23 22 20 25 19 25 33 33 32 34 35 32 35 32 30 29 29 27 27
39 36 45 43 42 46 48 54 56 55 54 53 48 40 39 37 36 29 23 23 30 35 30 25 22 24 25 26 25 24 23 22 32 38 30 39 41 39 38 36 34 35 34 32
35 43 43 46 47 45 48 52 55 55 55 54 50 44 44 43 38 34 35 31 30 27 28 26 22 22 25 26 28 29 25 25 30 26 42 34 33 33 36 41 41 39 37 36
32 39 47 44 45 51 54 56 55 54 54 56 55 53 53 50 42 35 26 28 32 33 28 27 27 28 27 27 28 29 29 27 24 27 23 28 38 37 36 38 40 45 42 41
29 33 40 46 45 39 48 52 52 46 48 49 51 48 52 53 49 43 33 29 27 27 26 27 26 27 28 26 26 27 29 29 26 24 21 29 21 24 34 40 39 42 44 48
27 30 30 38 37 35 44 35 38 47 49 49 50 55 49 44 41 36 41 39 41 41 40 40 33 32 33 31 31 30 27 27 27 26 26 26 23 22 24 24 25 30 35 38
25 32 35 37 39 38 38 38 38 42 44 46 50 47 48 48 46 41 36 36 38 38 38 39 41 42 44 42 39 37 38 37 35 34 31 29 29 28 23 17 26 23 29 29
17 24 27 27 33 36 33 33 38 45 50 44 44 50 51 48 44 42 41 42 44 43 42 41 40 41 42 42 42 40 38 37 35 33 32 33 32 29 28 27 24 31 41 43
13 16 18 21 23 27 31 30 31 39 48 48 49 46 41 41 52 51 48 45 47 48 48 48 47 48 45 46 46 45 43 39 35 36 37 35 34 36 34 31 31 30 31 32
13 13 16 19 22 23 25 30 32 36 39 41 40 42 49 54 51 46 46 46 47 49 49 50 50 49 51 52 49 50 47 45 43 41 42 45 44 43 42 40 37 36 35 35
14 15 15 16 20 24 27 29 33 35 38 42 46 47 48 47 44 50 55 55 53 55 54 54 55 56 57 58 57 55 56 57 59 58 56 52 50 48 46 45 45 44 42 40
17 19 20 23 25 24 24 28 33 37 39 43 43 46 47 48 53 49 46 49 51 50 52 56 60 63 61 61 63 63 63 63 61 58 55 54 53 53 52 51 49 49 49 48
21 24 25 27 31 33 31 28 29 34 39 41 43 45 47 50 51 50 55 52 49 49 48 49 51 51 50 50 50 51 53 54 54 54 53 52 52 52 52 53 54 55 54 54
30 28 31 32 36 33 30 28 28 31 36 42 43 43 45 48 47 45 47 49 51 52 50 49 48 47 47 46 45 46 46 46 46 47 47 46 47 48 49 52 53 55 57 57
35 36 35 35 33 29 33 32 28 29 31 37 40 43 45 46 49 47 43 45 47 47 50 51 50 49 48 48 46 44 44 44 44 45 46 45 45 46 48 49 51 53 55 58
36 38 39 35 32 28 32 32 31 32 34 34 35 40 43 43 45 50 46 42 41 42 41 44 45 46 47 46 45 45 46 46 45 45 46 47 47 47 49 51 52 54 55 56
31 34 38 35 30 28 33 37 34 34 34 35 37 38 41 43 42 43 47 47 43 40 37 38 40 41 43 45 45 46 47 47 48 49 50 51 52 53 54 54 55 56 57 57
31 30 24 24 26 29 39 38 33 31 33 33 31 34 39 39 43 44 45 45 48 47 45 45 44 43 43 44 44 44 45 46 47 48 51 53 54 56 57 59 60 61 62 63
29 23 22 29 36 38 34 32 31 33 34 34 31 30 32 38 44 43 42 41 44 47 48 48 49 50 49 48 46 45 45 46 47 48 50 51 53 54 55 58 59 61 63 65
26 30 36 36 35 35 34 34 33 32 30 33 35 33 35 39 40 45 41 38 37 40 46 50 50 49 49 50 50 50 48 46 45 46 47 48 49 51 53 56 58 60 63 66
26 28 30 31 32 32 32 32 32 32 34 33 32 31 30 34 39 36 35 36 34 33 30 34 39 42 45 47 44 43 44 45 44 45 46 47 49 52 55 57 59 61 66 70
27 28 28 28 29 30 31 31 32 33 35 36 38 40 41 42 41 40 40 39 41 43 47 34 31 33 34 32 36 38 41 43 43 44 46 47 48 49 51 53 58 62 65 67
27 27 29 29 29 30 31 31 33 33 35 37 40 42 45 46 47 47 47 47 42 45 36 34 38 39 44 37 40 41 42 43 43 45 46 45 46 48 52 55 58 63 68 70
26 27 27 28 29 30 31 31 29 28 28 27 26 25 31 40 44 47 47 48 46 48 48 45 44 48 46 42 43 41 42 39 40 41 42 43 45 49 54 58 62 63 61 59
26 27 28 28 29 30 29 29 26 28 26 21 21 26 24 24 32 39 39 43 45 44 45 47 45 45 43 46 41 43 44 43 41 42 44 46 47 48 52 53 55 60 59 52
22 22 24 26 28 27 27 27 24 24 19 17 17 20 21 20 20 24 27 30 30 33 34 38 43 44 44 42 45 45 42 40 42 41 37 39 43 46 48 53 57 51 43 42
21 24 27 28 28 28 26 25 22 20 17 18 17 14 11 2 4 11 18 25 27 27 29 31 33 35 36 37 37 37 34 31 32 33 36 40 42 45 50 51 46 41 39 37

GFSNGP_500_spd_090.txt.gz
Wind_Speed
37 37 40 41 41 42 42 46 48 48 48 43 41 40 36 34 33 25 25 28 30 28 28 28 25 24 23 18 22 24 20 14 22 34 33 34 36 35 32 30 28 29 29 29
32 36 39 38 37 37 38 42 46 48 50 50 47 46 42 38 37 35 30 31 28 30 29 30 27 24 24 26 27 27 17 19 18 24 39 34 36 35 35 35 34 33 31 32
25 34 36 38 36 37 37 39 42 46 49 52 52 51 49 43 36 35 36 36 29 25 21 24 31 28 25 26 25 26 27 23 26 25 27 18 30 34 41 40 40 41 38 35
25 36 40 36 40 42 41 40 41 43 45 48 50 52 51 45 40 37 36 37 35 28 30 29 27 29 27 24 24 26 27 26 24 23 22 26 26 23 36 41 45 43 41 42
22 23 28 40 43 38 42 46 44 46 46 46 47 47 50 46 46 44 41 36 31 30 31 33 32 29 27 26 24 22 23 24 23 20 19 17 18 16 27 35 49 41 45 45
32 30 30 29 37 40 36 39 46 45 48 47 48 44 45 47 47 48 48 49 47 42 39 31 28 26 25 23 26 26 23 22 20 16 14 14 16 19 22 21 23 32 47 53
24 27 27 28 27 28 33 34 34 36 44 38 44 51 47 48 48 45 47 36 38 42 43 44 44 41 39 37 36 34 33 29 27 27 29 28 27 25 25 20 20 21 26 24
14 18 20 23 25 27 28 27 30 32 37 34 35 39 42 46 49 47 43 45 46 46 48 47 46 46 45 42 42 40 39 38 36 36 35 34 30 26 26 24 22 23 24 27
10 12 14 18 22 24 25 27 24 27 33 35 40 44 43 42 43 44 46 43 45 50 50 50 50 49 48 44 41 41 41 40 38 37 36 36 36 33 29 29 28 26 26 28
10 11 13 15 18 21 23 26 25 25 27 31 39 43 48 48 46 44 46 46 49 50 47 47 47 49 49 47 46 45 44 44 45 43 42 42 40 40 37 34 33 34 34 32
9 10 9 11 12 14 16 19 22 25 27 30 33 38 43 46 44 43 50 53 51 47 51 52 50 51 53 52 52 49 48 48 50 47 47 46 46 45 42 43 43 43 40 39
15 16 17 15 14 13 15 18 20 23 26 27 30 35 39 44 43 40 43 49 49 51 55 56 51 52 53 52 52 51 51 51 52 53 52 51 51 50 54 56 53 49 48 47
21 23 24 25 24 25 27 29 31 33 29 28 29 29 34 42 48 52 53 52 54 56 54 52 56 58 58 59 59 58 59 60 60 61 59 58 60 61 60 58 57 56 55 54
24 27 30 31 31 33 35 36 33 28 27 30 32 34 38 42 46 48 50 52 53 55 55 57 57 53 54 53 54 55 55 54 53 54 56 57 58 57 56 55 54 55 55 56
31 33 34 35 35 36 37 41 39 31 27 31 34 36 38 43 44 46 49 49 49 51 50 50 51 54 56 54 53 53 52 52 50 49 50 49 49 50 51 52 52 53 54 55
30 34 31 31 35 35 35 35 33 35 33 32 33 38 39 43 42 45 49 51 50 50 50 49 47 46 46 48 51 51 52 51 50 49 48 46 46 48 49 50 50 52 52 54
27 29 32 32 32 33 32 32 32 34 35 35 40 43 39 44 43 43 46 47 47 47 47 47 46 44 42 45 47 47 49 49 49 49 48 47 47 47 48 49 50 51 52 54
31 30 29 31 32 30 25 26 29 35 40 41 42 39 38 42 41 41 44 46 46 45 42 45 46 44 41 42 44 44 45 46 45 46 47 48 47 48 49 50 51 52 54 55
29 29 31 31 31 32 35 38 40 40 39 39 37 36 36 40 40 39 45 40 43 43 48 41 42 43 45 44 43 43 43 44 45 45 46 47 47 48 49 51 52 52 54 56
27 28 28 29 31 32 33 34 35 36 37 37 37 36 35 37 38 39 38 41 42 38 44 45 42 41 41 42 44 47 48 48 48 48 47 47 47 48 49 50 51 52 53 54
25 26 28 30 30 32 34 35 36 37 37 37 37 37 38 36 37 35 44 41 49 45 42 42 42 39 38 44 46 47 47 47 46 46 48 50 50 50 49 49 49 50 50 51
24 26 28 30 31 32 34 34 35 36 36 37 37 39 39 39 40 43 44 43 38 44 47 40 36 38 35 35 35 37 35 38 40 40 41 41 41 42 43 45 45 46 48 50
25 27 28 29 30 31 32 33 33 33 33 34 34 35 38 38 41 45 47 47 49 46 36 39 39 39 39 38 37 34 30 33 34 33 34 35 37 39 41 43 45 46 47 50
25 25 27 27 27 29 31 32 33 32 30 30 31 34 35 34 33 32 38 44 48 46 49 44 42 40 33 45 41 38 42 40 38 37 37 39 41 41 42 45 47 49 52 55
24 23 24 26 29 31 33 33 32 29 28 27 29 27 23 24 27 31 29 26 33 42 45 45 45 46 48 42 39 45 42 42 43 40 42 42 44 46 47 50 52 54 58 59
22 24 27 29 32 33 32 31 30 27 23 23 23 20 16 18 20 27 28 26 27 31 35 35 39 40 42 41 40 41 43 44 42 44 44 44 45 47 49 50 52 53 53 53
21 25 27 30 32 32 33 29 22 18 18 18 18 14 15 11 7 6 5 8 15 18 22 26 29 27 29 30 34 38 40 41 41 41 42 42 43 42 43 45 47 47 50 55

GFSNGP_500_spd_093.txt.gz
Wind_Speed
34 36 37 37 36 37 40 41 40 40 38 36 34 30 28 29 26 24 26 25 22 23 25 25 26 24 25 27 28 34 34 33 24 21 23 26 30 34 34 33 31 29 29 28
29 33 36 37 36 37 37 36 37 39 39 38 39 36 34 31 33 33 31 27 24 23 28 29 29 27 26 23 28 33 20 28 13 9 14 27 32 37 36 34 33 33 33 33
42 30 34 36 38 39 39 37 36 35 35 36 40 40 40 39 36 36 35 34 31 28 27 30 31 32 29 26 27 24 24 20 17 14 15 17 26 34 35 37 36 37 38 38
28 36 33 34 37 34 36 37 36 36 34 32 33 38 39 41 43 40 37 34 32 33 33 34 29 27 25 20 24 25 23 22 17 18 21 20 14 16 25 26 27 38 42 42
22 24 30 38 35 33 35 34 34 35 36 36 35 33 34 35 37 39 40 39 36 34 35 35 33 30 30 31 22 25 26 21 17 17 19 17 16 17 14 17 21 18 31 41
21 19 18 27 32 37 36 36 36 41 41 39 39 37 38 39 38 37 36 37 39 40 37 30 30 34 35 35 32 30 28 23 20 16 13 13 14 12 13 12 13 15 17 19
25 25 28 30 28 29 31 36 37 34 35 38 44 41 41 42 41 41 39 36 37 39 44 44 42 38 32 34 35 32 30 26 23 23 23 22 22 21 21 20 21 21 22 21
20 20 22 23 26 28 29 30 31 35 36 36 37 37 40 43 43 45 44 41 40 41 38 43 43 43 44 44 40 38 34 37 34 33 33 32 31 30 28 25 25 25 23 21
11 12 13 16 19 20 22 26 26 26 29 33 36 37 37 38 37 38 39 43 44 44 42 43 43 45 44 46 46 47 49 48 44 39 38 38 38 36 33 32 31 30 29 27
8 10 11 13 14 15 18 20 21 23 24 27 35 37 39 39 41 42 42 43 42 43 46 44 46 48 51 52 52 47 47 46 46 43 43 41 41 41 38 38 36 36 36 35
7 8 8 9 10 11 13 15 18 20 22 25 29 33 35 38 41 42 44 47 47 46 45 46 48 50 53 54 53 51 47 48 49 49 48 46 45 46 46 46 45 44 43 43
11 9 11 12 13 13 14 15 15 15 16 18 22 27 31 35 39 42 43 45 45 43 46 47 50 50 49 52 54 55 54 53 53 55 54 54 52 51 52 49 49 50 51 50
12 14 15 15 17 18 21 24 25 24 24 24 25 26 29 33 35 37 38 41 42 42 46 56 56 58 57 54 57 57 58 55 57 58 59 59 56 51 50 50 53 55 56 59
22 23 23 24 25 26 26 28 32 33 34 35 33 33 32 33 35 36 36 39 41 44 53 57 58 56 54 55 57 60 60 61 59 58 58 58 57 57 57 57 59 59 60 61
19 20 23 26 30 33 34 33 32 35 37 38 39 39 39 39 32 31 34 38 40 43 48 53 56 55 55 55 56 58 59 58 60 61 61 59 59 58 58 58 57 58 59 63
23 25 29 32 31 29 30 33 35 36 37 37 36 36 39 38 35 34 36 39 40 42 46 48 51 52 52 52 53 53 56 58 60 58 56 54 54 53 54 53 54 54 54 55
28 29 28 27 29 30 31 30 32 34 32 31 31 35 39 41 41 41 42 42 44 44 48 47 46 47 49 51 52 50 48 49 51 55 57 56 56 55 54 53 52 51 50 51
26 27 28 30 30 28 30 31 31 31 32 33 33 35 38 41 45 46 44 44 44 45 47 46 46 44 44 44 44 45 45 45 44 45 48 52 54 54 53 52 52 52 51 52
27 27 28 29 29 29 30 30 32 34 35 37 38 39 41 42 42 42 42 43 44 44 43 43 45 44 43 43 42 42 45 44 43 43 45 47 48 48 48 49 49 50 51 53
27 28 28 28 28 29 31 33 35 35 36 37 37 39 41 41 41 41 42 42 42 43 45 43 44 41 44 42 44 42 41 46 44 41 42 44 45 46 46 47 49 49 51 52
27 26 25 26 30 32 33 33 34 36 37 39 40 40 41 42 42 42 41 41 41 43 42 41 48 40 40 41 40 37 40 39 41 44 45 46 47 48 48 49 49 49 49 50
23 23 25 28 30 31 32 33 33 35 36 38 40 40 41 42 43 43 43 42 42 42 43 40 48 49 50 46 42 34 39 39 39 43 45 46 47 47 48 48 48 49 49 49
23 23 26 27 29 29 30 33 35 37 38 40 39 40 40 39 40 40 40 41 43 44 45 47 52 38 50 56 45 37 36 39 36 34 35 37 36 37 41 44 44 43 43 44
23 24 25 25 27 31 34 36 39 41 40 40 38 35 34 35 36 37 39 40 41 40 41 45 46 54 35 41 47 44 49 45 39 41 40 38 34 33 34 36 37 39 40 41
22 21 22 25 29 32 36 39 40 38 35 32 30 29 30 30 30 27 25 26 27 31 28 31 41 44 46 47 38 39 33 41 44 39 42 41 41 37 39 39 39 41 43 46
20 19 23 26 31 36 40 29 28 24 21 22 24 26 27 25 19 20 21 25 26 28 29 27 26 32 36 30 42 37 37 39 38 41 39 37 36 37 39 41 43 45 47 50
18 20 23 28 33 34 25 26 25 22 20 20 22 23 23 17 12 11 10 8 12 17 20 21 24 23 26 29 31 30 35 36 36 37 38 37 38 39 42 44 46 48 49 50

GFSNGP_500_spd_096.txt.gz
Wind_Speed
34 29 36 36 35 35 35 29 24 22 27 32 31 24 25 27 27 22 23 27 26 28 27 23 22 25 26 21 31 25 20 23 26 25 31 33 33 31 33 34 32 29 27 26
30 34 33 32 31 32 34 35 35 35 30 28 30 29 27 28 29 28 26 25 23 22 23 20 20 22 22 25 25 21 20 26 26 35 38 28 30 32 32 33 33 33 30 30
32 32 30 30 34 34 35 33 33 29 36 35 33 30 30 31 30 31 32 31 28 26 22 19 23 27 28 28 29 27 26 23 24 23 18 10 16 23 24 34 33 33 32 33
26 35 33 32 34 35 36 35 36 35 34 32 31 31 31 32 33 33 34 35 36 35 32 30 29 28 28 28 25 26 28 25 20 20 28 20 13 15 16 12 20 16 26 34
21 25 34 30 37 34 33 37 37 36 35 35 33 32 32 30 32 35 36 36 37 36 36 36 35 36 33 30 26 25 22 21 19 15 17 15 15 17 17 14 16 21 16 22
16 20 20 30 36 33 30 35 36 35 35 35 35 33 38 37 36 37 37 36 35 37 38 38 36 37 38 37 34 30 28 27 24 20 19 19 20 22 20 18 15 11 14 13
20 20 25 22 25 30 30 36 35 35 36 37 38 38 37 39 40 40 39 38 37 36 37 39 40 39 37 35 36 35 35 33 31 26 24 22 18 18 20 18 18 17 18 16
22 24 25 21 22 26 29 29 29 32 37 39 38 36 39 41 41 42 43 41 41 40 40 40 42 44 44 42 38 36 34 34 35 34 31 28 25 26 25 26 26 24 23 22
21 22 21 23 24 24 27 33 34 32 32 33 36 39 40 38 38 40 42 41 41 42 40 40 42 46 47 47 46 47 47 44 38 38 36 34 32 33 34 34 33 31 30 29
14 15 14 15 16 17 18 19 22 24 26 27 28 32 36 38 38 39 40 41 40 38 37 41 41 41 42 47 48 45 44 44 47 47 48 46 43 40 40 40 40 40 38 36
11 12 12 11 11 11 13 16 19 23 25 26 27 29 31 35 37 39 41 42 42 42 40 40 40 39 40 43 43 44 46 51 53 53 50 51 49 45 44 46 45 45 44 42
13 12 14 13 13 13 13 12 13 15 18 22 25 28 30 32 34 37 39 40 41 43 41 40 40 42 42 42 45 50 52 55 54 53 56 56 55 51 51 51 51 49 49 49
13 13 14 15 17 17 17 18 19 20 21 23 25 27 28 28 30 34 36 39 42 43 44 44 42 42 43 45 49 51 53 58 59 60 58 55 58 56 56 56 56 56 56 56
16 16 18 19 20 22 23 25 25 26 27 28 29 33 35 35 35 35 35 40 42 43 45 46 46 46 47 46 50 55 55 55 56 59 60 62 62 60 57 61 61 61 61 61
21 21 22 20 21 23 25 26 29 32 33 33 33 34 37 39 40 42 42 41 42 44 46 46 45 45 45 47 54 53 54 55 57 58 60 65 64 61 61 62 63 63 64 66
24 26 24 23 26 28 29 29 30 30 31 33 35 36 37 39 40 40 42 43 44 47 48 46 45 43 44 45 48 51 55 59 61 61 60 62 63 64 64 66 67 66 65 64
17 20 26 29 28 27 27 28 31 32 33 33 33 35 36 38 40 42 43 44 46 47 49 48 48 49 48 49 46 48 54 57 59 59 59 59 60 61 61 62 63 61 61 61
25 24 23 24 26 27 28 30 30 31 32 33 34 34 35 36 38 40 42 45 49 51 51 51 53 53 48 47 48 49 51 52 54 54 54 55 54 55 55 57 60 61 61 60
22 23 24 25 26 27 28 28 30 32 33 34 36 38 39 40 41 42 43 46 49 51 52 53 51 51 49 48 48 48 46 46 49 49 47 48 48 48 49 51 51 53 54 56
23 23 25 25 26 26 28 29 30 33 35 37 38 39 40 41 43 43 44 45 46 47 48 48 47 48 46 46 46 46 43 45 47 44 45 45 45 45 45 45 45 46 47 49
23 24 24 25 25 25 27 29 31 33 34 36 37 38 39 40 42 43 44 44 45 46 47 46 46 47 47 46 46 44 44 42 41 43 44 42 46 46 43 42 42 43 44 45
21 21 22 21 23 25 27 28 30 32 35 38 40 42 43 45 45 45 44 44 44 45 46 46 46 47 47 46 43 45 38 38 39 39 38 39 42 43 43 45 46 46 47 48
19 19 19 21 23 23 26 29 33 36 39 42 44 45 46 46 46 45 44 44 43 42 43 43 44 47 46 45 46 51 57 50 40 41 39 40 41 39 41 43 43 42 44 47
20 20 20 19 20 23 27 32 35 40 35 34 36 33 29 29 32 33 35 37 38 38 38 39 40 41 41 47 48 47 44 47 46 47 36 40 37 34 36 36 36 38 38 38
18 19 18 19 21 25 29 33 31 31 32 32 31 28 27 27 28 29 28 28 30 28 28 31 34 37 39 42 44 48 44 43 51 50 50 46 46 44 43 45 43 40 36 38
17 17 17 18 23 27 30 29 28 29 28 29 28 27 27 28 27 25 19 16 19 24 26 27 27 26 25 24 32 42 39 47 30 41 44 44 45 43 44 42 41 41 41 40
17 16 16 20 24 26 28 27 26 27 27 26 26 26 26 27 23 14 10 10 9 9 12 17 23 26 25 24 21 28 28 26 25 30 37 37 33 33 34 37 43 39 37 39

GFSNGP_500_spd_099.txt.gz
Wind_Speed
28 29 21 26 29 27 31 28 24 23 25 37 40 33 26 31 29 28 26 32 26 25 23 25 26 27 25 24 24 36 27 23 21 27 30 25 29 26 25 28 30 28 28 26
24 23 25 24 26 24 24 27 26 23 34 7 31 33 30 31 32 30 24 25 29 28 26 26 20 18 19 18 15 17 32 21 19 15 21 14 21 30 29 30 31 35 27 30
25 32 18 21 24 29 24 25 27 25 29 41 35 34 35 31 32 32 32 29 26 26 23 22 22 21 20 20 19 19 20 19 19 16 18 15 16 21 26 25 26 28 28 31
32 26 31 32 26 22 29 39 40 41 43 41 33 34 33 31 34 34 34 34 33 31 28 28 25 24 23 23 22 21 20 16 16 18 18 17 19 16 9 11 17 19 31 37
34 20 31 38 37 35 36 32 32 40 40 42 40 35 34 33 34 35 37 38 38 39 37 36 35 35 33 31 30 26 23 22 15 13 17 17 19 21 17 18 16 15 13 18
20 14 17 29 38 38 29 28 34 36 36 36 33 31 36 35 34 34 36 37 39 42 43 44 43 42 39 34 32 32 31 27 25 23 20 20 21 21 21 20 22 22 21 22
14 18 18 17 23 21 30 34 37 34 35 34 34 35 38 34 36 35 34 34 37 38 39 41 42 44 44 44 42 39 37 37 34 30 27 26 24 25 25 25 26 25 21 19
17 16 25 24 15 23 25 33 34 33 35 35 33 33 37 35 35 36 37 39 40 40 39 39 38 39 40 43 44 45 43 39 38 39 37 34 32 31 30 27 25 25 24 21
25 27 25 20 20 22 23 24 28 30 31 32 31 34 36 37 37 38 41 41 41 40 41 43 43 42 42 43 42 44 46 45 42 36 35 33 35 36 34 33 32 31 30 29
21 25 23 22 22 23 24 24 27 29 32 35 35 34 34 36 39 40 41 40 39 39 40 40 39 42 42 43 44 44 45 45 49 49 45 41 36 39 43 41 35 35 36 36
16 16 17 16 18 18 19 21 24 24 25 27 29 31 32 33 33 35 38 41 42 43 43 42 42 40 39 42 43 44 44 44 45 45 47 49 49 46 46 49 49 47 43 43
15 12 14 15 15 15 15 14 15 16 18 20 24 28 30 32 33 34 36 37 39 41 44 45 44 43 43 43 43 43 46 48 47 47 48 48 49 52 54 55 53 52 51 50
18 17 17 16 17 18 18 19 19 20 20 21 22 23 24 25 27 30 35 38 39 40 41 42 43 44 44 45 46 46 49 50 51 52 53 53 55 55 51 63 60 55 54 55
15 17 18 18 20 20 23 23 25 26 26 26 26 27 28 30 31 34 36 37 37 38 38 40 42 42 44 44 46 47 48 47 49 52 53 54 56 59 62 60 58 55 56 54
20 22 24 23 26 25 27 29 30 31 31 32 34 35 37 39 39 40 42 43 44 44 44 45 46 46 46 46 48 49 51 52 52 51 52 53 55 57 60 63 62 60 59 60
17 19 23 25 27 27 27 28 30 32 33 35 36 37 39 39 39 40 41 43 44 45 47 50 50 50 50 51 52 52 51 50 51 50 53 55 54 55 56 59 62 62 62 64
18 19 20 20 21 25 31 33 34 35 34 35 36 37 38 39 40 42 43 44 45 47 48 49 50 52 51 53 54 56 57 55 53 52 51 52 53 54 56 57 58 59 60 60
18 20 23 25 26 27 29 30 32 33 34 34 35 36 37 38 40 41 43 44 45 46 47 49 50 51 53 54 55 54 51 52 52 52 53 54 57 58 57 58 59 60 60 58
21 21 22 25 28 29 30 30 32 33 34 34 35 36 37 39 40 42 43 44 46 47 48 50 51 52 52 54 59 59 59 57 56 55 54 54 57 57 56 55 55 55 55 55
20 23 25 25 26 27 27 29 29 30 31 33 36 38 40 42 43 44 45 45 46 48 50 51 52 53 55 57 57 58 58 56 54 54 53 53 52 50 49 48 47 47 48 50
23 23 24 25 25 26 27 26 27 29 32 33 36 38 40 42 44 45 46 46 46 47 48 50 51 53 54 55 54 54 54 53 51 50 49 45 44 47 47 43 43 45 46 46
22 23 22 22 22 21 23 24 25 27 30 34 38 41 43 45 46 48 49 50 51 52 50 49 48 48 49 52 51 50 50 50 50 49 46 43 40 40 41 40 41 41 41 44
20 19 20 18 18 18 18 21 24 29 31 36 37 36 36 38 38 37 36 38 41 44 46 46 48 47 48 48 48 49 49 49 47 46 41 38 41 44 44 40 40 42 41 40
21 19 18 17 16 16 18 23 25 28 31 32 31 31 32 32 31 31 32 34 36 34 33 35 38 40 43 45 45 46 48 49 48 47 48 50 46 42 44 38 35 37 39 39
21 19 17 16 15 16 20 23 24 27 30 31 30 30 29 27 28 29 30 31 31 30 27 29 31 33 33 35 38 39 41 43 47 47 49 47 50 44 37 39 37 42 41 39
21 18 17 16 16 18 20 21 23 26 29 31 31 30 31 29 29 27 29 26 19 15 14 18 23 25 28 29 30 34 38 40 40 44 43 41 37 48 53 56 53 50 48 45
20 18 16 16 17 18 20 20 21 24 26 30 32 29 29 29 28 29 22 12 10 9 9 10 13 16 19 22 22 22 23 25 32 34 40 33 42 35 42 45 48 47 44 44

GFSNGP_500_spd_102.txt.gz
Wind_Speed
22 22 31 20 17 24 18 22 13 21 26 30 27 30 28 22 23 29 26 26 28 27 24 19 20 21 20 20 21 23 21 19 18 27 23 26 26 23 20 23 22 24 21 22
43 18 26 23 17 20 18 21 19 28 34 35 15 33 26 27 23 28 28 27 29 30 31 26 21 18 18 17 19 19 15 14 18 32 27 26 23 26 26 28 24 25 21 23
40 23 18 12 28 24 24 33 27 33 26 24 42 28 15 16 23 26 28 30 29 29 31 28 26 24 23 20 18 17 14 14 17 20 12 12 12 11 11 15 16 15 19 20
39 27 27 28 31 31 31 20 29 34 35 28 29 37 34 20 28 31 30 33 30 26 26 24 23 22 21 22 22 20 18 16 13 14 14 13 15 16 15 12 12 17 12 20
36 46 37 34 35 29 33 38 29 32 49 49 30 10 17 25 32 34 34 33 32 31 30 28 27 28 28 27 26 24 21 19 16 15 15 13 14 18 18 22 24 19 18 16
29 18 17 28 30 32 35 42 38 22 56 59 52 24 36 29 32 30 31 35 38 37 36 35 34 34 34 34 33 31 29 28 28 26 23 22 18 19 20 21 24 25 24 22
26 20 33 33 46 36 39 36 18 26 31 45 48 50 50 40 37 33 32 33 34 36 39 41 42 42 43 43 42 41 38 36 33 33 30 29 27 27 23 24 26 27 27 27
16 14 16 16 8 20 39 46 33 34 38 39 37 41 43 41 41 38 34 34 35 35 35 37 38 40 43 45 45 45 44 42 39 38 37 36 34 32 31 30 29 29 30 31
23 26 21 19 11 17 19 18 30 34 33 32 30 34 38 37 38 39 39 37 37 39 40 41 41 40 40 41 41 42 42 43 42 41 40 37 36 37 38 37 36 36 36 32
16 26 28 20 12 17 20 23 22 23 26 29 29 31 33 35 37 39 40 40 40 42 43 44 43 43 43 44 46 45 45 45 46 45 45 43 43 39 39 38 40 39 38 36
12 18 17 20 20 19 21 24 25 26 27 27 27 27 29 31 32 33 34 36 39 42 43 43 42 43 44 45 45 45 46 47 47 48 46 45 46 49 48 47 43 43 40 45
16 16 15 20 17 17 19 20 19 20 22 23 24 25 27 28 29 29 30 33 34 37 39 42 45 47 47 47 46 46 46 47 48 50 49 49 49 49 50 46 53 44 51 49
17 15 15 16 13 17 17 17 17 18 18 19 20 21 22 23 23 25 28 31 34 36 36 39 41 43 45 47 48 48 49 48 49 50 48 50 53 52 54 54 56 60 58 56
18 18 20 22 21 21 22 23 23 26 24 26 26 26 26 26 27 28 29 30 31 33 33 34 37 40 43 44 45 45 46 47 50 52 53 53 53 55 56 58 60 59 58 57
19 20 21 22 22 23 25 26 27 30 32 31 33 34 35 35 36 36 37 39 39 40 41 41 42 44 44 44 43 44 43 44 46 48 49 51 52 52 54 58 60 57 57 60
15 19 21 23 25 27 29 30 32 33 33 32 35 35 36 38 40 43 45 45 47 49 49 49 50 50 49 49 51 51 52 52 52 51 50 51 51 51 52 53 54 55 54 52
18 20 20 24 23 24 25 27 26 30 33 36 38 38 41 41 41 41 42 44 46 46 48 48 50 51 51 50 52 53 53 54 56 56 55 55 54 52 52 53 55 54 52 52
22 19 21 23 25 26 28 29 30 32 34 35 36 38 38 40 41 43 43 44 46 47 47 48 50 51 52 52 53 55 56 55 54 56 57 56 55 54 54 54 53 54 53 53
15 18 21 25 26 29 31 32 32 32 33 33 34 36 37 39 41 42 43 44 46 47 49 50 51 51 52 52 53 52 54 55 53 51 54 55 55 55 54 54 55 56 56 56
17 17 20 25 30 31 30 29 30 30 30 31 33 34 36 38 41 44 46 47 48 50 51 51 52 53 53 54 55 52 54 56 57 55 51 56 59 60 59 58 56 55 55 56
16 18 23 28 28 28 28 28 28 28 27 28 30 32 35 39 42 45 48 50 52 53 54 55 54 53 53 53 54 55 54 53 55 57 56 54 54 55 54 54 53 53 54 54
18 21 23 23 23 25 26 24 24 24 23 24 28 31 34 38 41 43 44 44 46 48 49 50 52 53 56 55 56 55 54 53 53 51 54 54 50 47 48 50 50 47 44 43
17 20 23 22 21 20 21 21 19 21 23 24 26 30 33 36 39 39 38 39 41 41 40 41 43 42 41 45 52 56 55 53 52 50 50 49 47 44 43 43 40 42 41 36
17 20 23 21 19 18 18 19 17 20 23 24 27 30 32 35 38 37 35 35 36 38 38 38 39 39 37 37 38 42 49 52 52 48 47 48 46 47 44 41 42 41 41 44
16 20 23 22 19 18 18 19 19 21 23 25 28 30 33 34 34 32 33 34 36 37 33 28 27 29 31 34 34 34 35 39 43 45 47 47 48 47 48 47 47 46 38 33
17 19 22 21 20 18 18 19 22 22 23 25 27 30 33 36 31 31 31 35 30 17 12 12 13 13 14 19 24 26 30 31 33 36 38 40 41 43 46 44 46 39 38 37
20 20 22 22 21 19 19 19 20 21 22 23 25 28 31 34 29 29 32 27 15 7 9 12 15 20 18 16 18 23 24 23 25 28 29 34 36 36 33 37 34 35 36 39

GFSNGP_500_spd_105.txt.gz
Wind_Speed
26 17 17 25 18 24 25 26 19 21 22 26 27 24 17 20 15 13 22 23 20 16 14 16 21 7 13 12 12 13 15 13 11 16 21 22 16 27 24 23 19 22 20 18
47 33 21 21 21 26 25 25 18 22 22 24 24 16 23 24 29 26 21 26 24 22 17 16 16 14 15 16 12 10 11 11 11 12 14 15 21 22 28 26 26 30 28 21
35 45 28 33 28 25 21 28 18 27 24 26 27 26 29 32 31 26 25 25 26 25 23 21 17 20 17 16 14 14 14 12 10 10 9 12 15 25 27 23 23 22 21 24
31 39 32 33 29 25 27 31 30 31 32 33 29 26 34 26 17 24 22 20 23 25 24 24 24 25 23 24 21 21 19 16 15 13 10 10 12 15 17 14 11 12 14 16
22 40 41 37 34 30 35 31 34 40 45 39 35 28 30 38 22 24 23 25 26 29 27 23 24 27 24 24 23 23 21 20 17 15 13 12 13 12 13 14 13 16 21 20
25 37 44 37 37 30 36 33 26 29 22 29 39 46 42 18 31 36 30 27 28 28 30 32 32 34 32 30 30 28 26 25 23 22 21 19 19 20 21 20 19 22 28 25
25 34 38 31 32 34 35 40 35 29 27 23 26 28 40 40 30 27 26 26 26 28 31 33 36 37 38 38 38 35 34 32 32 31 30 28 28 27 27 24 24 26 29 28
18 28 21 28 22 38 34 37 40 39 37 44 50 25 18 19 27 29 31 37 35 32 33 34 36 37 40 41 40 41 41 40 39 39 36 36 34 34 32 33 32 32 32 32
10 11 10 2 17 18 28 26 34 39 50 19 31 19 21 25 33 41 36 38 39 37 36 37 38 39 40 42 41 41 41 41 40 40 38 38 36 37 37 38 38 38 39 38
16 18 15 11 14 10 7 10 24 34 40 44 44 36 29 28 31 37 34 36 40 41 41 42 43 43 44 44 43 44 44 44 44 44 44 43 42 42 41 41 41 40 40 40
10 14 12 11 12 13 14 15 15 20 26 32 31 27 24 24 24 27 31 35 39 41 41 42 43 45 46 46 46 47 47 47 49 49 49 49 49 48 46 47 47 46 46 44
8 9 7 9 10 11 14 14 17 23 24 27 31 32 30 30 28 27 29 31 33 35 37 39 41 44 46 48 49 49 48 48 49 50 51 51 51 52 53 53 52 48 47 49
14 12 12 11 7 10 13 14 16 19 23 26 26 26 24 23 23 25 25 27 29 31 33 36 38 39 40 41 43 45 47 50 52 52 51 51 51 52 53 54 54 55 57 55
17 17 17 19 17 15 16 15 16 17 19 19 22 23 24 24 23 25 26 26 27 27 28 30 32 34 36 39 41 42 43 43 44 46 49 51 52 54 54 53 52 54 57 58
13 15 17 20 21 21 23 24 25 27 27 26 27 29 30 32 33 33 34 34 35 35 35 36 36 37 39 40 42 42 43 44 45 45 46 47 48 49 50 52 53 54 55 55
13 13 15 18 20 22 25 27 29 31 33 33 33 35 36 37 38 39 39 39 39 41 43 44 45 45 46 49 50 51 51 51 51 53 53 52 51 51 50 50 49 51 52 52
17 16 18 21 20 19 22 24 27 30 32 32 30 32 34 36 38 40 42 43 43 44 44 46 47 47 48 48 50 52 52 53 53 54 54 55 56 58 59 58 56 54 51 51
20 20 24 21 20 22 24 27 30 31 32 33 33 33 34 35 36 37 38 40 42 45 46 47 48 49 50 51 53 52 54 54 55 54 56 58 56 56 57 57 57 56 55 53
18 16 13 15 19 22 26 28 32 32 31 33 33 33 34 34 34 35 36 38 41 44 47 49 51 51 52 52 53 54 54 54 46 55 55 50 51 54 55 55 54 54 52 52
16 14 16 18 20 25 28 30 31 30 29 28 28 29 31 32 34 34 36 38 41 44 46 48 51 54 55 56 56 56 57 56 55 56 57 49 46 50 54 54 52 53 53 53
15 16 14 17 21 24 24 24 26 26 26 24 24 25 26 27 28 30 33 36 40 43 46 49 52 55 56 57 57 58 54 55 54 51 53 54 54 52 49 52 54 53 51 51
15 13 14 15 22 24 23 22 22 21 21 22 22 23 24 25 27 31 35 38 43 47 49 49 48 48 47 48 50 50 53 53 56 57 57 55 53 50 50 49 47 48 49 48
14 14 15 15 22 24 24 20 21 21 19 20 22 24 26 27 30 33 38 41 45 47 45 43 42 44 46 45 44 46 45 47 46 52 56 54 52 46 40 43 43 42 43 43
16 16 15 17 20 24 23 20 18 21 21 22 22 24 26 28 31 35 39 43 44 42 43 43 42 40 38 37 38 37 38 41 43 43 41 45 49 54 51 47 46 42 36 39
17 17 18 19 21 23 26 24 20 20 22 23 23 25 25 26 29 33 38 41 38 40 37 27 19 19 20 21 23 27 32 35 38 39 38 39 43 49 50 44 37 38 36 28
19 21 22 23 23 24 25 27 25 21 22 23 23 24 25 27 28 31 34 36 35 33 26 16 17 19 23 25 24 21 20 20 23 26 30 31 32 34 38 43 44 44 46 43
23 24 25 27 26 26 26 26 27 24 23 24 24 24 26 26 27 29 31 33 31 27 20 16 18 21 26 23 19 18 18 19 22 24 22 23 25 27 29 32 33 36 37 38

GFSNGP_500_spd_108.txt.gz
Wind_Speed
34 34 27 27 31 33 37 34 32 25 26 26 25 28 22 14 16 15 18 16 17 19 21 19 18 21 26 28 26 28 19 13 8 11 14 18 16 19 19 25 20 19 19 21
32 37 33 31 33 37 39 37 35 32 29 27 30 25 26 26 11 15 19 26 19 15 14 17 16 27 32 20 22 21 17 14 16 16 15 16 17 20 19 25 24 23 25 24
42 35 19 20 35 32 32 28 33 33 31 29 30 23 21 17 14 15 18 20 23 24 25 16 28 33 27 28 18 18 16 15 15 13 11 12 13 15 18 23 26 26 29 32
35 31 37 21 22 25 28 23 32 33 33 31 31 32 25 24 26 26 26 25 28 27 31 35 27 20 21 13 16 15 14 15 16 16 12 13 13 14 14 15 21 24 25 24
27 34 32 41 34 28 28 29 34 38 30 32 36 32 31 29 25 23 27 28 31 33 29 29 26 18 21 20 21 23 22 20 20 19 17 19 18 16 16 18 18 17 17 16
28 32 37 36 41 35 29 34 32 28 31 36 33 36 33 28 21 26 31 30 32 29 27 26 25 23 22 19 22 26 22 22 25 21 22 23 22 21 20 21 22 22 22 22
19 25 35 45 40 39 31 34 34 36 36 38 31 34 42 40 33 35 34 32 29 27 28 27 26 26 26 25 28 29 29 27 25 25 28 26 26 27 25 24 26 28 28 28
21 24 29 40 44 40 43 35 45 39 36 39 39 26 44 46 38 36 44 39 30 25 25 27 28 30 31 32 32 33 34 34 36 37 37 36 35 37 35 34 34 33 35 34
6 9 17 24 23 34 29 28 35 37 33 29 40 30 32 33 24 19 17 25 25 25 24 29 33 33 35 37 38 40 42 43 42 41 42 40 40 39 37 37 37 38 38 40
4 5 6 11 8 8 10 22 35 39 39 42 45 41 38 35 21 19 16 25 36 36 37 39 43 42 39 40 41 43 45 44 45 45 44 44 42 42 41 40 40 42 42 43
5 7 12 15 14 15 13 10 11 22 23 20 21 20 17 14 11 15 21 24 32 39 42 38 39 42 42 43 45 47 48 49 48 48 48 48 48 48 49 47 46 46 46 46
4 5 9 9 9 14 18 18 19 19 19 20 23 19 19 16 20 22 25 26 27 29 33 37 41 44 44 45 46 48 50 51 52 51 51 51 51 51 50 51 50 50 50 50
3 2 3 2 4 9 11 13 15 17 20 22 25 25 20 16 17 18 21 23 26 31 35 37 40 40 42 43 44 46 48 50 53 54 54 54 53 53 51 51 51 52 52 53
9 5 3 5 7 9 11 10 10 12 16 19 20 21 22 21 20 18 18 20 22 24 28 31 33 33 35 37 39 41 42 42 43 45 46 47 48 49 50 51 52 52 53 53
10 10 7 6 7 9 12 14 16 16 15 19 21 24 27 28 30 27 26 28 28 29 31 32 33 35 36 38 39 40 41 42 43 44 45 45 45 46 47 48 49 49 50 51
15 14 13 11 10 9 11 15 19 20 20 20 24 28 32 35 37 39 39 39 40 40 38 38 39 41 41 44 47 48 49 50 51 52 52 53 53 53 52 51 51 50 51 51
14 16 17 17 16 17 15 15 17 18 20 23 25 28 32 34 36 36 36 37 38 38 40 41 41 43 44 45 45 47 51 53 54 53 54 57 56 56 58 58 57 57 57 57
19 17 17 17 20 17 13 14 17 21 25 30 34 35 36 35 35 36 38 39 40 41 40 40 41 42 44 46 48 49 50 53 55 56 54 54 55 58 58 56 56 56 56 55
18 15 15 14 14 11 12 14 17 21 25 32 35 31 29 30 32 33 34 35 36 38 39 39 39 40 43 46 49 52 54 56 58 59 58 57 55 54 54 55 55 55 52 48
14 15 17 14 10 10 12 17 22 24 24 23 24 26 26 26 27 28 29 30 30 30 32 34 38 42 45 48 51 53 56 58 59 60 61 60 59 60 58 56 58 58 60 58
16 18 17 13 10 9 14 19 22 24 21 20 22 22 22 22 22 22 24 26 27 30 35 39 42 46 50 54 57 57 57 57 58 58 58 57 53 54 55 55 55 54 53 56
18 16 15 14 12 12 16 19 22 25 24 22 22 21 20 20 22 26 28 29 31 35 38 42 46 50 52 53 52 51 50 50 52 52 52 54 56 56 52 49 49 50 48 45
18 17 16 14 13 15 18 19 22 24 24 24 22 22 23 25 26 29 31 30 32 36 40 43 46 48 48 47 43 41 40 43 47 48 46 44 48 49 50 45 39 38 41 45
19 17 16 16 17 17 20 24 25 24 25 25 25 24 24 24 26 28 30 32 32 38 40 42 44 43 40 33 29 30 32 33 32 36 38 39 39 43 44 40 42 41 38 39
19 17 17 19 19 20 24 25 27 25 25 26 25 26 26 24 25 25 30 30 32 35 38 38 37 34 30 28 28 38 31 31 30 28 31 34 32 35 38 40 37 36 36 38
19 19 20 21 21 23 26 26 25 24 24 25 26 26 25 24 23 24 26 27 31 34 35 35 35 32 29 26 30 31 23 29 23 22 21 21 22 25 28 31 33 35 39 43
21 22 22 23 23 23 25 27 28 27 26 26 28 27 28 25 24 23 25 27 28 30 33 35 32 29 29 29 29 30 25 22 23 20 19 20 23 21 22 25 26 28 30 34

GFSNGP_500_spd_111.txt.gz
Wind_Speed
41 36 33 36 30 31 31 28 25 19 17 14 13 17 15 16 9 9 9 14 21 35 35 32 35 30 29 31 30 38 30 24 22 18 22 26 25 22 20 19 17 22 20 23
38 37 44 40 30 25 29 32 31 27 24 20 19 17 16 17 20 12 9 15 11 15 25 43 42 33 34 29 33 43 33 28 28 22 21 24 24 24 21 21 22 30 27 26
38 44 42 42 31 25 25 34 36 36 33 28 24 23 25 20 17 18 15 14 15 17 22 23 23 28 27 35 37 40 39 41 29 29 20 16 22 24 23 24 25 31 30 30
24 40 42 41 31 28 27 27 37 38 37 34 34 26 25 25 24 20 18 18 17 15 17 12 18 25 32 35 39 42 33 32 31 23 16 16 20 21 20 20 22 25 28 30
23 36 44 35 38 32 30 28 21 32 34 32 32 29 26 27 29 27 24 24 22 23 18 16 20 22 25 34 38 42 34 28 9 8 13 17 19 19 20 21 22 21 20 21
27 26 37 42 34 24 29 29 32 30 33 31 29 26 28 29 28 29 25 25 26 25 24 27 26 21 19 18 23 18 29 26 16 17 21 22 22 23 25 24 23 23 23 25
22 27 31 35 36 34 35 31 31 33 31 36 36 32 32 32 31 31 29 27 30 29 27 26 26 29 25 24 26 21 19 18 21 20 26 25 24 28 24 21 23 27 28 26
11 23 28 32 35 35 31 36 33 39 37 35 34 32 33 34 38 35 34 33 30 33 32 31 28 25 23 21 23 22 21 18 23 22 24 21 23 27 28 29 31 33 35 35
5 14 21 21 26 27 33 36 37 31 38 38 39 37 35 38 40 27 30 33 36 41 32 30 25 20 19 21 24 26 28 29 30 34 30 33 36 36 38 39 41 41 43 44
5 6 13 14 15 16 18 32 37 40 37 34 46 38 41 26 34 45 25 24 20 38 46 32 28 29 27 28 31 33 35 37 39 41 43 43 43 44 43 43 41 42 41 42
3 9 9 10 6 8 6 11 23 28 32 30 33 33 32 31 19 14 7 4 12 13 27 33 38 37 36 34 36 36 37 40 41 42 43 44 45 45 45 45 46 46 45 45
4 6 9 7 7 7 10 13 15 17 19 22 24 22 18 19 17 11 10 16 16 17 27 34 39 45 46 45 42 42 43 44 46 48 49 49 50 50 50 50 50 51 52 52
2 3 2 2 5 8 9 12 13 12 14 17 18 17 16 15 15 18 18 19 24 28 30 32 34 35 37 38 40 41 43 47 50 52 53 54 54 54 54 54 53 53 53 53
4 4 5 8 8 8 8 9 11 13 14 14 13 13 11 11 13 17 20 22 24 28 31 32 33 34 34 35 37 40 42 44 47 49 50 51 51 52 53 53 54 53 52 51
5 4 4 4 6 9 11 12 12 13 14 15 16 17 16 16 16 18 19 21 23 24 26 28 30 31 33 35 36 36 37 38 39 40 41 43 44 46 48 49 50 51 51 51
8 7 7 6 5 3 4 6 9 11 14 16 19 20 20 21 22 24 25 27 29 32 33 35 38 39 40 41 43 45 45 46 47 49 50 51 52 52 53 53 53 54 55 55
12 11 8 8 8 9 10 11 11 10 10 12 15 19 22 26 28 29 29 29 30 31 33 34 34 36 38 39 41 43 45 48 50 52 54 54 55 56 57 57 59 59 60 60
16 13 12 11 11 12 10 7 7 9 10 13 16 18 22 26 30 31 30 30 29 30 31 33 35 36 38 40 41 43 44 47 49 51 54 55 57 58 59 60 60 59 60 60
15 15 15 13 11 9 8 6 8 10 13 16 17 19 19 19 22 23 25 27 28 30 30 30 30 31 32 34 36 38 41 44 48 51 54 55 57 59 60 61 61 61 61 62
16 16 16 13 13 11 7 9 10 14 16 18 20 19 20 20 21 23 24 24 25 26 27 29 31 32 35 39 44 48 51 53 55 57 60 61 62 63 64 64 64 63 61 60
19 18 18 17 14 11 11 6 9 15 17 20 21 21 21 21 22 23 23 23 25 28 30 32 34 38 43 46 48 50 52 54 57 58 60 61 61 61 61 61 55 51 55 56
20 19 18 17 15 16 14 11 14 15 16 18 21 22 22 23 24 24 25 28 31 32 34 35 38 40 43 45 46 48 52 52 53 52 51 53 55 55 54 53 51 51 53 54
21 19 19 17 19 19 16 16 16 17 19 21 23 23 23 23 25 26 28 28 29 30 33 34 36 39 40 41 43 47 48 48 46 43 44 43 44 43 45 47 48 46 44 49
21 21 19 19 21 21 19 19 17 19 22 25 25 25 25 25 27 29 30 31 30 31 33 34 36 37 38 39 41 43 44 41 41 38 38 37 35 34 34 35 39 41 39 36
23 20 19 22 22 21 21 22 21 22 24 26 27 28 28 27 29 31 32 33 30 30 33 32 33 35 36 37 38 40 42 37 35 32 31 31 25 24 26 29 27 28 41 32
21 20 21 21 22 22 24 25 25 26 28 29 30 31 29 30 30 31 32 32 30 31 31 29 31 32 34 35 37 38 37 28 27 24 32 32 27 22 22 20 22 24 30 37
20 20 22 23 24 25 26 27 28 29 30 30 32 33 31 30 31 31 31 32 30 29 28 27 29 30 32 33 34 34 33 26 26 23 27 27 24 21 18 19 19 20 24 28

GFSNGP_500_spd_114.txt.gz
Wind_Speed
39 38 40 28 34 32 28 28 25 21 20 19 18 17 16 14 9 9 3 1 18 27 43 39 42 37 32 30 26 28 30 27 29 32 34 33 32 23 24 24 23 20 19 20
36 49 45 35 38 35 29 28 28 26 20 19 17 25 18 21 18 15 11 4 4 27 40 40 40 31 28 34 35 33 35 32 33 35 33 30 31 30 27 25 25 24 22 23
47 48 52 47 42 39 33 25 31 29 25 22 19 18 19 22 20 15 14 9 6 9 9 17 22 35 39 41 36 39 32 38 40 40 29 27 22 31 33 30 31 28 27 28
32 36 39 40 44 40 35 27 29 31 29 30 23 21 21 22 21 14 15 15 11 11 8 12 6 21 26 43 39 37 39 34 37 39 34 32 33 39 36 29 29 29 29 31
15 35 42 37 35 42 38 34 27 27 31 36 32 28 26 22 19 19 19 17 16 17 11 10 13 16 19 25 40 42 34 34 40 41 41 39 32 29 24 26 29 31 32 35
20 21 31 37 42 41 39 35 30 29 30 32 33 27 24 24 24 22 23 23 22 21 20 21 22 20 21 21 21 32 34 41 37 40 30 31 28 29 25 28 27 24 24 24
15 20 21 23 31 38 45 26 30 26 24 28 23 23 21 23 27 25 28 26 24 23 23 24 25 26 25 23 14 15 24 24 34 40 37 24 30 26 25 29 32 33 30 27
10 16 22 22 21 21 26 25 29 26 25 23 23 26 26 29 30 25 25 25 25 25 25 22 26 27 26 27 27 33 32 27 19 32 25 28 33 31 33 25 21 22 25 25
7 13 13 20 14 15 23 26 28 31 35 32 28 27 26 29 28 26 28 29 28 30 28 30 25 29 26 24 24 24 23 30 23 18 29 18 18 22 24 24 27 28 30 31
5 3 10 13 15 19 22 24 28 32 33 34 33 28 31 32 32 32 24 24 34 28 26 24 30 33 34 32 29 22 24 27 30 32 33 30 27 29 31 31 36 39 39 41
3 5 3 7 11 10 11 17 23 26 30 32 31 32 27 29 30 30 22 27 17 21 14 15 25 31 37 38 33 33 34 34 34 35 37 36 38 39 41 43 44 44 44 44
2 7 6 5 6 12 7 7 9 16 20 23 27 28 27 23 18 13 17 18 16 15 14 19 25 30 36 42 39 43 41 41 41 39 40 41 41 43 44 46 47 47 48 48
2 3 6 8 9 9 8 9 9 9 9 10 15 13 15 17 18 18 19 17 20 22 21 23 26 28 32 37 42 42 44 44 43 42 41 42 44 45 46 48 50 50 51 52
3 2 3 5 6 7 7 7 7 8 9 10 9 8 9 11 12 13 14 16 20 22 24 28 29 31 33 34 36 38 39 40 41 41 42 43 44 45 47 47 47 47 48 49
7 5 4 3 3 3 4 7 7 8 8 8 8 7 7 9 10 11 13 16 18 19 22 25 28 28 29 31 32 34 35 35 37 38 39 40 42 43 44 45 45 46 47 47
8 8 8 7 5 4 3 3 6 10 12 12 13 13 13 14 15 17 19 21 23 26 27 28 28 30 33 35 38 41 43 45 46 47 48 49 50 51 52 53 54 54 55 56
9 10 9 10 10 9 10 9 10 10 11 9 6 6 8 12 15 17 19 23 26 28 30 31 31 32 32 33 35 38 40 42 45 46 48 50 52 54 55 56 57 57 58 59
13 12 14 13 12 10 10 12 10 9 8 6 7 6 6 7 7 9 11 12 13 14 17 20 25 29 33 36 38 39 41 42 44 45 47 49 50 52 53 55 57 58 60 61
16 14 15 15 15 12 10 9 9 7 4 2 4 5 7 8 9 10 11 11 12 13 15 17 19 21 23 25 28 31 35 38 41 44 48 51 55 57 58 59 60 61 63 64
19 17 16 15 14 14 11 11 10 5 3 6 9 11 13 14 15 16 17 19 21 22 22 23 24 26 28 31 33 35 39 42 45 47 49 52 55 58 59 61 63 65 66 67
21 20 18 17 17 15 13 15 11 7 6 8 10 12 14 16 18 19 21 23 24 26 27 28 30 32 35 37 38 40 41 43 45 47 49 51 53 56 58 59 60 60 61 63
24 23 22 21 19 18 18 19 16 11 10 11 11 14 16 18 20 21 22 23 25 26 28 30 33 34 36 37 38 41 42 44 45 47 49 52 54 56 56 55 56 56 56 56
23 25 26 23 22 21 24 23 19 16 15 15 15 16 19 21 24 26 26 26 27 29 31 33 35 36 38 38 40 40 40 42 44 46 48 50 51 49 47 44 43 43 44 45
21 26 26 23 22 23 25 24 20 17 18 19 20 21 22 24 27 28 28 29 30 30 30 32 34 35 36 36 37 38 40 41 42 43 47 45 42 36 41 40 37 33 31 30
23 27 25 23 24 26 25 21 20 21 22 23 25 26 27 27 29 30 31 31 31 32 32 32 34 35 36 36 36 37 37 39 40 41 40 37 27 31 39 37 29 26 25 26
25 27 27 26 27 26 22 22 24 24 24 26 28 29 28 29 31 33 34 34 34 35 35 33 34 34 35 36 36 36 36 36 37 38 36 30 27 31 35 34 24 20 19 21
25 26 25 25 25 25 25 26 25 26 26 27 29 29 28 30 33 35 36 37 39 38 34 33 35 34 33 33 33 32 32 33 33 34 31 28 26 24 25 29 22 16 15 16

GFSNGP_500_spd_117.txt.gz
Wind_Speed
38 41 41 40 37 36 33 28 26 27 26 16 14 13 11 10 8 3 8 4 18 31 36 43 36 29 32 35 36 34 31 30 30 29 26 25 28 25 27 31 30 32 29 27
28 38 42 45 39 37 38 31 25 25 26 21 13 19 13 15 14 10 9 16 5 25 33 31 39 32 31 31 29 30 31 29 32 31 25 24 29 30 31 37 35 34 32 29
23 31 46 45 45 41 39 31 28 26 27 26 21 15 15 16 14 13 8 7 6 8 22 25 32 35 26 40 34 35 34 30 27 30 33 35 32 33 32 33 31 33 33 32
21 27 38 41 40 39 28 30 30 30 25 29 24 19 15 14 16 14 7 11 11 8 7 9 33 39 27 40 37 34 35 30 33 35 28 29 37 36 33 28 36 39 33 37
18 15 20 34 34 39 36 33 36 35 29 21 26 24 19 16 16 17 12 13 14 12 12 2 6 10 25 31 34 31 37 38 39 31 37 37 34 37 36 34 34 42 44 43
10 14 16 24 34 35 36 43 37 37 33 21 21 24 21 20 20 17 15 17 17 12 10 11 13 17 17 18 26 26 26 29 38 33 35 38 42 41 41 39 33 36 32 30
8 11 18 16 27 31 28 32 38 33 35 23 21 18 17 22 23 19 20 21 20 20 19 16 19 24 20 19 21 18 18 24 31 40 28 33 31 33 30 36 32 30 27 21
4 7 13 16 18 20 20 28 33 31 26 26 22 19 17 19 18 20 22 26 23 21 24 25 20 17 19 22 26 26 24 22 14 23 31 34 33 31 38 32 30 28 26 23
5 8 12 12 15 13 15 22 31 28 24 21 16 10 13 14 14 17 20 15 15 17 22 25 27 23 20 21 24 27 29 28 29 30 19 25 36 27 23 28 27 27 25 27
6 5 4 8 13 15 16 17 23 32 29 25 21 22 21 21 19 20 18 15 18 16 21 21 24 30 25 26 25 27 27 29 30 27 27 22 22 21 21 21 22 24 24 25
4 4 0 4 10 13 15 16 17 18 21 23 26 27 25 25 23 17 16 15 15 12 11 9 9 18 21 26 28 30 31 31 29 30 29 28 25 27 33 28 28 34 31 35
2 2 2 2 2 10 11 9 15 19 21 23 24 26 26 25 26 22 18 18 14 13 12 16 17 20 20 24 30 32 33 34 34 34 34 36 38 38 38 38 38 41 40 42
4 4 5 5 3 7 5 8 8 6 12 16 20 20 21 21 23 18 17 15 15 16 16 19 23 24 27 31 32 31 34 38 42 43 43 43 43 43 42 42 43 43 43 45
7 7 7 5 5 9 7 7 7 9 8 9 7 10 16 12 10 10 13 16 18 20 20 22 24 25 27 28 29 29 32 35 36 37 37 37 37 38 40 43 44 44 45 47
10 8 7 7 7 7 8 8 9 11 10 9 9 12 12 8 8 8 11 13 14 17 20 22 23 24 26 28 29 32 34 36 37 36 36 36 37 39 41 42 44 45 47 48
12 11 9 8 7 6 5 5 7 9 11 11 11 10 10 11 11 13 14 16 17 18 20 22 24 25 27 29 31 32 34 35 37 39 42 45 46 48 49 49 49 49 51 52
11 12 11 11 11 10 9 8 7 6 7 9 9 9 10 11 13 15 16 17 18 20 23 25 26 28 29 31 34 35 37 40 43 44 45 47 48 49 50 52 55 56 58 59
14 11 12 13 12 12 12 11 11 11 9 7 7 7 8 10 11 8 5 6 6 8 9 11 13 15 16 19 21 23 24 26 29 31 33 36 39 42 45 47 49 51 55 57
17 15 15 16 17 15 15 13 10 9 9 8 8 7 7 5 5 5 6 6 6 8 10 12 15 17 19 21 24 27 29 32 35 38 41 43 46 49 51 52 53 54 56 58
22 19 18 18 20 18 18 15 12 13 12 12 10 10 7 5 6 8 10 11 12 14 16 18 20 22 23 24 26 29 32 36 40 43 46 47 49 49 49 50 52 54 57 58
26 24 23 20 23 21 20 17 18 17 15 10 8 6 6 6 7 8 9 11 12 15 17 19 22 23 25 27 30 32 35 39 42 44 45 46 47 48 50 52 54 56 58 59
30 29 26 24 24 25 23 21 22 21 18 13 10 8 5 4 6 8 12 14 17 18 20 22 24 25 27 28 31 35 39 42 41 42 43 44 46 48 50 52 54 56 57 58
35 33 30 27 26 28 27 25 26 25 23 19 16 14 12 11 12 15 17 19 20 22 25 27 28 28 29 31 34 38 41 40 41 41 42 43 44 46 48 50 50 50 47 50
32 32 29 27 28 28 27 27 27 27 25 22 21 20 18 18 18 20 22 24 25 27 29 30 31 32 33 36 39 40 39 38 38 38 40 41 43 44 45 45 42 38 43 42
26 26 24 25 28 29 30 29 28 27 26 25 23 23 24 24 24 25 27 28 29 31 31 31 32 34 36 37 37 37 36 37 36 37 37 38 38 39 39 40 35 32 40 33
26 26 25 25 29 30 30 29 28 27 26 26 26 24 24 25 27 28 29 30 30 32 33 34 35 37 36 36 35 34 36 36 34 35 33 34 34 35 35 36 30 29 32 28
26 28 27 27 29 29 28 28 28 27 27 28 28 27 26 28 29 30 31 32 33 35 37 37 36 36 36 35 35 34 34 34 31 31 30 30 31 32 32 30 23 22 29 30